GFSGBSN_850_thetae_000.txt.gz
Theta_e
306 306 307 306 307 309 310 311 314 317 317 311 314 315 317 317 315 313 304 307 308 310 311 310 310 311 316 319 320 314 315 315 318 320 322 321 321 319 317 317 318 320 320 323 323 324 324
304 305 305 305 305 306 307 308 309 313 316 316 311 314 315 317 315 314 308 306 307 309 312 310 311 313 312 313 314 317 314 314 317 321 321 321 319 319 319 318 317 318 318 318 319 321 322
303 303 303 304 304 304 305 305 306 309 314 315 315 314 315 317 316 315 312 306 308 310 311 311 310 311 313 310 310 310 316 315 314 315 316 316 318 319 320 319 318 318 318 317 318 319 320
303 302 302 302 301 302 303 303 305 305 309 313 315 312 315 315 317 315 313 310 311 313 313 312 308 310 311 311 310 310 311 314 315 314 315 314 315 313 317 318 316 318 317 319 316 317 319
302 302 302 301 302 302 302 301 303 303 305 309 311 314 314 315 317 316 313 310 311 313 311 313 313 309 310 311 312 310 311 311 312 314 314 314 313 312 315 315 315 316 315 317 317 317 318
303 301 301 301 300 301 300 300 301 303 304 305 308 312 314 315 317 317 312 309 308 310 310 311 311 310 311 311 311 310 310 310 312 312 313 313 312 312 312 313 312 314 317 317 318 317 316
300 300 300 300 300 300 300 299 300 301 303 304 305 308 313 314 316 317 311 309 310 309 310 310 310 310 310 311 310 311 310 310 311 311 311 311 312 314 312 312 312 314 315 316 315 315 316
300 301 301 300 300 300 299 299 300 301 302 303 305 305 311 314 316 317 312 309 310 308 309 309 311 310 311 311 311 311 310 311 311 310 309 311 311 310 311 311 314 314 315 315 313 314 315
301 301 300 300 300 300 299 299 299 299 301 302 303 304 305 313 315 315 313 309 309 309 308 308 309 310 311 310 310 311 311 311 309 309 310 310 310 309 311 311 312 311 312 312 312 311 311
300 301 301 300 300 299 299 299 299 299 300 302 302 301 304 312 315 314 310 310 309 309 299 304 309 309 310 310 310 311 311 311 309 310 309 310 309 310 309 310 310 312 310 312 312 312 311
301 300 301 299 299 299 299 299 299 299 301 303 301 302 304 307 312 312 312 310 309 309 302 307 309 311 311 310 311 311 311 310 309 308 309 309 309 309 310 310 309 310 310 311 312 313 312
300 300 299 299 299 299 298 300 299 301 301 301 302 302 305 305 311 313 312 308 309 301 301 310 310 312 312 310 313 311 311 310 310 310 309 307 308 308 308 308 308 309 309 309 309 312 313
300 299 298 298 299 298 298 299 299 299 300 302 303 303 305 305 310 312 309 309 308 304 309 311 311 312 313 313 312 312 311 312 313 313 312 312 310 309 308 309 308 309 311 311 314 313 311
299 299 299 297 298 298 299 298 299 298 300 302 304 305 305 305 307 311 307 308 307 307 308 310 310 310 312 312 312 313 313 313 311 311 312 309 307 310 308 309 309 309 309 309 310 314 308
299 298 299 298 298 298 298 298 299 299 300 303 305 306 306 304 309 310 308 310 307 307 311 310 310 310 311 310 311 312 313 312 310 311 312 311 308 308 308 309 310 312 311 308 310 309 311
299 298 298 298 298 298 298 298 299 300 300 303 306 305 304 304 309 307 308 309 306 309 309 310 311 311 312 311 311 312 311 308 312 310 309 309 311 307 309 309 309 311 309 313 311 311 310
298 298 298 298 297 297 298 298 299 300 301 304 305 305 304 303 307 308 309 308 307 311 310 311 311 311 312 311 311 312 308 307 308 308 308 308 310 308 310 310 310 310 311 310 310 311 308
297 297 297 297 297 297 298 298 299 300 301 303 304 307 307 306 308 308 307 306 307 311 312 313 311 313 311 309 310 307 307 307 308 308 309 310 312 310 309 308 308 308 309 309 310 305 308
297 297 297 297 297 297 297 298 299 300 301 302 305 310 309 307 309 310 308 309 310 312 312 313 313 312 312 312 310 308 308 308 308 309 310 310 312 313 311 310 310 312 310 309 308 310 307
297 296 297 297 297 297 297 297 299 301 301 306 304 309 308 308 308 309 309 309 310 311 312 313 313 311 312 313 309 310 309 309 308 309 310 310 313 312 312 313 312 313 311 310 310 311 310
296 296 297 297 297 297 296 297 299 301 303 307 308 307 305 306 310 308 309 309 310 312 312 313 314 313 314 316 313 311 309 309 309 310 312 311 312 312 312 311 311 314 313 311 311 310 310
296 295 297 297 297 297 296 297 299 301 303 307 309 308 306 307 308 306 307 310 311 311 313 314 312 313 313 315 313 310 311 311 312 310 311 311 312 312 313 313 313 314 313 314 313 311 310
296 296 297 297 297 296 296 296 299 300 302 302 304 307 308 309 310 308 308 310 310 313 311 312 313 314 314 314 313 313 311 311 312 313 313 311 311 314 315 315 316 315 313 313 313 313 311
296 296 296 297 297 296 296 297 298 300 302 302 302 306 311 311 311 309 310 309 312 313 312 313 313 314 314 314 314 313 311 310 310 312 312 311 310 312 315 316 323 317 314 312 312 314 312
296 296 296 296 296 296 296 296 298 299 301 303 304 306 311 311 311 309 312 311 311 312 312 312 312 313 314 314 316 315 315 314 313 313 313 312 311 316 318 320 318 317 318 313 313 315 313
297 296 296 296 296 296 295 295 297 299 301 303 307 307 309 311 310 311 312 312 313 313 312 313 313 313 314 315 316 317 312 314 312 315 309 312 312 314 317 320 316 312 316 316 315 321 314
296 296 296 296 295 296 295 296 297 298 300 302 306 307 310 312 311 311 312 312 312 311 311 310 311 312 312 315 317 318 316 312 314 317 316 315 313 316 316 318 314 312 310 315 321 318 309
295 295 296 295 295 295 294 295 296 298 299 301 303 306 309 312 312 313 312 312 311 311 312 312 312 313 313 316 316 317 317 312 313 311 314 314 314 315 313 316 314 311 311 314 311 309 308
296 295 296 296 295 295 294 295 295 297 298 300 302 306 309 310 311 312 312 312 313 313 312 311 312 313 313 316 313 316 316 310 311 313 311 315 313 314 312 312 309 311 310 311 310 309 309

GFSGBSN_850_thetae_003.txt.gz
Theta_e
304 304 304 304 304 304 304 306 306 306 308 311 315 314 314 315 316 316 314 311 305 308 310 309 308 312 317 319 320 315 316 315 317 321 321 321 320 316 317 316 318 321 320 322 323 323 323
304 303 304 304 303 303 303 303 304 305 305 307 312 315 313 315 315 317 314 314 305 307 311 311 309 311 311 316 316 317 314 314 317 322 321 320 319 319 318 318 317 317 317 318 319 319 320
303 303 303 303 303 302 303 303 303 302 304 304 308 311 313 314 315 317 315 314 305 307 310 311 309 310 312 310 309 309 315 316 318 321 320 320 319 319 319 319 318 317 318 317 317 318 319
302 303 302 302 302 302 302 302 301 301 302 304 304 307 311 314 315 316 316 314 308 310 312 312 309 310 311 311 310 310 314 314 315 314 314 314 316 316 317 317 315 317 317 319 316 316 317
301 301 302 301 302 302 302 301 301 301 302 302 304 304 307 312 314 315 317 314 310 312 312 314 313 310 310 310 310 311 310 314 313 313 314 313 313 312 315 314 314 314 315 318 317 316 317
301 302 301 302 302 302 302 302 301 301 301 302 303 303 305 308 313 315 317 314 310 311 311 311 311 311 311 311 311 311 310 311 311 312 312 312 312 311 312 312 312 312 316 315 316 316 315
302 301 301 302 301 300 300 301 301 300 301 301 302 302 303 304 312 315 316 312 309 310 310 309 309 311 310 311 310 310 310 310 311 311 311 310 312 312 312 311 310 313 314 315 314 314 314
301 301 302 302 302 301 301 300 300 300 300 300 300 301 301 302 308 313 315 311 312 311 309 309 310 311 311 311 311 310 310 310 310 310 309 311 311 310 309 310 312 313 314 314 312 313 314
302 302 302 302 301 301 300 300 299 299 299 300 300 302 302 302 306 312 313 312 312 312 307 308 309 310 311 311 311 311 310 310 309 309 310 310 309 309 310 311 312 312 313 312 312 312 311
303 303 302 301 301 300 300 299 299 299 301 301 301 301 303 301 304 309 312 311 310 311 300 305 308 309 310 311 310 311 311 310 309 310 310 310 309 310 310 311 311 312 310 312 312 312 312
302 302 302 301 300 299 299 299 299 299 300 300 301 301 302 302 306 310 311 310 310 307 302 307 309 310 310 310 310 311 311 310 309 309 309 309 308 309 310 310 309 310 309 310 311 313 312
301 301 301 300 300 299 298 299 299 300 300 300 300 301 303 303 305 308 309 310 309 306 303 309 309 312 311 309 312 310 311 310 310 309 309 307 307 307 308 308 308 309 309 309 309 310 312
300 301 301 299 299 299 299 299 300 300 300 300 300 301 302 304 305 306 309 308 308 307 308 311 311 313 312 311 312 311 311 311 312 312 311 310 310 308 308 308 307 309 311 313 313 313 311
300 300 300 298 298 298 298 299 299 299 299 299 299 303 303 305 305 310 309 307 311 307 308 310 310 313 313 311 312 312 311 312 311 310 310 306 307 309 308 309 309 309 310 311 311 310 310
299 299 298 298 298 298 298 298 299 297 299 300 304 304 304 306 306 306 307 312 308 307 310 311 310 312 312 311 312 312 313 313 312 311 313 309 309 306 307 308 309 311 311 309 311 309 311
298 298 298 298 298 297 298 298 298 299 300 302 305 305 306 305 305 306 308 311 307 310 309 310 312 311 312 311 311 313 313 309 311 310 310 310 311 307 308 307 308 310 309 311 311 312 311
298 298 298 298 297 297 297 298 298 299 301 302 305 304 304 305 306 308 309 310 308 310 310 310 311 311 310 312 310 311 309 307 308 308 309 310 310 309 310 310 310 311 311 311 311 312 312
298 298 297 297 297 296 296 298 298 300 302 304 301 306 303 306 306 303 309 307 309 310 312 313 311 311 310 310 311 310 308 306 308 308 311 309 311 312 309 308 309 309 310 310 311 309 310
298 298 297 297 297 297 297 297 298 300 302 302 304 308 304 306 309 309 308 309 310 313 313 313 312 312 311 310 311 308 307 307 308 308 309 309 312 310 307 310 309 311 310 309 309 309 310
297 297 297 297 297 297 296 297 298 300 302 304 305 309 308 307 308 307 308 309 310 311 312 313 312 311 312 313 309 310 308 308 307 309 310 310 312 309 312 312 311 312 311 310 310 312 309
297 297 297 297 297 297 296 297 298 300 303 305 308 306 305 308 309 308 309 309 310 311 311 312 313 313 313 315 313 313 309 309 308 309 310 311 311 311 312 311 311 312 312 311 312 310 310
297 297 296 297 297 297 296 296 297 300 303 305 304 308 307 307 308 307 308 308 308 310 313 313 312 313 314 315 312 311 310 309 311 309 312 312 314 312 313 313 312 312 313 311 311 311 309
297 296 297 297 296 297 296 296 297 300 302 302 302 306 309 309 308 307 306 308 309 310 311 311 312 313 314 313 312 312 312 311 311 311 312 312 311 313 314 314 315 314 313 312 312 311 310
298 297 297 297 297 297 296 296 297 298 301 302 303 305 309 310 308 308 307 308 311 311 313 313 312 313 313 313 313 313 313 311 310 309 310 313 310 312 314 315 319 318 314 313 312 311 311
296 297 296 297 296 296 296 295 296 298 299 302 304 305 308 309 310 309 308 307 308 310 312 312 312 312 312 313 314 315 314 312 311 310 310 311 312 315 316 319 318 314 315 312 313 313 311
297 297 296 297 296 295 296 296 295 297 298 302 305 305 306 310 309 309 309 311 312 312 313 313 313 313 313 314 315 318 311 312 311 312 308 312 312 314 316 319 320 311 313 311 313 317 311
294 296 296 296 296 296 296 296 295 295 297 300 302 302 305 309 310 310 309 311 313 312 312 311 311 311 313 314 316 318 314 310 313 315 314 315 313 315 316 318 314 311 311 314 318 317 307
291 294 295 295 294 295 296 296 296 291 296 299 300 302 301 306 312 311 311 311 312 312 313 312 313 313 313 314 316 316 314 311 311 310 313 313 313 313 313 316 313 309 312 315 311 309 308
290 290 294 295 295 294 295 296 295 291 293 297 299 302 305 306 310 312 312 312 312 313 312 312 312 312 312 315 314 315 316 310 309 313 310 315 311 313 312 312 308 310 310 311 310 308 308

GFSGBSN_850_thetae_006.txt.gz
Theta_e
304 305 304 304 304 303 303 304 304 304 303 304 306 308 312 314 314 315 317 315 314 305 308 310 308 311 318 320 320 316 316 316 320 322 322 322 320 319 320 319 320 323 321 322 322 324 323
303 303 303 303 303 303 303 303 303 302 302 303 304 305 308 312 314 315 316 316 314 306 308 311 309 309 315 320 318 320 314 314 318 322 322 321 321 320 319 318 319 319 320 320 320 321 321
303 302 303 303 303 304 303 303 303 302 302 302 303 303 305 308 313 314 315 317 314 306 307 313 311 309 312 313 312 313 317 314 318 323 321 320 320 319 319 320 319 319 320 319 319 319 320
302 303 303 302 303 303 303 303 302 302 302 301 301 302 303 305 309 314 315 318 314 306 308 311 310 309 312 311 310 310 314 317 320 320 320 319 319 318 317 318 318 319 319 321 319 318 318
303 303 302 302 302 302 302 303 302 302 302 301 302 301 302 302 306 311 315 317 313 308 312 313 312 311 313 310 311 310 312 314 314 314 314 316 314 315 316 316 317 317 319 319 318 317 319
303 303 303 303 302 302 302 302 302 302 301 301 302 302 300 302 304 310 314 316 313 311 312 313 312 311 311 311 311 311 310 312 312 313 313 313 314 315 315 317 318 317 318 316 316 316 317
303 302 302 303 303 303 302 302 300 301 300 300 300 300 301 301 303 305 313 315 313 312 311 310 311 311 311 311 311 310 310 311 312 313 315 313 315 316 315 315 314 313 315 316 315 315 315
302 303 303 303 303 303 302 301 301 301 300 299 300 300 301 303 300 301 308 312 310 311 311 310 310 311 311 311 311 310 310 311 311 313 313 313 314 314 312 312 313 313 314 315 314 313 314
302 303 302 303 303 302 301 300 300 300 299 300 299 301 302 302 302 301 306 312 312 309 311 311 311 311 311 311 312 311 310 311 312 313 313 314 312 311 312 313 313 314 315 314 314 313 313
302 301 302 301 302 301 299 300 299 299 299 301 300 301 301 302 302 302 305 307 311 311 310 310 311 310 310 311 312 311 311 311 311 312 312 313 312 311 312 313 313 314 312 312 313 313 315
301 301 300 300 300 299 299 299 298 298 299 300 300 300 300 300 301 304 307 306 309 309 318 309 309 310 311 310 310 311 310 311 312 311 311 312 311 311 311 311 311 312 311 311 312 313 312
301 300 300 299 299 299 299 298 299 299 300 300 299 299 299 301 301 302 304 309 309 309 316 311 310 311 312 310 311 311 311 310 310 311 311 311 309 310 311 311 311 310 311 311 311 311 314
299 300 299 298 299 299 299 298 299 299 299 299 299 298 299 300 301 303 304 308 309 316 309 312 311 311 311 310 312 312 312 312 313 313 313 311 311 310 309 310 310 311 311 313 314 314 313
300 299 299 299 299 298 298 298 299 299 299 299 300 304 305 303 302 304 306 307 315 311 311 310 312 311 312 311 313 312 312 313 311 311 312 313 314 311 310 310 311 311 312 313 312 311 311
299 299 299 298 298 298 298 298 298 298 298 301 302 304 303 303 302 304 304 311 314 311 311 311 312 313 312 310 313 312 312 312 311 311 313 313 311 309 310 310 310 311 312 311 313 313 314
300 299 299 298 298 298 298 298 298 299 300 303 302 305 305 304 306 305 306 313 310 310 311 311 312 311 312 312 313 312 313 312 312 312 311 311 313 309 310 309 310 311 310 313 313 313 313
300 298 299 298 298 297 297 298 298 299 300 304 301 304 303 306 304 303 311 310 311 310 310 312 312 312 312 312 312 312 313 311 311 312 311 311 310 311 310 310 311 311 311 312 312 313 312
300 299 298 298 297 297 298 297 299 299 301 303 302 304 304 305 305 304 310 307 311 311 313 313 312 312 312 312 312 312 313 310 309 311 313 311 312 313 312 310 310 310 311 310 313 313 313
300 298 298 298 298 298 298 296 298 299 302 303 302 304 305 306 310 310 308 309 312 313 314 314 313 312 311 312 313 312 311 309 309 311 312 312 313 313 314 312 310 311 311 311 312 312 313
300 299 298 298 297 298 298 296 298 300 302 304 304 306 306 306 309 309 311 311 313 312 314 313 313 312 312 312 311 312 311 310 309 310 310 310 312 314 314 316 313 315 312 312 312 314 313
298 299 298 298 298 298 297 297 298 301 302 303 303 307 307 308 310 310 310 312 312 313 313 313 313 312 313 313 313 313 311 311 309 310 311 312 314 313 312 312 312 313 314 314 312 312 313
298 298 297 297 297 297 297 296 297 300 302 302 302 307 308 309 308 310 310 311 312 313 312 313 314 313 313 313 313 314 313 312 313 311 312 312 314 313 313 313 313 314 314 314 314 313 312
298 297 297 297 297 297 296 296 297 299 302 302 302 305 309 308 309 310 311 310 310 311 312 312 312 313 313 313 312 312 311 311 311 313 313 312 313 314 315 315 315 318 316 315 314 313 312
297 297 297 297 297 296 297 295 297 298 300 302 302 303 308 311 310 309 309 310 310 310 314 312 311 313 313 313 313 313 313 313 313 313 312 313 312 312 315 315 322 320 313 314 314 314 313
297 296 297 296 296 296 296 294 296 295 299 302 302 303 306 311 309 309 310 309 311 312 312 312 312 312 312 313 314 315 315 314 314 314 314 313 314 317 318 319 318 317 315 317 315 316 313
296 296 295 293 295 295 295 294 297 292 296 300 302 303 305 308 310 309 311 309 310 311 313 312 312 312 312 314 315 317 317 314 315 314 312 313 313 316 317 319 322 316 314 311 313 319 312
295 295 295 295 294 296 295 295 296 292 293 298 300 301 304 305 311 309 311 312 313 313 313 312 311 312 313 314 316 316 318 313 316 316 315 314 314 316 317 318 318 314 311 314 319 318 311
293 295 295 291 289 291 294 292 293 292 291 296 298 300 301 302 308 310 310 311 312 312 314 312 312 312 313 313 314 315 315 315 315 314 316 316 317 316 317 317 320 312 314 317 315 311 309
292 294 295 290 289 292 293 294 294 295 294 295 297 298 300 302 307 310 311 311 311 311 312 312 313 312 312 314 314 314 315 315 315 318 312 318 316 318 317 318 313 312 314 312 310 309 309

GFSGBSN_850_thetae_009.txt.gz
Theta_e
304 304 304 304 304 305 304 304 304 303 303 303 303 304 305 306 310 314 314 315 318 315 308 308 309 310 319 322 321 319 318 318 321 323 323 323 322 321 322 322 322 323 322 321 321 322 323
304 304 304 305 304 305 304 304 303 303 303 303 303 303 303 305 307 311 314 315 318 315 309 308 310 309 316 321 319 320 316 318 321 323 322 322 322 321 321 321 321 321 321 321 322 322 322
304 304 304 303 304 304 304 303 303 303 303 303 303 303 303 302 303 308 312 314 315 315 309 309 312 310 314 317 315 315 317 319 321 323 323 322 321 321 321 321 320 320 322 321 320 320 321
304 304 304 304 303 303 303 303 303 303 303 303 303 302 302 303 302 304 310 314 314 316 309 310 312 312 314 313 313 311 315 318 320 321 321 321 320 320 319 320 319 320 321 323 321 320 319
304 304 303 304 304 304 303 302 302 301 302 302 302 302 302 302 302 302 307 313 314 316 308 310 311 313 314 312 312 312 314 317 316 318 320 320 319 318 317 318 319 319 322 323 322 319 319
304 303 304 304 305 303 303 303 302 301 302 301 301 301 301 301 301 301 304 311 313 313 310 313 313 313 312 313 313 313 313 315 315 315 315 315 315 317 317 319 321 321 321 319 318 317 318
303 304 304 303 304 303 303 303 301 301 300 300 300 299 299 299 302 301 304 309 314 313 314 313 313 313 313 313 312 312 312 314 314 315 316 314 315 318 318 318 318 317 316 316 317 316 316
302 302 303 302 303 302 302 301 301 300 299 300 299 300 300 301 302 303 301 306 311 311 313 313 311 312 313 312 313 312 312 313 314 316 315 315 316 316 316 315 316 316 316 316 316 315 315
302 302 302 302 301 300 300 300 299 299 299 299 299 300 300 301 302 302 304 303 309 311 313 312 311 312 312 313 313 312 312 312 314 315 315 317 315 313 315 315 315 315 316 316 316 315 314
301 301 301 301 300 300 299 299 299 299 299 299 300 300 300 301 302 303 304 304 304 310 310 314 312 312 312 313 314 312 312 312 313 315 314 315 314 312 313 314 314 316 314 314 314 314 317
301 302 301 300 300 299 299 299 298 298 299 299 300 300 299 300 301 303 305 307 304 309 319 311 312 311 312 312 312 312 312 312 313 313 313 315 312 313 313 313 313 314 312 313 313 314 313
301 301 300 300 299 299 299 298 299 300 299 299 299 300 300 300 301 302 303 304 304 309 318 312 310 312 312 311 312 312 312 312 312 312 312 312 311 312 313 312 312 312 312 311 311 311 314
301 301 300 300 299 299 299 298 299 299 299 300 301 302 301 301 300 302 302 305 308 312 311 312 311 312 312 311 312 313 312 312 313 313 313 312 312 311 311 312 311 312 312 315 316 316 316
300 300 299 299 299 299 298 298 298 299 300 301 303 303 304 305 303 301 302 308 314 314 314 311 311 311 312 311 311 312 312 312 312 312 314 314 317 313 311 311 313 311 312 314 314 313 313
300 300 299 299 299 298 298 298 298 299 300 302 303 304 304 304 303 302 301 310 310 314 312 312 311 312 313 311 313 313 313 313 312 312 315 315 314 311 311 311 311 312 313 312 314 312 313
300 300 299 299 299 298 298 298 298 299 301 302 301 304 304 303 303 303 307 313 311 312 312 311 313 312 312 311 314 313 313 313 312 312 312 313 315 311 311 311 311 312 311 313 314 313 313
299 299 299 299 298 298 298 297 299 300 302 302 302 304 306 304 304 304 310 310 312 311 312 313 313 313 312 311 313 313 313 313 313 313 312 312 312 313 311 311 312 312 312 312 312 314 315
299 299 299 298 298 298 298 297 299 301 303 303 302 306 305 304 305 307 312 309 311 311 313 313 313 313 313 313 314 314 314 312 311 312 313 312 312 314 313 311 311 311 312 311 314 314 314
298 297 298 298 298 297 298 298 299 302 304 304 304 304 305 305 310 311 308 310 312 312 314 314 313 313 313 313 314 314 313 311 310 312 313 312 313 314 316 314 312 312 312 312 313 313 315
298 298 298 298 297 297 298 298 298 302 304 304 302 307 305 305 309 311 311 313 314 313 314 314 313 313 313 313 313 314 313 312 310 311 311 312 313 315 315 318 314 315 314 313 314 316 315
297 298 298 298 298 297 296 296 298 301 304 304 303 308 308 310 310 311 312 313 314 314 314 313 313 313 313 314 313 313 313 313 311 311 311 312 315 314 313 313 314 314 314 314 314 315 316
298 297 298 298 298 297 297 296 297 300 305 304 303 306 308 309 310 311 311 313 313 313 313 313 313 313 313 313 314 314 314 313 313 312 312 312 314 314 313 313 314 316 315 316 316 315 315
298 297 297 297 297 296 297 296 294 300 304 303 304 305 307 308 310 311 312 312 313 313 313 313 313 314 314 314 313 313 313 312 313 313 313 313 313 313 315 314 315 320 318 318 316 315 315
297 296 296 295 295 296 296 297 293 294 302 303 303 304 308 311 310 310 311 311 311 313 314 313 313 314 314 314 313 313 313 313 313 312 312 314 312 312 316 316 324 319 316 316 316 316 315
297 296 294 294 294 296 296 296 296 291 297 302 302 304 305 311 311 310 310 312 311 311 312 313 312 313 312 314 315 315 316 314 314 314 313 313 314 315 318 317 316 320 317 318 318 318 314
296 296 293 291 289 289 293 292 293 292 292 300 302 304 305 308 311 310 311 311 313 313 313 312 313 313 314 315 315 317 319 316 316 315 313 314 314 315 315 318 320 319 315 314 314 320 313
298 296 295 291 289 289 289 292 290 292 291 294 300 301 304 305 310 311 311 312 311 312 314 313 312 312 312 315 316 318 318 315 317 317 315 315 315 315 315 318 317 317 314 316 321 318 313
297 296 295 294 290 290 291 293 294 294 293 292 299 299 301 301 306 309 311 312 314 313 315 313 313 313 313 314 315 316 317 316 316 316 316 316 316 316 315 317 318 315 316 318 316 314 312
295 297 295 295 294 292 293 294 294 294 294 294 297 298 299 301 305 308 310 311 312 313 313 312 315 314 313 313 313 314 316 316 316 317 315 318 317 319 317 319 317 316 315 315 313 312 312

GFSGBSN_850_thetae_012.txt.gz
Theta_e
305 305 305 306 305 305 304 305 304 304 304 304 304 304 304 304 304 305 308 313 314 316 317 315 307 309 315 321 321 321 321 322 322 322 323 321 321 320 321 320 320 321 320 321 321 321 321
306 306 306 306 305 304 305 305 304 304 304 304 304 304 304 304 304 303 305 311 314 315 316 314 307 310 312 320 320 320 317 319 320 322 323 322 322 322 321 321 321 321 321 322 322 322 322
306 305 305 305 304 305 305 304 304 303 302 303 304 304 304 303 303 304 303 307 312 314 316 313 307 310 314 317 317 318 318 319 321 322 322 323 322 322 321 322 321 320 321 321 321 321 321
306 305 304 305 306 306 305 305 304 304 303 302 303 302 302 303 302 302 303 305 310 314 315 312 311 311 314 314 314 315 317 319 321 322 322 322 321 320 320 319 320 320 320 322 320 320 320
304 305 304 305 305 305 305 304 304 303 303 302 302 301 301 301 299 301 302 302 308 313 313 312 312 313 313 313 314 313 316 319 320 321 321 321 321 320 318 319 319 319 320 321 322 320 320
305 304 303 303 303 304 304 303 302 301 301 301 301 299 299 299 300 299 302 301 307 312 314 312 313 313 312 314 313 313 315 317 317 319 318 319 318 317 317 317 319 320 320 319 319 318 317
304 303 302 303 303 302 301 301 301 300 300 300 299 299 300 301 300 301 303 304 308 312 313 313 313 313 312 314 313 313 314 316 316 317 316 316 316 317 317 317 318 318 318 316 315 315 314
303 303 303 302 301 301 301 300 300 300 299 299 299 300 300 300 301 301 302 303 308 310 312 313 313 313 314 313 313 313 314 315 315 316 315 315 315 315 316 317 316 317 317 316 315 315 315
302 302 303 302 301 300 300 299 299 299 299 299 299 299 300 300 301 301 303 304 304 307 313 312 313 313 313 313 314 313 313 315 314 315 316 316 315 315 316 316 315 315 316 315 315 314 313
302 303 302 301 301 300 299 299 299 300 299 299 299 300 299 300 302 302 303 305 305 304 310 313 312 313 313 314 314 313 313 313 314 316 315 315 314 313 314 315 315 315 314 314 315 314 314
302 302 301 300 300 300 299 298 300 299 300 299 300 299 300 300 300 302 303 304 303 303 317 312 312 312 313 314 313 313 313 313 314 314 314 315 314 314 314 313 313 314 313 313 313 313 311
301 301 300 300 299 300 298 298 298 299 299 299 300 301 303 303 301 300 303 302 303 307 316 312 311 312 313 313 313 312 313 312 312 313 313 313 311 312 313 313 312 311 313 312 311 311 309
300 301 300 300 300 299 299 299 299 299 300 300 301 302 303 303 302 301 302 302 308 311 311 313 314 313 312 313 313 313 313 313 313 313 313 312 312 311 311 312 312 312 312 312 313 312 310
299 301 300 299 300 299 299 300 298 300 300 301 302 304 304 305 304 301 302 305 311 311 315 310 313 313 312 312 312 313 313 313 312 312 313 312 316 312 311 311 312 312 312 312 315 312 313
300 300 300 299 298 299 299 299 299 300 301 302 302 304 303 305 305 301 301 308 310 314 312 312 313 314 312 312 312 312 312 312 311 311 314 315 315 312 311 311 311 312 311 311 313 311 310
300 298 299 299 299 298 299 298 299 301 302 304 303 305 302 304 303 301 305 311 310 310 311 312 312 312 312 312 313 313 313 312 311 311 311 313 314 311 311 311 311 311 311 313 311 307 311
300 298 299 299 299 298 299 298 299 301 303 304 303 305 304 303 303 305 309 309 310 311 311 313 312 312 311 312 313 312 312 313 311 312 311 311 312 312 311 311 312 311 312 312 311 312 311
299 300 299 299 298 298 298 298 298 301 303 304 302 306 305 305 306 306 310 307 311 312 314 313 313 312 311 311 313 312 314 313 312 312 312 311 313 310 312 310 310 311 311 311 313 309 311
300 298 299 298 298 298 297 296 297 301 303 304 304 305 305 306 309 310 308 310 312 313 314 314 313 314 311 312 314 313 313 310 312 312 312 311 312 310 313 313 311 312 311 311 311 311 312
299 298 298 298 298 297 297 295 296 303 304 304 304 306 305 305 308 309 310 313 314 313 314 313 313 313 313 313 313 313 313 311 310 312 311 312 313 310 311 312 312 312 313 313 313 315 313
298 298 297 298 297 297 296 295 294 304 304 305 306 308 307 311 311 310 311 313 314 314 314 313 313 313 313 314 313 313 312 312 311 311 311 311 311 310 312 312 311 312 312 313 314 314 315
297 298 297 296 296 296 293 297 293 304 305 305 306 306 308 310 311 310 312 313 314 313 314 312 313 313 312 313 314 313 313 312 313 311 311 311 312 312 310 311 311 312 312 313 315 316 317
298 297 296 297 296 296 294 296 292 299 303 303 304 306 307 309 311 311 313 312 313 313 313 313 314 313 315 314 314 313 313 313 313 312 312 313 313 312 310 313 312 316 316 317 317 316 316
296 298 297 296 292 292 288 289 292 292 301 302 302 304 306 311 311 311 311 311 313 314 314 313 313 314 314 314 314 313 313 313 313 312 312 313 311 311 314 312 316 317 316 317 317 316 316
297 298 297 296 295 291 291 288 289 291 292 302 302 304 305 311 311 310 311 312 311 311 313 313 313 313 313 314 315 315 316 315 314 313 312 312 312 314 315 312 313 316 317 318 317 317 314
298 297 297 296 296 294 294 289 289 289 291 293 302 302 304 306 311 312 311 311 312 312 312 313 312 312 313 315 314 316 318 316 316 314 313 313 312 314 315 316 317 317 315 315 314 319 312
298 296 298 296 296 296 295 294 290 291 289 291 300 300 302 305 308 310 311 312 311 312 313 313 312 312 313 314 316 317 317 315 316 316 315 315 315 315 315 316 315 314 313 315 319 316 313
298 297 297 297 296 296 295 296 295 293 293 292 294 300 300 300 304 308 310 312 313 314 314 313 313 312 313 314 314 315 316 316 315 315 314 314 315 316 314 316 314 314 315 317 315 314 313
298 297 297 296 296 296 295 296 296 295 293 294 295 294 297 300 302 307 308 311 312 313 314 313 314 313 314 313 313 314 314 315 315 316 314 316 314 316 313 314 313 316 316 315 314 312 311

GFSGBSN_850_thetae_015.txt.gz
Theta_e
307 307 307 306 306 306 305 306 306 305 305 305 305 305 305 304 305 304 305 304 307 312 315 318 315 309 310 318 319 322 322 321 320 320 317 320 321 320 319 318 318 318 319 320 321 320 320
306 306 306 305 305 307 306 306 305 306 305 305 304 304 304 304 304 304 304 305 304 309 314 317 315 310 310 317 319 320 319 322 322 321 319 322 321 320 321 319 318 319 319 320 320 320 320
305 306 306 305 304 305 304 305 304 304 303 305 304 303 302 303 303 303 303 302 303 305 311 316 315 310 311 314 318 319 320 318 319 321 321 321 322 321 321 320 320 320 320 319 319 320 319
305 305 304 304 304 304 303 302 302 302 302 302 302 301 300 300 302 301 301 302 302 303 310 315 314 310 313 310 315 317 318 319 320 321 322 322 322 321 320 320 319 319 319 321 318 319 319
304 304 304 304 304 302 302 302 301 301 301 301 301 301 300 301 301 300 300 299 301 300 309 314 313 312 312 313 314 315 317 319 320 321 322 322 321 320 319 319 317 318 318 319 319 318 319
304 304 304 304 303 303 301 301 301 300 300 301 300 300 300 300 300 301 300 302 303 302 309 313 312 312 312 313 314 314 317 319 320 321 320 319 319 316 316 318 320 316 318 317 317 317 318
303 304 303 304 303 302 301 301 301 301 301 300 299 299 299 300 300 301 301 302 304 307 309 313 310 311 313 313 313 313 317 318 319 318 316 317 316 317 314 314 314 316 317 316 314 313 313
303 303 303 302 302 301 301 300 301 301 301 301 299 299 299 300 300 301 301 302 304 306 309 311 312 313 313 313 313 313 315 316 317 317 313 313 314 313 315 315 316 315 316 315 313 313 313
303 303 303 302 301 300 300 300 301 301 300 300 299 300 300 300 300 302 302 303 304 303 308 313 313 313 313 314 313 313 315 315 314 315 315 313 314 314 314 315 315 314 314 314 314 312 310
303 302 303 302 301 300 300 300 300 300 300 300 300 300 300 300 301 301 302 303 305 303 307 313 313 313 313 313 314 313 314 314 315 316 314 315 313 314 314 315 314 315 312 313 313 311 312
301 302 302 301 298 300 300 300 300 300 299 300 300 301 301 302 304 301 301 302 303 303 313 311 312 313 312 313 313 312 314 313 314 314 314 315 313 314 313 313 312 313 311 311 311 310 308
301 301 301 301 299 300 300 300 301 299 300 300 300 301 302 303 303 301 301 302 302 305 311 313 312 313 313 313 313 312 312 312 312 313 313 312 311 311 312 312 311 311 310 310 309 308 305
301 301 301 300 299 299 300 300 300 300 301 301 302 303 304 303 303 302 301 303 305 306 310 313 315 313 313 313 313 313 313 312 311 312 313 312 311 310 310 311 311 310 308 304 310 312 309
301 300 299 300 298 299 299 300 299 301 301 302 304 303 303 304 304 302 301 305 307 312 312 312 314 313 314 313 312 313 313 312 311 310 307 307 309 310 309 310 310 310 309 307 313 311 311
300 300 300 300 299 298 300 299 299 301 302 304 303 302 304 304 303 301 303 304 307 310 312 313 313 314 313 313 312 312 312 312 310 309 309 307 311 310 309 310 310 310 309 308 308 308 302
300 299 301 299 299 298 299 298 300 300 303 304 303 303 302 303 301 301 305 310 307 306 312 312 312 311 313 313 311 312 312 310 310 309 309 312 310 311 311 310 310 309 309 307 302 304 310
301 299 300 298 299 298 299 298 299 303 304 303 304 303 302 301 302 305 309 308 309 310 311 313 311 311 311 313 311 312 311 310 309 310 309 311 310 311 311 310 310 310 308 309 307 307 307
298 300 298 299 298 298 298 298 298 303 304 304 304 305 304 305 306 305 309 308 309 310 311 313 311 310 309 312 311 310 310 311 310 310 311 311 311 309 309 308 308 309 309 309 307 305 307
300 299 298 297 297 297 297 297 299 304 303 304 305 305 305 305 309 308 308 311 312 314 314 314 313 311 310 309 313 311 311 309 311 311 310 310 309 306 312 311 310 310 309 309 309 309 310
299 298 295 296 297 297 298 295 299 305 304 304 304 302 304 306 307 309 309 313 312 312 313 313 312 310 310 312 311 312 311 310 311 311 311 310 311 305 309 307 311 309 311 310 311 313 312
299 298 294 295 296 294 291 292 295 305 305 305 306 306 307 302 307 307 311 312 313 314 313 312 312 312 312 312 312 311 311 310 310 311 311 311 307 307 310 310 310 310 311 311 311 312 314
299 298 295 292 293 293 289 290 292 302 305 305 306 305 306 308 308 309 311 312 314 313 313 312 312 312 313 313 313 312 312 311 310 310 310 309 309 310 308 309 310 310 310 310 311 311 312
299 298 298 295 291 293 290 289 290 293 303 304 304 305 305 307 307 310 310 312 313 313 312 312 312 313 314 313 313 313 312 312 310 311 311 312 309 305 304 310 310 312 312 312 314 315 316
298 298 298 298 295 292 291 290 289 291 294 303 303 304 305 307 308 310 310 311 312 312 312 312 313 314 314 313 314 312 312 313 312 311 311 310 310 306 307 308 312 315 313 315 315 315 314
297 299 297 298 297 296 292 291 290 290 291 295 302 303 304 307 307 309 310 310 311 312 312 312 313 313 313 313 313 314 315 313 313 311 311 311 311 312 311 308 310 314 315 316 316 315 312
297 299 298 297 298 297 297 294 294 292 290 292 302 301 302 304 309 309 310 311 308 309 310 313 312 311 313 313 312 313 317 315 314 314 312 312 312 313 314 314 314 315 314 314 313 317 312
296 299 298 297 297 297 296 297 295 295 291 291 298 299 301 303 306 306 310 311 311 312 311 312 312 312 313 311 314 313 312 314 314 313 315 315 314 314 314 315 312 310 312 314 317 313 312
297 298 297 296 296 297 295 296 296 296 294 292 292 297 299 300 302 303 305 308 311 312 309 311 311 311 310 313 312 313 313 314 313 312 312 313 313 315 315 315 312 311 313 317 313 313 313
296 298 298 296 295 296 296 296 296 295 295 295 292 293 295 297 300 303 306 307 308 312 313 312 313 312 312 311 310 313 314 312 312 314 311 315 311 312 311 311 309 313 314 315 314 312 311

GFSGBSN_850_thetae_018.txt.gz
Theta_e
307 306 306 306 304 306 306 306 305 304 304 304 304 306 305 305 304 304 304 303 304 305 310 314 315 317 311 313 317 321 320 319 322 321 321 320 319 320 317 317 319 317 318 320 320 320 320
306 306 305 305 304 305 305 304 303 302 303 303 303 304 303 303 304 304 304 303 303 302 305 313 315 315 311 314 315 318 321 321 321 319 319 317 320 320 320 318 317 317 318 319 319 319 319
305 305 305 304 305 305 304 303 302 303 302 301 302 302 301 301 302 301 303 302 301 302 298 312 315 315 310 311 319 319 319 321 321 320 318 316 321 320 320 320 320 319 319 318 318 319 319
304 305 305 305 305 304 303 302 302 302 302 301 302 301 301 300 300 301 299 301 300 299 297 311 315 314 310 308 317 319 319 318 319 321 319 320 322 321 320 319 318 319 318 320 318 318 318
305 305 304 304 304 304 303 302 302 302 302 302 301 301 300 300 300 301 301 300 298 301 299 306 312 311 309 310 313 317 319 319 319 321 321 321 322 320 318 317 317 315 318 318 318 317 317
304 304 304 304 303 303 302 302 302 302 301 301 301 300 300 300 300 300 301 301 301 302 300 307 312 310 311 312 313 315 318 319 320 321 321 321 320 319 316 318 318 316 317 316 317 315 315
304 303 303 303 303 302 301 301 302 302 302 301 301 300 300 300 301 300 301 301 303 304 305 310 311 311 311 312 313 314 317 318 320 319 320 318 319 321 318 316 314 316 316 315 314 313 312
305 303 303 303 303 302 301 301 301 301 301 300 300 300 300 300 300 300 302 302 303 304 305 308 310 312 312 313 314 314 316 318 319 317 314 315 319 316 314 315 316 317 315 314 312 312 312
303 302 303 303 302 301 300 301 301 301 301 299 299 300 300 300 301 302 301 303 303 303 306 307 311 312 313 313 313 313 315 316 317 315 314 315 314 313 314 314 315 313 313 313 313 311 310
303 303 303 303 300 301 300 301 301 302 299 300 300 300 300 302 302 301 302 302 304 303 303 311 311 313 313 313 313 313 315 315 315 315 314 314 313 314 313 315 313 314 311 312 312 311 311
302 303 300 301 300 300 300 300 301 300 300 302 301 302 302 302 303 302 301 301 303 303 309 311 312 312 313 313 313 313 314 313 314 315 315 315 313 312 313 314 312 312 310 311 310 309 308
301 301 301 301 300 300 299 301 300 299 301 301 302 302 303 303 303 302 302 301 303 304 307 311 312 313 313 312 313 313 313 313 313 315 313 311 311 311 312 310 310 311 309 307 307 306 304
301 300 301 301 300 300 299 299 299 300 301 302 304 303 303 304 302 302 301 303 301 304 305 313 314 313 313 313 313 314 313 312 314 314 315 312 310 309 310 310 310 308 307 304 303 301 307
301 300 300 300 299 300 299 299 300 301 303 304 302 304 303 304 302 301 302 302 306 308 311 313 313 312 314 312 313 314 313 313 310 308 311 309 309 310 309 310 310 309 307 306 309 309 308
300 300 299 300 300 299 299 299 301 304 304 303 303 303 304 302 301 302 303 305 306 308 313 313 312 313 313 312 313 312 312 312 310 309 309 307 310 309 309 309 309 309 306 307 306 305 301
298 300 299 299 298 298 298 300 301 304 303 302 302 301 303 302 301 302 305 309 307 306 311 311 312 311 313 312 312 312 312 310 310 308 309 310 309 310 310 309 309 308 307 305 298 301 308
296 298 297 298 297 298 298 298 302 303 303 303 303 303 303 304 305 304 308 308 309 311 311 312 310 310 311 311 310 311 310 309 308 309 308 310 307 309 310 309 309 309 306 306 305 304 306
297 295 293 298 292 295 293 298 304 304 303 303 304 299 304 306 306 306 307 306 308 311 311 312 309 309 311 311 310 310 310 309 309 309 310 310 308 303 309 308 307 308 308 307 302 303 304
297 294 292 297 292 290 291 296 305 303 303 303 304 304 305 305 308 309 308 311 312 314 313 313 311 309 309 309 310 309 310 309 309 309 309 309 308 304 309 310 309 309 308 308 307 305 302
298 295 292 293 297 290 290 293 303 305 305 304 304 299 305 306 307 308 310 310 312 312 312 311 309 310 310 310 310 311 310 309 310 310 310 310 308 304 307 305 308 307 310 308 308 310 309
297 297 294 292 297 291 290 290 296 304 305 305 306 306 306 304 306 308 310 311 312 313 312 311 311 310 311 312 311 311 310 309 310 312 312 309 306 306 308 308 308 309 309 309 308 310 311
295 298 296 296 295 292 291 290 291 302 304 304 304 305 305 305 308 308 309 311 312 312 312 312 313 312 311 313 312 311 310 309 309 309 309 309 310 309 310 307 308 308 309 309 310 310 311
294 298 298 297 296 294 292 291 290 294 303 304 304 305 305 306 305 308 308 311 312 312 311 312 312 313 313 313 312 311 310 310 309 308 308 309 308 307 303 307 308 310 309 310 310 309 310
295 295 299 298 298 296 294 292 291 290 294 303 302 303 305 306 305 308 309 311 312 311 311 312 313 313 313 313 312 312 312 312 310 310 311 311 308 303 302 307 310 312 309 311 310 312 312
300 294 299 298 297 297 296 295 293 291 290 299 302 302 302 304 306 308 308 310 311 312 312 312 313 313 313 313 311 314 314 312 312 311 310 310 311 304 307 307 309 313 315 315 315 314 313
300 295 298 298 296 297 296 296 295 295 290 292 299 300 301 302 305 307 308 309 307 308 308 312 312 311 313 311 311 312 315 314 315 314 311 310 311 312 312 313 313 311 313 314 312 315 312
299 296 298 298 296 296 297 296 296 296 295 292 294 295 300 302 304 305 307 310 310 308 307 311 311 311 312 309 312 311 310 313 315 314 315 314 314 315 315 314 310 308 309 313 316 312 312
296 296 297 298 297 295 296 296 296 296 295 295 293 294 294 299 300 302 304 306 309 310 307 309 310 310 309 311 310 312 313 313 313 312 313 313 314 316 314 314 312 310 312 316 312 313 313
297 296 296 298 298 296 296 296 295 295 296 295 295 294 293 294 294 298 301 303 306 309 309 311 310 309 310 308 307 311 314 311 310 314 309 314 310 311 312 311 309 311 313 314 313 312 311

GFSGBSN_850_thetae_021.txt.gz
Theta_e
306 306 306 306 306 306 306 304 304 304 303 304 304 304 303 303 304 304 304 304 303 304 304 306 312 314 317 312 311 321 320 318 318 318 319 321 322 319 318 317 318 317 318 319 320 320 319
306 306 306 306 306 305 305 304 303 303 304 304 303 302 302 302 302 302 304 303 303 301 302 303 311 313 314 312 311 313 319 320 321 321 321 320 319 320 318 317 317 317 318 318 318 318 319
306 305 306 305 306 304 304 303 303 303 303 303 303 303 302 302 302 301 301 303 303 302 303 303 308 311 313 312 313 314 318 319 322 321 320 321 319 320 319 318 319 319 318 318 317 318 318
306 306 305 304 305 304 303 302 302 302 303 303 302 302 302 301 301 302 300 301 302 301 300 302 304 310 312 314 315 319 318 320 319 318 318 317 321 320 320 319 317 318 316 319 317 317 318
305 305 305 304 305 304 303 301 302 302 303 302 302 301 301 301 301 300 300 301 301 299 301 304 306 312 312 312 310 317 318 319 320 321 320 316 320 320 318 316 316 315 317 318 317 316 317
305 304 303 303 304 303 303 302 302 302 301 301 301 301 300 299 300 301 300 301 301 301 303 302 308 311 311 311 310 317 318 318 319 320 320 320 320 316 314 315 318 316 317 316 317 315 314
305 304 303 303 304 302 302 302 302 302 302 302 301 300 301 300 301 300 300 301 303 302 304 307 311 311 311 312 310 316 317 319 319 320 321 318 321 321 317 314 314 313 315 316 314 313 312
304 304 303 302 302 302 302 301 301 301 302 300 300 299 300 300 301 301 302 302 302 303 303 308 310 311 312 313 312 314 314 318 319 319 316 317 320 319 317 316 317 318 318 315 312 311 312
303 303 302 302 302 302 301 301 301 301 301 299 301 301 300 301 302 301 300 302 303 304 305 307 309 311 312 313 313 313 314 317 315 317 317 319 317 315 316 316 317 315 314 313 313 310 309
302 303 301 302 302 302 301 301 302 300 300 300 301 302 302 302 302 301 301 301 303 303 299 308 308 312 313 313 313 313 316 316 315 315 315 315 312 317 314 314 312 313 311 312 311 311 311
301 303 301 302 301 301 301 299 301 301 302 302 302 301 301 301 303 302 301 302 304 303 300 309 309 312 313 313 312 313 314 315 315 315 315 314 312 314 314 314 311 313 310 310 309 308 308
302 301 301 301 300 301 300 301 301 303 304 305 304 303 303 302 303 303 302 301 303 297 310 310 312 314 313 312 313 313 313 314 314 315 312 310 310 311 311 309 310 309 308 306 305 305 304
302 301 301 300 299 299 299 301 302 304 304 303 303 302 303 302 302 302 301 302 298 303 305 312 314 313 313 314 314 314 313 312 314 316 315 312 309 309 309 310 309 307 307 303 303 302 306
301 300 299 299 298 299 300 301 303 304 303 302 303 303 302 301 301 301 303 302 306 308 307 312 313 313 314 313 314 314 313 312 309 309 311 312 311 310 309 310 311 309 308 304 307 306 307
301 300 297 298 294 297 299 301 303 303 302 301 301 301 301 301 303 303 303 306 307 307 308 314 312 313 314 312 314 313 313 312 310 308 309 306 310 309 309 309 308 309 305 306 305 302 300
301 298 296 297 291 293 298 303 303 303 303 302 302 302 301 302 302 304 305 309 307 306 311 309 311 311 313 312 313 312 312 311 310 308 308 308 309 310 309 309 308 308 306 306 298 300 307
301 299 294 296 292 291 296 303 303 303 303 303 303 304 304 305 305 305 308 307 311 312 311 310 310 310 310 311 311 311 310 309 308 308 308 308 307 310 309 309 309 309 306 305 304 303 304
300 299 294 293 293 291 293 301 303 303 303 304 304 299 305 306 304 304 307 306 308 311 310 311 308 310 311 309 310 309 309 308 308 307 309 309 306 304 309 307 306 307 308 306 303 301 302
298 299 296 294 295 292 291 295 304 304 304 304 304 304 306 307 309 310 308 311 310 312 312 312 309 310 309 308 310 308 309 308 308 308 308 308 305 302 309 309 308 309 307 306 304 302 301
296 300 297 295 296 292 292 291 300 304 305 305 305 300 306 307 307 308 309 309 311 311 311 309 309 309 309 310 308 309 309 309 308 309 309 309 306 303 306 304 306 306 308 307 306 306 307
296 299 297 295 296 293 292 291 292 304 305 305 305 305 306 307 309 309 309 310 311 312 311 310 309 309 310 310 310 310 309 309 310 311 310 308 306 304 307 307 307 308 309 308 305 309 308
300 298 298 296 295 295 293 292 291 299 305 305 304 305 305 305 305 306 307 310 311 311 311 312 311 311 310 311 310 310 309 308 311 309 310 308 310 307 308 307 307 308 308 308 308 309 308
301 299 300 298 296 296 294 292 291 291 303 304 303 304 305 305 303 306 307 310 311 311 311 311 311 311 312 312 311 309 309 309 308 308 308 308 308 307 305 305 307 309 308 308 308 308 308
301 300 299 299 297 297 296 294 292 290 294 301 301 302 303 304 304 306 306 310 311 310 311 311 312 312 312 312 311 312 311 309 308 309 309 310 309 307 302 305 308 309 308 308 309 309 308
300 300 298 299 299 296 297 295 294 294 290 294 299 301 302 304 305 305 307 308 310 310 311 311 312 312 313 312 310 312 313 312 312 310 310 309 310 304 306 308 306 311 313 313 314 313 310
299 299 299 297 299 297 297 296 296 295 294 292 293 297 300 302 303 305 306 308 307 307 307 311 312 312 312 309 309 312 314 313 314 313 310 310 310 311 311 312 311 310 313 313 311 313 311
298 298 297 297 298 297 296 296 296 295 296 294 294 292 296 299 302 303 304 307 309 307 305 309 311 311 311 308 311 311 310 313 313 315 315 313 314 313 313 314 309 307 308 313 315 312 312
298 298 297 297 298 299 297 296 296 295 295 295 294 293 293 295 296 298 303 304 305 308 307 308 309 309 308 309 309 309 311 313 313 312 313 314 314 315 314 314 311 310 311 315 312 312 312
298 298 296 296 296 299 298 297 295 296 296 296 295 295 294 294 292 293 294 298 301 303 306 310 308 308 309 307 306 307 311 311 310 315 308 314 309 310 310 310 308 310 312 312 311 312 311

GFSGBSN_850_thetae_024.txt.gz
Theta_e
307 306 306 306 306 306 306 304 304 303 303 303 304 304 304 302 302 302 303 303 305 305 305 304 304 307 311 315 314 319 320 319 310 319 323 322 321 318 317 317 317 317 317 319 320 320 319
307 306 306 305 305 306 305 304 303 303 303 303 303 303 303 303 302 302 302 302 303 302 304 303 304 307 311 314 315 315 316 319 314 318 321 322 321 319 318 316 317 317 318 318 318 318 318
305 306 305 305 305 306 305 304 303 302 303 304 302 303 302 302 302 301 302 301 302 302 304 305 305 306 309 313 313 314 311 318 316 318 320 321 320 319 318 316 318 317 318 317 316 317 317
305 305 305 305 305 306 304 303 303 301 302 302 302 302 302 299 300 301 300 301 301 301 302 304 305 306 310 313 313 317 318 318 318 320 318 319 318 320 319 318 316 317 316 319 317 316 318
304 305 305 304 305 305 303 303 303 302 302 303 302 302 302 301 300 299 300 300 300 301 302 304 304 305 311 312 313 315 318 319 320 320 318 318 319 319 317 314 317 316 317 317 318 315 316
304 305 304 304 303 304 303 302 301 302 301 302 303 301 301 301 301 301 300 300 301 301 301 302 303 310 311 312 314 314 318 319 319 318 317 318 319 316 313 317 316 316 317 316 316 314 314
304 304 304 302 303 303 302 302 302 301 301 301 302 300 301 300 301 300 301 301 302 301 303 303 307 310 311 313 312 310 317 318 319 318 317 318 320 320 317 314 313 313 314 316 314 313 313
303 303 303 303 304 303 303 302 300 302 302 302 301 300 301 300 301 302 301 302 302 301 302 304 308 309 311 312 312 314 317 318 319 320 317 319 321 317 314 314 315 315 316 316 313 311 311
302 303 303 302 303 302 303 301 302 302 303 304 304 299 301 302 302 302 301 301 302 303 304 307 309 311 312 312 313 313 315 317 317 318 318 319 318 318 317 317 318 316 317 314 314 310 308
302 302 302 302 301 301 301 301 303 303 304 304 304 305 302 302 302 302 300 301 302 303 296 304 309 312 313 312 313 313 315 315 315 314 312 315 313 318 317 318 314 315 311 312 311 311 313
300 302 303 300 300 300 301 302 303 304 303 303 302 302 303 301 301 301 302 302 303 303 294 306 308 311 312 312 312 313 314 315 315 315 314 314 313 317 316 315 311 313 309 309 308 307 307
299 303 301 300 299 300 301 302 303 304 302 303 302 303 302 301 302 302 301 302 303 296 304 310 311 313 312 312 313 313 313 314 314 313 312 311 310 311 311 309 310 307 307 305 304 305 304
300 303 301 300 298 296 301 302 302 303 302 303 302 302 302 302 303 302 301 302 297 303 305 312 313 312 312 314 314 314 313 312 315 315 314 311 310 309 309 310 308 307 307 304 302 302 307
296 301 301 300 293 294 302 302 301 302 301 301 301 301 302 302 302 302 303 299 307 308 308 312 313 312 314 313 314 314 312 312 309 310 310 312 314 310 309 310 310 309 307 305 304 304 306
297 298 298 299 295 292 299 303 303 303 302 301 302 303 303 302 302 302 303 301 304 307 307 313 312 313 314 313 314 314 312 311 309 308 309 307 310 308 308 308 308 309 305 305 303 300 300
296 297 298 295 298 292 294 302 303 303 303 302 303 303 304 305 304 304 304 310 308 306 310 308 311 310 313 313 313 314 312 310 309 308 307 307 309 309 309 308 307 308 306 307 299 301 306
296 296 298 296 295 292 292 297 303 303 303 303 304 304 305 305 305 306 307 308 312 311 311 309 309 310 310 311 311 311 310 308 308 307 307 306 307 310 309 309 309 308 307 304 303 302 304
298 297 297 297 295 293 293 292 302 304 303 304 304 300 306 307 306 305 309 308 309 311 311 310 308 309 309 309 309 309 309 308 308 307 309 308 306 304 310 307 306 307 307 304 301 301 303
301 300 296 298 295 294 293 292 294 304 304 305 304 304 307 308 309 309 307 310 309 311 311 311 309 309 308 308 310 308 308 308 308 307 308 308 305 303 309 308 307 308 306 304 302 300 300
301 300 301 298 297 295 294 292 292 302 305 305 306 301 307 308 307 309 309 309 310 310 310 308 308 308 308 309 307 308 308 309 308 308 309 308 305 304 305 304 306 306 307 305 304 301 305
301 300 301 301 299 298 294 293 292 296 305 305 305 304 305 305 305 306 307 308 310 311 310 309 308 309 309 310 310 309 309 309 309 310 309 307 304 303 306 307 306 308 308 306 305 305 304
301 301 300 301 299 299 296 294 292 292 305 305 303 303 304 304 304 304 305 308 310 310 310 310 309 311 309 309 309 309 308 308 310 309 308 307 307 305 303 306 306 307 307 307 306 307 307
300 300 299 301 300 299 296 295 294 291 299 303 302 302 302 303 302 305 306 309 310 309 310 310 310 310 311 311 310 309 308 308 308 307 308 309 307 304 305 305 306 308 306 307 307 307 308
300 300 299 300 300 299 297 296 295 293 291 298 299 301 303 302 301 305 306 307 310 310 310 311 312 312 312 311 311 310 308 307 308 307 307 308 308 307 302 304 307 308 307 307 308 308 306
300 299 298 299 299 299 297 297 296 296 294 292 294 300 301 303 304 303 304 305 309 309 310 311 312 312 312 312 309 310 312 311 311 310 309 307 308 305 306 309 306 310 311 308 311 313 307
298 298 298 298 298 299 298 296 296 295 296 294 293 292 298 300 300 303 304 305 305 305 306 311 311 312 312 308 309 311 312 309 312 313 309 309 307 309 310 310 310 308 312 312 311 314 311
299 298 298 298 297 299 300 298 296 296 295 295 294 294 292 298 299 302 302 305 307 305 304 308 310 310 311 308 310 310 308 310 312 312 314 313 313 312 312 311 309 306 308 312 315 311 311
299 298 298 298 296 296 298 299 297 296 296 296 295 294 294 293 293 293 299 302 303 307 305 307 308 308 306 308 309 308 308 310 310 309 312 313 311 313 311 311 310 309 310 314 311 311 311
299 298 297 297 298 296 297 298 299 297 294 296 296 295 294 294 294 294 295 294 294 299 300 306 307 306 308 305 305 305 309 308 311 313 308 312 308 309 308 308 306 309 311 311 311 310 311

GFSGBSN_850_thetae_027.txt.gz
Theta_e
308 306 306 307 307 305 305 306 306 304 304 303 304 304 304 303 303 304 303 303 302 302 304 304 305 305 306 309 313 316 318 318 317 318 320 321 320 320 319 317 317 318 317 319 320 319 319
306 306 307 307 306 305 305 306 304 304 304 302 304 303 303 302 302 301 302 302 302 301 302 304 304 304 305 311 313 314 315 314 314 318 320 320 319 319 318 317 317 317 318 318 318 318 318
305 306 305 306 306 304 305 304 304 303 303 303 303 303 303 303 302 302 301 301 300 300 302 303 303 304 306 310 313 313 315 314 317 317 319 320 319 318 317 316 317 316 317 316 316 316 317
306 306 305 306 304 304 304 303 304 303 303 302 302 303 303 302 302 301 301 300 300 301 301 302 303 304 305 309 313 313 316 315 319 317 319 320 320 319 318 316 316 317 317 320 317 316 316
306 306 305 305 304 305 304 304 303 303 302 302 301 302 301 301 301 301 301 301 300 300 302 302 303 303 308 309 313 313 315 317 318 318 318 318 320 319 316 316 317 316 318 317 318 316 316
306 306 305 303 304 304 304 304 303 303 303 303 303 302 301 301 300 301 301 301 301 301 301 302 302 305 308 311 312 312 314 318 319 318 318 318 318 318 316 317 319 318 317 316 317 314 314
306 303 304 304 303 303 303 302 303 304 304 305 305 304 301 301 300 301 301 301 301 301 302 301 302 307 311 312 313 312 314 319 319 318 319 317 318 317 317 315 312 313 315 317 315 312 313
306 303 304 303 302 302 302 302 303 304 304 303 303 303 302 302 301 302 301 301 302 301 301 300 304 305 308 312 313 312 316 319 312 317 317 318 319 316 315 313 313 314 314 315 313 310 311
303 304 302 301 301 302 302 302 304 305 303 302 303 302 304 301 302 302 301 300 302 302 303 307 309 306 311 312 313 314 316 316 312 312 314 318 319 315 316 316 317 315 315 314 315 310 307
299 303 302 301 300 301 302 303 305 304 302 303 303 302 304 301 301 301 300 301 302 303 295 307 309 310 312 312 313 313 315 315 315 314 316 316 315 317 317 317 317 318 313 312 311 312 315
300 303 301 300 300 301 302 302 306 302 301 302 302 303 303 301 301 301 301 302 302 303 298 306 308 309 312 311 313 314 313 315 314 312 314 313 315 319 319 318 313 314 309 309 308 308 308
297 305 300 299 300 298 301 301 302 301 301 301 301 302 302 301 301 301 301 302 302 297 302 309 308 312 312 313 313 312 312 313 313 313 312 311 312 312 313 313 312 307 306 305 305 306 310
297 301 300 295 299 293 298 302 302 302 303 303 302 302 301 302 301 301 301 302 297 304 304 311 313 312 313 314 313 313 313 312 315 315 314 312 310 309 309 310 309 308 310 310 308 308 312
297 298 299 296 297 295 293 300 303 302 302 302 302 304 304 303 302 302 302 298 302 307 307 311 312 311 314 313 313 313 313 313 308 310 312 314 315 310 308 310 311 308 309 310 310 307 308
298 298 297 298 295 294 292 294 303 302 303 303 303 303 305 305 304 303 302 304 301 307 307 313 311 311 313 313 314 314 311 311 309 308 311 310 311 308 307 307 308 309 307 304 304 300 305
299 301 298 298 295 294 293 292 296 303 303 303 304 304 305 306 305 305 305 311 310 307 309 308 311 310 312 313 313 313 311 310 309 307 306 307 310 309 308 308 306 308 305 309 303 304 307
301 301 299 300 298 295 294 293 292 302 303 304 306 305 307 308 307 307 308 310 311 311 310 309 309 309 310 311 310 311 310 308 308 307 306 306 308 310 309 309 309 308 307 304 304 304 308
301 301 301 301 301 298 295 293 292 296 304 304 304 302 308 308 306 307 310 308 309 310 311 308 308 308 308 308 309 309 309 308 308 307 309 307 306 309 310 306 306 307 307 304 306 305 303
301 301 301 301 301 301 301 294 293 293 304 305 305 305 308 308 309 309 307 308 309 310 310 310 309 309 307 308 309 308 308 307 307 307 308 307 305 305 310 308 307 308 306 304 302 302 305
301 300 300 301 300 301 300 298 293 293 304 305 305 300 307 308 307 308 308 308 309 310 309 307 308 307 307 308 307 308 308 308 307 308 309 307 305 304 306 305 307 308 307 305 305 306 306
301 300 300 301 301 300 300 298 294 293 304 305 305 304 304 304 304 304 306 308 309 310 309 308 308 308 308 309 309 309 308 309 308 310 308 307 305 303 306 306 306 307 308 306 305 306 307
301 300 299 299 300 299 300 297 294 293 298 305 302 303 304 304 303 303 304 308 310 310 310 309 309 310 308 308 307 308 308 308 308 308 308 306 308 304 303 306 306 308 307 306 307 307 306
300 300 299 298 300 299 299 297 296 293 293 301 300 301 302 303 300 303 304 308 310 308 310 310 310 310 310 310 310 309 308 308 307 307 307 308 307 302 305 305 306 308 306 307 307 306 307
300 300 298 297 299 299 298 297 296 296 292 294 297 300 302 301 300 303 303 304 308 308 310 311 311 311 311 310 308 308 307 307 307 306 307 307 308 304 302 304 307 307 306 306 307 307 306
299 299 298 297 298 298 299 299 297 296 296 293 293 297 299 302 302 301 303 303 306 308 309 310 312 312 311 310 308 309 311 311 310 308 308 308 308 306 306 308 305 310 308 307 308 312 306
299 299 298 298 299 298 299 299 297 296 295 295 294 293 296 298 297 301 303 304 304 303 304 310 311 312 311 306 308 310 308 308 310 312 308 307 307 308 308 308 309 307 312 310 310 315 310
299 299 298 298 298 298 298 299 299 298 296 295 295 294 293 295 297 299 300 303 305 305 302 304 310 310 310 307 310 309 307 307 310 310 313 313 313 313 310 312 307 305 309 311 315 313 310
300 298 297 297 297 297 298 298 299 299 297 295 295 295 295 294 293 293 296 298 300 304 306 305 307 307 306 310 311 310 307 308 307 307 310 310 312 311 310 310 309 308 309 312 311 310 310
300 298 297 298 298 298 297 298 298 298 298 296 295 295 295 294 294 295 294 294 294 295 296 301 306 305 307 305 303 303 307 306 308 313 306 310 306 309 307 307 305 309 311 311 310 310 311

GFSGBSN_850_thetae_030.txt.gz
Theta_e
306 307 307 307 306 306 305 306 304 304 304 304 304 304 304 303 303 301 301 302 303 302 302 305 305 304 303 307 308 314 317 317 320 317 319 320 320 322 322 321 319 320 320 319 320 321 322
305 307 306 306 305 305 306 306 305 304 304 304 303 303 302 303 303 302 301 301 301 301 301 303 303 303 305 307 307 310 314 315 320 316 318 320 318 320 320 321 320 319 319 319 320 320 320
306 306 306 305 304 305 305 305 305 304 304 304 303 303 302 303 303 303 302 302 302 303 301 301 303 303 304 305 311 311 312 315 318 317 319 320 318 319 319 319 319 319 320 319 319 319 320
306 305 306 305 306 304 304 304 304 304 304 304 304 304 303 303 301 301 301 301 301 302 302 301 302 303 304 305 311 312 313 314 317 318 319 319 318 318 318 317 318 319 318 320 318 319 318
305 304 305 305 303 304 303 303 304 304 306 305 304 305 304 303 302 301 301 301 302 302 302 302 303 304 305 307 310 313 314 315 318 318 319 318 318 319 317 319 319 318 317 317 318 318 317
304 304 304 305 303 303 303 304 304 305 304 304 303 303 304 301 301 301 301 301 301 301 302 302 303 304 305 309 312 313 313 315 318 317 319 318 318 320 318 318 317 318 316 317 316 317 318
303 303 304 304 302 303 303 304 304 305 303 303 303 302 303 300 300 301 301 301 302 303 303 302 302 305 309 310 312 313 313 314 318 318 318 317 320 321 317 317 316 317 316 316 316 315 317
300 304 303 302 302 302 303 304 304 305 302 302 303 303 303 302 301 302 301 302 302 302 302 301 303 304 306 310 313 313 314 315 318 318 318 319 320 318 316 316 317 318 317 317 317 313 315
299 304 302 302 301 302 303 301 304 306 302 302 303 303 300 302 302 301 301 301 301 302 305 307 305 306 308 312 313 314 313 312 317 318 318 318 318 315 317 316 318 318 317 317 317 315 312
299 301 301 301 300 299 301 301 303 304 303 301 302 303 301 302 301 300 301 301 302 303 308 307 308 309 311 312 315 314 312 314 313 313 317 317 316 316 315 317 317 318 317 316 315 318 318
300 300 300 301 298 295 301 302 302 302 303 303 303 301 301 301 301 302 301 302 302 302 312 307 307 309 311 313 313 312 311 314 313 310 314 313 317 318 318 317 317 317 314 314 313 315 314
299 300 298 299 297 294 295 302 302 302 303 303 304 305 301 301 301 301 301 301 302 309 312 310 309 312 313 314 313 312 313 312 312 312 312 313 311 312 314 313 315 310 312 312 312 313 319
299 301 299 298 296 295 293 297 302 302 302 302 302 303 305 304 302 302 302 303 311 312 306 313 313 313 314 315 313 312 313 314 315 316 316 312 311 310 310 313 310 311 315 320 320 321 319
299 301 300 301 299 296 294 293 297 303 303 303 303 303 304 305 304 303 304 307 314 310 311 311 313 313 314 314 313 314 314 314 311 313 317 318 317 311 309 312 314 313 316 320 318 315 313
299 301 300 301 301 297 295 294 293 300 304 303 304 304 305 306 305 304 305 313 311 309 310 312 311 313 314 314 314 314 314 314 311 311 316 315 314 309 308 309 312 313 317 308 312 307 313
299 301 301 300 301 302 300 294 294 294 304 303 305 305 306 307 307 306 311 312 311 308 310 311 313 312 312 313 313 314 314 312 311 309 309 311 315 310 309 309 309 312 309 314 314 316 315
300 301 301 300 299 299 302 299 294 294 303 304 305 307 308 308 308 310 312 312 312 311 311 311 312 312 313 313 313 314 312 311 310 310 309 310 314 312 311 312 312 310 312 309 311 311 314
300 301 301 301 300 299 300 303 294 293 301 304 304 312 308 308 312 311 312 310 310 312 311 310 310 311 312 311 312 313 311 312 309 310 312 309 312 313 313 309 308 309 311 310 313 313 310
300 301 300 301 300 299 299 302 295 293 303 304 305 306 309 308 314 313 310 311 310 312 311 311 311 310 309 311 312 311 311 308 309 310 311 310 311 313 312 311 309 311 310 308 307 309 312
299 301 300 300 300 299 298 301 296 293 301 304 305 311 309 308 307 311 312 312 312 310 310 309 310 309 310 310 310 311 310 310 308 309 309 309 309 312 312 313 311 312 311 309 310 313 311
299 300 300 300 299 299 298 299 295 293 296 304 305 305 305 311 310 309 309 311 312 313 311 309 310 310 310 311 311 311 310 309 309 310 309 310 313 309 309 309 310 311 311 309 310 311 313
296 299 300 299 299 299 298 298 295 293 295 303 303 304 304 305 304 308 308 312 312 312 312 311 311 310 310 311 310 311 311 311 311 310 310 309 313 309 310 308 309 310 310 310 310 310 310
297 300 299 298 298 299 299 298 297 295 293 296 300 301 302 304 306 308 309 310 311 310 311 311 312 312 312 312 311 310 309 310 310 310 310 311 310 311 313 308 309 311 310 311 310 310 310
299 299 299 298 299 299 299 299 298 296 294 293 296 299 302 306 305 307 306 306 309 309 311 311 312 312 310 308 308 308 309 309 310 309 310 311 311 310 312 309 314 310 308 309 310 310 309
299 299 299 298 298 299 298 299 299 298 295 295 293 294 300 303 303 303 305 304 306 307 310 311 312 311 310 310 312 312 312 311 311 310 310 310 311 311 313 311 311 311 309 310 311 314 309
298 299 298 297 298 298 298 298 299 298 297 295 295 294 294 298 300 300 303 304 306 309 310 310 311 311 311 312 313 313 313 311 313 312 310 310 310 311 310 312 313 312 314 311 310 318 311
299 300 298 297 298 298 298 298 299 299 298 296 295 295 295 295 295 298 301 303 305 306 308 306 309 311 310 313 314 314 313 310 313 312 313 312 312 312 312 312 311 310 312 312 317 317 311
300 300 298 298 298 299 298 298 298 299 298 297 296 295 294 295 294 294 296 298 298 301 308 306 310 309 310 313 313 312 312 312 312 311 311 312 312 313 313 311 312 309 309 312 313 310 311
301 301 299 299 298 298 298 298 298 298 298 297 296 295 295 296 295 296 295 295 294 295 299 301 305 307 309 313 311 311 312 311 313 313 310 312 311 311 311 311 309 309 312 311 311 310 310

GFSGBSN_850_thetae_033.txt.gz
Theta_e
307 307 307 307 307 307 305 305 306 305 305 305 305 306 303 303 303 303 303 302 302 303 302 303 305 306 305 307 307 313 315 316 316 317 318 319 317 321 323 321 320 320 320 319 320 321 320
309 307 305 306 305 305 306 305 305 305 305 305 305 305 305 304 303 303 303 302 302 301 301 303 303 304 305 308 306 307 315 317 314 317 317 317 316 321 321 320 320 320 320 320 320 321 321
306 308 306 305 305 305 305 305 305 305 306 306 304 305 306 304 303 302 303 302 302 302 302 302 303 305 305 306 308 308 310 315 317 317 315 317 317 320 319 320 320 319 321 320 319 320 321
306 307 305 304 304 305 304 305 305 305 305 306 304 304 304 305 303 301 302 302 301 301 301 302 301 305 305 304 305 308 311 310 313 319 315 317 317 318 318 318 319 319 320 321 319 320 320
305 304 304 304 304 305 305 304 306 305 304 306 304 303 303 304 302 300 301 301 301 302 302 302 303 305 305 307 305 306 311 313 313 318 316 320 318 318 318 319 320 319 318 319 318 318 320
302 304 304 304 303 304 305 305 305 305 304 304 303 303 303 301 301 301 301 301 301 301 302 304 305 304 304 307 309 310 312 312 316 317 318 319 318 317 317 318 318 317 317 316 317 319 318
302 304 304 302 303 303 305 305 305 305 304 304 304 303 301 301 301 301 302 303 304 304 304 304 303 305 307 308 310 311 310 316 317 317 319 320 321 321 318 316 315 315 316 315 316 316 318
301 302 303 300 302 301 304 303 305 306 305 302 303 301 302 301 301 302 303 303 303 303 304 303 303 304 306 308 313 313 313 314 316 318 316 318 322 317 317 316 317 317 316 316 317 317 316
301 301 300 301 299 299 302 301 304 305 305 302 301 302 302 301 301 303 303 303 302 303 306 306 305 305 309 311 313 314 313 312 315 316 318 319 318 317 317 317 317 317 317 316 317 316 316
301 301 300 300 298 296 298 302 302 303 303 304 302 301 300 301 304 303 303 302 303 303 309 309 308 309 311 312 314 312 311 310 309 317 318 317 317 318 318 318 316 317 316 317 317 317 316
301 301 301 301 300 296 295 295 302 302 302 302 303 304 301 300 301 304 302 302 303 304 316 310 307 309 311 314 312 311 311 313 311 312 315 314 317 318 317 317 316 318 317 317 317 318 317
301 301 301 301 301 299 295 294 294 300 303 303 303 302 304 304 302 301 301 302 304 311 315 311 309 312 314 314 313 313 312 311 310 312 312 313 312 314 315 316 316 315 316 316 316 317 321
302 301 301 301 300 301 300 295 294 293 301 303 303 303 303 305 305 303 303 306 312 315 308 313 314 314 315 314 314 313 311 312 312 315 314 310 310 311 311 315 314 316 318 322 322 322 321
302 301 301 301 300 300 300 302 294 293 298 303 304 305 305 305 305 304 306 310 318 312 314 313 314 314 316 314 313 314 315 316 314 316 317 319 317 311 308 314 315 316 318 322 321 321 319
302 301 302 301 301 299 299 301 301 294 295 303 305 306 306 306 306 305 309 315 315 313 312 313 313 315 315 314 316 317 316 314 315 314 318 318 316 311 309 311 315 316 317 312 315 311 315
301 301 301 301 301 300 299 298 303 295 296 304 305 306 308 307 307 307 313 313 312 310 312 312 314 313 313 314 315 316 316 314 313 311 311 314 316 312 310 311 311 314 314 317 317 320 315
300 301 301 301 301 300 299 297 301 296 296 304 305 309 309 308 310 312 312 314 313 312 312 313 313 313 313 313 314 314 314 313 313 311 312 314 315 313 312 314 315 312 314 313 314 314 318
300 300 301 301 301 300 299 297 301 295 295 304 306 315 309 308 314 314 314 312 311 313 312 311 312 312 314 313 314 314 314 314 312 312 313 311 315 315 314 311 311 312 314 314 316 316 313
299 300 300 301 301 299 299 298 299 294 293 304 308 310 309 309 316 314 313 313 312 313 312 312 312 312 312 313 314 314 313 310 311 312 313 312 314 315 313 313 311 313 312 312 311 312 316
299 298 300 300 299 299 298 298 298 294 294 304 308 313 313 312 312 313 313 313 314 312 311 311 311 311 312 312 312 313 313 311 310 311 309 310 312 314 316 316 314 313 313 312 312 315 314
298 297 299 299 299 299 299 299 298 293 295 304 307 307 307 315 313 313 313 313 314 314 313 311 312 311 312 312 312 312 312 311 310 310 311 312 316 311 311 311 312 313 313 312 312 312 314
298 299 299 299 299 299 299 299 297 293 295 303 303 304 305 310 309 311 310 314 314 313 313 312 312 311 311 312 312 312 312 312 311 311 311 311 313 312 312 311 311 312 312 312 312 311 311
298 299 299 299 298 299 298 299 299 295 293 298 299 301 302 307 310 312 313 312 313 312 312 312 313 312 312 312 312 312 311 311 312 312 312 312 313 313 314 310 310 312 312 312 312 312 312
298 299 299 298 298 299 298 298 298 298 295 295 293 299 302 309 308 310 309 309 311 311 313 313 313 314 310 309 310 311 311 311 311 311 311 312 313 313 314 311 315 313 311 311 312 312 311
298 299 298 298 298 298 298 298 298 299 298 295 294 295 299 302 302 306 307 308 308 310 311 312 313 312 311 312 313 313 312 312 312 311 311 311 311 313 314 314 313 311 310 310 312 314 311
299 300 299 298 298 298 298 298 299 299 299 297 296 294 296 298 302 301 303 305 308 311 311 312 312 312 312 314 314 313 314 313 313 313 311 311 311 312 311 313 314 313 313 311 312 319 312
300 301 300 299 299 299 299 298 298 299 299 298 297 296 294 297 296 298 301 304 305 308 309 310 311 313 312 314 314 313 313 311 313 312 312 312 312 313 311 312 312 311 314 312 318 318 313
300 301 300 300 299 298 299 298 298 298 298 298 297 295 295 297 297 296 296 297 297 300 307 307 311 311 313 314 314 314 312 313 311 312 312 312 312 312 311 312 312 310 313 315 314 312 312
301 301 300 299 299 298 299 298 298 298 298 298 298 296 296 295 297 296 296 295 295 296 298 302 305 308 310 314 313 313 312 312 313 313 311 312 311 312 312 313 311 310 312 312 312 313 312

GFSGBSN_850_thetae_036.txt.gz
Theta_e
307 308 307 307 307 306 306 306 306 306 306 307 307 305 305 307 305 304 303 304 302 302 304 303 304 306 305 307 307 309 312 314 316 319 318 320 316 321 323 322 320 321 320 319 320 321 320
307 308 306 306 305 306 305 305 306 307 308 306 306 306 305 305 305 303 303 304 303 303 302 302 303 305 306 307 307 308 313 316 317 318 317 319 316 319 321 321 320 320 320 320 320 321 321
306 306 306 307 304 306 305 305 306 307 307 305 307 306 304 304 304 302 303 303 302 302 303 301 302 303 306 306 309 310 308 314 317 317 317 317 317 318 321 321 320 320 320 320 319 321 321
304 305 306 304 304 305 304 305 305 307 307 305 304 304 303 305 303 301 302 302 302 301 301 301 300 305 304 304 305 306 309 310 315 315 317 317 318 317 320 319 320 320 319 321 320 319 320
302 303 307 304 304 304 305 306 305 307 305 305 303 304 304 301 301 300 301 301 301 302 302 302 302 305 305 307 305 305 307 311 313 315 315 316 317 317 320 319 321 320 320 321 320 319 319
302 302 303 303 302 302 304 305 306 306 304 303 302 301 300 300 301 301 301 301 301 300 301 304 305 304 304 305 307 305 306 309 314 315 314 317 318 318 319 319 322 321 319 318 319 319 319
302 302 301 301 299 300 301 302 304 305 306 302 302 302 302 301 301 301 304 305 305 305 305 304 304 304 305 306 308 308 312 312 312 316 319 318 318 319 318 318 318 316 317 316 316 319 318
303 301 301 301 301 299 296 302 303 303 302 305 301 301 301 301 301 303 304 303 304 304 305 304 303 303 305 307 309 310 311 311 314 318 318 318 318 317 317 316 316 316 316 315 316 316 317
303 301 302 301 300 299 296 295 300 302 302 302 303 302 301 301 303 304 304 304 303 305 306 307 305 307 308 308 311 311 310 309 314 317 317 318 318 317 316 315 316 316 316 314 316 316 315
302 301 302 301 300 301 300 295 296 297 302 302 302 303 302 302 305 304 303 303 303 303 308 309 309 309 309 308 313 310 309 311 313 317 317 317 317 318 318 317 316 316 315 316 317 316 316
302 302 302 302 300 299 300 302 297 295 295 303 303 303 303 303 302 306 303 302 303 305 313 309 309 308 311 312 310 312 312 311 312 316 316 315 318 319 319 318 317 317 316 316 317 317 316
302 302 302 302 301 300 299 299 303 295 294 299 303 304 303 306 306 304 301 302 305 310 316 311 310 312 314 313 313 311 312 310 310 313 312 313 313 314 316 317 316 317 316 316 317 316 315
301 301 301 302 302 300 299 299 299 301 294 297 303 305 306 305 307 305 304 306 311 313 309 313 315 314 314 314 314 312 311 311 312 314 314 312 310 311 312 316 316 316 315 318 317 316 316
301 301 301 302 302 301 300 299 298 302 295 297 303 306 308 307 305 305 306 309 313 312 314 314 315 315 315 314 314 313 312 313 313 314 315 317 314 311 310 315 316 316 315 318 318 317 314
300 300 301 301 302 301 300 299 298 301 296 299 304 307 308 308 307 307 308 312 312 309 313 313 314 316 316 315 315 316 316 316 315 314 317 317 315 309 310 311 314 317 316 311 314 311 311
299 300 300 301 301 301 300 298 297 300 296 301 304 308 309 308 308 308 313 311 312 311 313 313 314 313 315 315 316 317 316 315 313 312 312 314 316 312 311 312 313 314 313 316 313 314 315
299 299 300 301 301 300 299 298 297 300 296 302 308 310 311 308 311 311 312 314 313 312 312 312 313 313 313 314 314 314 315 313 313 311 312 314 314 315 312 313 314 313 314 314 312 313 316
299 300 301 298 299 299 299 298 299 297 295 302 309 313 310 309 314 315 315 313 312 313 312 312 312 313 313 313 314 314 314 314 312 312 313 312 313 315 316 312 312 314 315 315 317 314 310
300 302 298 298 298 299 299 299 298 294 293 302 308 310 311 309 315 313 312 313 313 313 313 312 312 312 312 313 314 313 313 311 311 312 312 311 313 313 313 313 311 312 312 314 311 312 315
301 300 299 299 299 300 299 299 297 293 296 304 308 311 313 313 313 314 314 313 314 312 312 311 312 311 312 312 312 313 312 312 310 311 309 310 312 312 311 312 313 312 313 311 310 311 313
299 298 299 299 299 300 299 298 299 293 299 306 306 307 306 313 313 313 313 314 314 315 313 311 312 312 312 312 312 312 312 311 311 310 311 312 310 309 311 312 312 313 313 312 310 313 310
298 298 300 300 299 299 298 299 299 296 298 299 303 303 304 308 310 311 310 313 314 313 313 312 312 312 311 312 312 312 312 311 311 310 311 311 310 310 309 311 311 311 311 311 312 311 311
298 300 300 299 298 299 298 298 298 299 294 295 297 301 302 308 311 311 311 312 312 313 312 312 313 314 312 313 312 312 311 311 311 311 310 311 309 308 310 310 310 309 310 311 311 310 310
298 300 299 298 298 298 298 298 299 299 297 295 294 299 302 308 308 309 309 309 311 311 312 313 313 314 310 310 311 311 311 311 311 310 311 311 311 310 310 310 310 311 310 310 311 311 309
299 300 299 299 298 299 299 298 299 299 299 298 296 294 298 301 300 303 304 307 308 310 311 312 314 313 311 312 312 312 312 311 311 311 310 310 311 312 310 310 311 311 310 310 311 311 310
299 300 300 300 299 299 299 298 298 299 298 298 297 297 296 297 298 298 299 300 306 308 310 312 312 312 312 313 314 313 314 312 313 313 311 310 310 311 312 311 313 315 310 311 310 316 312
299 300 301 300 299 298 298 299 298 298 298 298 298 296 297 298 297 297 300 302 302 305 308 309 310 312 312 313 313 314 313 311 312 311 312 312 311 311 312 311 310 314 312 312 317 316 311
300 301 301 300 299 298 299 299 299 298 298 298 298 298 296 297 297 297 297 297 297 298 301 302 308 311 311 313 312 313 313 311 310 311 310 310 311 312 312 312 309 313 313 314 313 313 313
300 301 301 300 300 299 299 299 298 298 298 298 298 298 297 296 296 296 295 296 296 296 296 298 302 304 307 310 311 311 311 309 310 311 309 311 309 309 309 309 310 311 311 313 313 313 312

GFSGBSN_850_thetae_039.txt.gz
Theta_e
304 306 306 306 305 306 308 308 307 306 307 307 307 307 306 304 305 305 303 303 304 303 303 303 304 306 306 305 306 308 312 308 316 318 318 316 319 321 322 321 320 320 320 322 321 323 321
303 305 305 304 304 305 307 306 306 307 306 307 305 305 304 304 305 303 303 304 303 303 302 301 303 305 305 307 307 309 312 314 316 317 318 316 315 320 321 320 319 320 320 320 319 321 321
303 304 304 303 304 304 306 305 306 307 305 304 304 305 304 304 303 300 303 304 303 302 302 301 302 304 306 306 309 311 310 313 315 316 317 317 315 319 320 320 320 319 320 319 319 320 320
303 303 301 301 303 303 306 306 304 306 305 302 303 302 300 301 300 300 300 301 301 301 301 301 301 303 304 303 304 306 308 311 315 316 317 318 317 317 319 319 319 319 318 320 318 319 320
303 302 302 301 303 302 302 304 303 305 306 302 302 303 300 300 301 300 300 301 300 300 301 301 301 303 304 305 305 305 305 309 313 316 317 317 317 317 316 318 319 319 319 319 320 318 319
303 302 302 301 301 302 302 301 303 303 303 306 301 301 301 301 301 301 302 304 303 302 302 303 304 304 305 305 307 304 305 307 313 314 315 316 317 315 316 319 321 321 318 317 319 318 318
303 302 302 301 300 302 302 299 299 303 302 302 306 301 301 301 301 302 304 304 304 304 304 304 304 304 304 304 307 305 306 307 313 314 315 316 319 318 317 317 316 317 318 317 317 317 319
302 302 302 302 300 299 303 304 297 299 302 302 302 304 300 301 302 303 303 303 303 303 304 304 304 303 304 305 309 307 307 310 313 315 315 316 317 315 315 316 317 315 316 316 315 317 317
302 302 301 302 302 300 299 302 304 300 295 297 302 302 303 301 302 302 301 302 304 304 305 307 305 307 307 308 309 310 310 310 312 314 316 315 315 315 316 315 316 314 314 314 315 315 314
302 302 301 302 302 301 299 299 302 302 296 294 300 303 303 303 304 305 304 303 303 303 306 309 309 307 306 307 310 310 310 312 314 314 315 316 316 316 315 315 314 314 313 314 316 315 315
302 302 301 301 302 302 301 299 299 299 301 294 300 303 303 305 304 305 305 302 303 304 310 309 309 308 307 310 309 309 310 311 314 314 316 316 317 317 317 316 314 315 314 315 315 315 315
302 301 301 301 303 302 302 299 298 298 301 295 300 304 305 305 306 306 305 302 306 306 312 310 310 310 312 309 310 309 311 311 312 313 312 314 312 313 315 316 316 315 314 314 314 313 314
301 301 300 301 302 302 302 299 298 298 300 296 302 304 307 305 306 306 305 306 306 306 308 313 314 313 314 314 313 311 311 313 314 312 315 312 311 311 311 315 315 315 312 313 314 312 313
301 300 300 300 301 302 300 298 298 298 300 296 303 305 307 307 307 305 306 306 309 312 313 313 314 314 314 314 313 312 313 315 312 311 315 315 317 313 310 314 314 315 313 314 316 313 314
300 300 300 300 301 300 298 298 298 298 300 295 304 307 309 308 308 307 306 304 306 308 310 313 314 315 315 315 314 315 314 315 314 314 313 314 311 310 310 311 313 316 316 311 310 309 306
299 301 301 302 298 298 299 298 299 299 299 296 305 309 309 308 310 309 305 306 308 309 311 313 314 312 314 314 316 317 315 314 314 312 313 314 315 311 312 312 313 313 312 315 310 311 312
301 301 302 299 298 300 299 299 299 296 295 300 308 309 311 308 310 309 304 304 311 312 312 312 313 312 311 312 313 313 312 313 313 313 311 312 313 314 312 314 315 314 313 313 312 308 311
301 302 300 299 299 301 300 299 297 294 294 303 310 311 310 308 310 308 305 311 312 313 312 311 311 311 311 312 312 312 312 312 311 311 314 312 312 315 316 313 313 313 313 312 312 312 307
302 301 299 299 300 300 299 299 298 294 297 303 307 309 311 310 313 308 311 312 312 312 312 311 311 311 311 311 313 311 311 311 311 310 311 311 311 312 313 313 312 313 313 314 311 310 311
302 299 299 300 299 299 298 299 298 294 300 306 307 308 310 312 312 313 312 312 313 311 312 311 311 310 311 311 310 311 311 311 310 310 309 310 311 308 310 309 311 311 313 314 313 313 312
300 299 299 299 299 299 299 299 299 294 298 305 304 305 305 309 309 308 312 313 313 314 312 311 311 311 311 311 311 311 310 310 310 310 310 309 306 306 310 311 311 311 311 310 309 310 310
299 299 299 299 299 299 299 299 299 297 294 296 302 301 303 304 308 309 309 313 313 312 311 311 312 311 310 313 310 311 310 309 309 309 310 308 306 305 303 310 310 310 310 310 311 310 310
299 300 300 299 299 299 299 299 299 299 298 294 295 300 302 305 306 309 310 310 312 310 312 312 312 313 311 311 311 311 310 309 308 308 308 309 303 301 305 309 309 308 308 309 310 310 310
299 300 300 300 299 299 299 299 298 299 299 298 296 298 299 302 299 303 303 306 308 308 310 311 313 312 310 311 311 310 311 310 309 308 308 309 307 301 301 306 306 306 308 308 309 310 308
299 300 300 300 299 299 299 298 298 298 298 298 297 297 297 297 297 298 299 300 304 308 309 312 312 312 311 312 310 311 311 311 310 309 309 308 308 305 306 306 308 310 309 309 309 310 308
299 300 300 300 299 298 298 299 298 298 298 298 298 297 297 296 296 296 297 300 302 303 308 312 311 311 312 310 311 313 313 311 312 312 310 309 309 308 311 309 312 314 309 310 310 312 310
299 300 301 300 299 298 298 299 299 298 298 298 297 298 297 297 298 297 297 299 298 299 302 306 304 310 311 309 311 312 312 310 310 310 310 312 309 309 312 312 309 308 309 311 315 314 310
300 301 301 301 300 299 299 298 298 298 298 298 298 298 297 296 296 297 297 296 296 297 297 299 305 308 309 310 309 308 310 309 309 307 308 308 308 309 309 310 309 312 311 314 312 312 310
300 300 301 301 300 299 299 298 298 298 298 298 298 296 297 295 296 296 297 296 296 296 296 296 298 303 303 308 308 307 309 305 306 309 306 309 307 307 307 308 307 312 311 312 312 312 313

GFSGBSN_850_thetae_042.txt.gz
Theta_e
304 304 306 304 305 305 306 307 307 308 305 307 307 304 304 304 304 303 303 303 304 303 302 303 304 306 307 306 307 306 308 312 306 317 319 314 318 321 320 320 322 320 322 322 323 323 324
303 303 304 304 305 303 307 307 306 308 303 304 303 303 302 302 300 301 303 304 303 303 301 302 304 306 306 307 306 309 312 310 309 317 319 315 318 320 321 320 321 321 320 322 322 324 323
303 303 302 304 305 304 302 306 306 308 306 301 302 301 300 300 300 300 302 303 303 303 302 301 303 303 305 306 308 310 313 311 315 317 318 315 317 320 318 319 320 320 320 319 318 320 320
303 303 302 303 304 306 303 302 304 306 306 304 300 301 301 300 300 300 300 300 301 300 300 301 301 304 303 305 305 307 309 313 315 315 317 314 316 318 318 319 319 318 318 319 318 319 320
303 303 302 302 303 305 304 303 302 305 305 303 304 300 301 301 301 301 302 301 299 301 301 301 303 303 303 305 305 305 307 309 314 315 317 316 317 317 317 318 317 318 319 319 319 319 319
302 303 302 302 302 304 305 306 304 302 304 302 302 301 300 301 301 301 302 304 303 300 302 303 304 304 304 305 305 304 305 307 312 315 316 317 317 314 314 319 320 319 318 319 319 319 319
302 303 302 302 302 302 302 303 306 306 302 300 302 303 300 301 302 303 303 304 304 303 304 304 304 303 303 303 307 305 306 307 312 315 312 316 316 317 315 316 316 316 316 318 318 317 318
302 303 302 301 302 302 302 302 304 304 306 300 296 302 303 301 301 303 303 302 303 303 304 304 304 304 303 306 308 307 306 306 312 313 310 316 317 313 314 316 316 316 316 316 315 316 318
302 303 302 301 302 302 303 302 304 304 303 302 296 302 303 302 302 302 301 302 303 304 305 306 305 306 307 307 308 308 307 306 313 313 312 316 315 314 315 316 317 315 315 314 315 315 314
302 302 301 301 302 303 303 302 300 302 300 300 294 302 303 304 303 304 304 303 303 303 306 308 308 307 306 308 309 310 309 311 313 315 314 314 315 315 316 316 314 315 312 313 315 315 317
303 302 301 301 301 303 304 301 300 300 299 300 294 302 305 304 303 303 305 302 303 304 310 308 309 307 306 308 308 309 310 311 314 314 312 313 316 316 317 316 312 314 312 313 313 313 314
304 302 301 301 301 301 304 300 299 299 299 299 295 303 306 305 306 305 305 301 305 301 309 309 307 306 307 308 309 310 311 312 312 312 314 313 311 313 314 315 313 312 312 312 311 311 312
303 301 301 301 301 302 301 299 299 299 299 299 297 303 307 306 306 306 305 305 301 307 307 313 314 305 307 309 311 310 311 313 315 313 315 313 313 311 311 315 314 312 311 310 315 310 313
303 301 302 301 302 299 299 299 300 299 299 297 301 305 307 307 306 305 306 305 305 310 312 314 314 313 313 312 312 312 313 314 312 310 315 315 318 313 310 312 315 312 311 309 314 312 312
301 302 302 303 299 299 300 299 300 297 297 296 303 307 308 307 306 306 306 299 303 303 308 313 312 314 315 314 314 314 313 314 314 312 314 311 312 311 311 310 312 315 314 310 308 305 305
302 302 303 300 299 300 300 299 299 296 295 297 306 309 309 308 307 307 301 304 305 308 310 312 313 311 314 315 316 315 315 313 314 311 311 311 313 312 312 312 312 312 311 313 306 310 311
303 303 301 299 300 299 299 299 298 295 296 302 309 309 310 307 308 307 300 301 309 311 311 311 311 311 311 312 313 313 313 313 313 312 311 310 311 313 313 316 315 313 312 312 312 310 311
304 302 299 300 299 299 299 299 296 294 297 307 310 306 309 307 308 305 303 310 312 312 311 311 310 311 311 311 311 311 311 312 313 312 314 312 312 314 315 314 313 313 312 313 316 312 306
304 300 299 299 299 299 299 299 296 295 300 305 308 309 310 310 305 305 309 312 311 312 311 310 310 310 310 310 311 310 310 309 312 311 312 310 310 311 313 312 312 315 313 313 310 308 306
302 299 299 299 299 299 299 299 297 295 297 305 307 307 308 310 311 310 311 311 312 311 311 310 310 309 310 310 309 311 310 310 310 309 310 310 309 307 311 310 312 313 313 312 311 308 311
300 300 299 299 299 299 299 300 298 296 295 305 305 305 304 308 310 308 310 312 313 313 311 310 311 310 310 310 310 310 310 310 309 309 309 308 306 305 309 311 309 310 312 313 313 314 315
299 300 299 299 299 299 299 299 300 299 296 296 301 301 303 303 305 307 309 311 313 312 311 311 313 311 310 311 310 310 309 308 309 308 309 306 305 303 303 309 309 310 309 312 314 314 313
300 300 300 300 299 299 299 299 299 299 300 298 297 300 302 303 302 309 309 310 310 308 311 311 312 311 310 309 309 310 309 309 307 307 307 308 303 300 302 308 308 307 308 308 310 310 311
300 300 300 300 299 299 298 298 298 298 298 298 297 297 298 299 300 301 300 303 302 305 309 310 312 311 310 311 311 309 309 308 308 307 307 307 304 299 300 304 304 306 307 307 309 309 309
300 300 300 300 299 298 299 298 298 298 298 298 298 298 297 296 296 297 298 299 303 305 308 311 311 311 311 312 308 309 308 310 309 307 306 306 306 303 305 302 306 309 308 307 307 307 307
300 300 301 300 299 298 299 298 298 298 298 298 298 298 297 296 295 297 296 300 299 300 305 310 309 311 311 308 310 311 309 309 311 311 306 308 308 306 308 309 311 310 309 308 308 309 309
300 300 301 300 299 299 298 298 298 298 298 298 298 297 297 297 297 297 296 297 297 296 297 303 300 307 310 307 310 309 306 309 311 309 309 311 310 311 309 312 308 306 309 310 312 311 310
300 300 301 301 300 299 299 298 298 298 298 298 297 296 295 296 295 296 296 295 296 296 296 297 304 306 307 308 308 307 308 307 307 306 307 307 307 308 309 310 307 309 311 312 311 312 310
300 301 301 300 300 300 298 298 298 298 298 297 296 296 295 295 295 296 296 295 296 295 296 296 296 302 302 307 307 307 310 306 305 308 305 308 306 306 306 308 306 309 311 311 312 312 312

GFSGBSN_850_thetae_045.txt.gz
Theta_e
304 304 303 306 305 304 303 306 307 307 307 301 305 302 300 299 299 303 303 303 304 303 302 303 303 306 308 306 307 307 308 310 312 314 317 317 315 319 319 320 322 322 322 322 323 323 323
303 303 302 304 306 305 305 304 307 307 307 306 301 302 301 300 300 301 303 304 303 303 301 301 305 306 306 306 306 307 308 310 311 314 317 316 314 318 320 319 321 320 322 323 322 322 322
304 303 303 303 305 306 306 306 303 306 306 306 305 300 300 300 300 300 301 303 303 302 301 300 303 304 306 306 306 308 312 311 310 312 317 316 316 319 319 317 320 320 322 322 323 322 324
303 303 303 303 304 306 307 306 306 303 305 305 305 305 301 301 301 300 300 300 300 300 300 300 302 301 303 304 307 306 311 312 312 309 316 318 317 317 318 318 319 317 320 322 320 322 322
303 303 304 302 302 306 304 305 303 306 305 303 304 305 305 301 301 301 302 301 299 300 301 301 302 303 303 305 305 306 307 312 313 314 315 316 316 317 316 315 316 317 318 318 319 320 320
303 303 303 302 302 305 306 306 304 304 305 302 302 303 303 304 301 301 302 303 301 300 302 303 304 304 304 303 306 304 306 309 313 311 316 315 316 313 312 315 319 318 316 318 319 319 320
304 303 303 302 301 302 306 306 305 305 304 303 299 301 302 301 302 303 302 303 303 302 303 303 304 303 302 304 307 304 304 307 313 314 314 315 315 317 314 316 315 315 316 317 317 317 319
305 303 303 303 302 303 304 305 305 305 305 302 300 298 302 302 301 302 302 301 302 302 303 304 303 304 303 305 307 306 306 309 312 313 309 313 315 313 314 316 314 315 315 317 316 317 319
307 303 303 302 302 305 303 305 305 305 304 303 301 295 302 303 302 301 301 302 303 304 305 306 305 306 307 307 308 308 305 306 310 311 311 313 315 313 315 317 316 314 314 314 316 315 314
308 304 303 302 302 304 304 304 304 305 304 304 300 295 302 303 303 303 303 303 302 303 303 308 307 307 307 308 308 309 307 308 312 312 311 310 314 314 315 317 315 316 312 313 314 315 318
308 305 303 301 302 302 303 302 302 303 304 301 299 295 303 303 304 303 304 303 302 304 310 308 308 306 306 308 308 309 307 308 313 313 312 313 315 314 315 315 313 315 311 312 313 313 313
307 306 303 301 301 303 301 302 302 303 302 299 298 297 304 304 306 305 305 301 304 299 304 307 307 307 307 308 308 309 309 310 312 313 313 313 311 314 314 313 313 311 311 310 309 310 313
308 306 302 302 303 301 301 301 301 302 299 297 296 302 305 305 306 305 304 304 302 303 307 310 309 307 308 309 310 310 310 312 313 314 314 314 314 312 311 314 312 313 311 317 315 310 312
308 304 303 303 302 300 300 300 299 299 296 295 299 305 307 305 306 305 305 303 302 309 313 313 309 308 310 310 309 309 310 312 312 311 314 317 316 313 310 312 313 311 310 310 315 313 312
308 304 304 303 300 300 299 299 300 296 295 297 304 306 308 307 306 306 306 296 302 301 307 312 309 311 313 313 310 310 310 312 313 311 314 311 315 311 310 311 311 314 309 307 306 303 304
305 304 304 300 300 299 300 300 298 295 297 302 306 308 308 307 307 306 301 303 303 307 309 311 312 311 315 313 312 314 313 313 314 311 310 310 313 312 312 312 311 312 309 311 304 305 310
305 305 301 300 300 300 300 300 296 295 300 306 308 309 308 306 307 306 299 301 308 310 310 311 311 310 310 314 314 313 314 313 313 311 310 309 309 313 313 315 314 312 312 310 309 306 308
306 303 300 300 299 300 300 299 297 295 301 308 309 304 307 307 308 305 300 308 311 311 311 310 309 310 310 310 311 310 313 312 312 311 311 310 310 312 315 313 313 312 311 310 309 309 304
306 301 300 299 299 300 300 299 298 295 298 306 308 308 308 308 304 304 306 311 311 310 310 309 310 309 309 309 311 310 310 309 312 311 311 309 308 314 314 314 312 315 313 311 309 306 306
304 300 300 300 299 299 300 300 299 296 296 306 307 302 307 308 310 309 309 310 312 311 310 309 309 308 309 309 308 309 310 309 311 311 311 310 309 307 310 309 313 314 315 312 310 309 313
302 300 300 300 299 299 300 300 299 299 296 304 305 303 303 302 308 307 308 310 312 312 310 309 310 309 309 309 310 309 309 309 309 309 308 308 310 305 308 310 309 309 312 314 312 314 312
301 300 300 300 299 299 299 299 299 299 297 298 301 302 303 303 303 307 309 311 312 312 309 310 312 309 309 310 309 310 308 308 309 307 308 305 305 303 302 308 309 309 308 312 313 313 313
300 300 300 300 299 299 299 299 299 299 300 299 298 302 302 300 301 309 304 308 308 308 311 310 311 310 309 308 309 309 308 307 307 306 306 306 302 300 302 305 306 307 307 307 310 312 312
300 300 300 300 299 299 299 299 298 298 298 298 298 296 299 297 300 299 298 300 302 303 308 308 311 310 310 311 310 308 308 306 307 305 306 304 302 298 299 303 305 306 305 306 307 309 310
301 300 300 300 299 299 299 299 298 298 298 298 298 298 296 295 294 296 298 300 303 304 305 310 309 309 311 310 307 308 307 309 309 306 306 304 304 302 303 303 305 308 307 307 306 307 306
301 301 300 300 299 299 299 299 298 298 298 298 297 297 298 296 295 297 296 298 298 298 304 306 307 310 310 307 308 309 308 308 310 310 306 308 307 305 306 307 309 306 309 307 307 308 308
300 300 300 300 300 299 299 298 298 298 298 297 296 295 297 297 296 297 295 295 296 295 298 300 298 306 308 306 309 309 306 308 310 309 309 310 310 310 310 312 307 304 306 308 311 308 310
300 300 301 300 299 299 298 298 298 299 298 297 296 295 295 295 296 296 296 296 295 295 296 297 302 302 305 306 307 306 306 305 306 306 307 308 306 308 310 311 308 306 310 310 308 311 311
301 301 301 300 299 299 299 298 298 298 297 296 296 295 295 295 295 296 295 295 296 295 296 295 296 301 300 305 304 307 308 306 303 307 304 307 305 306 306 307 306 307 310 311 311 311 311

GFSGBSN_850_thetae_048.txt.gz
Theta_e
304 304 304 305 309 307 306 307 304 302 306 306 308 302 306 303 300 302 304 304 303 303 302 303 303 305 307 307 307 307 307 309 309 314 316 318 317 314 318 320 322 322 321 322 322 322 322
304 304 304 305 307 308 307 308 306 304 304 306 306 308 301 305 301 299 302 303 302 302 301 302 305 306 307 306 306 306 307 309 310 313 315 317 316 315 317 319 322 322 321 323 323 323 323
305 304 304 304 305 306 306 306 305 306 305 305 306 306 307 301 301 300 299 301 302 301 301 300 303 303 306 306 305 307 308 311 309 311 316 316 315 316 318 319 321 320 323 322 322 322 323
308 304 304 304 304 307 307 307 306 304 304 306 304 305 305 305 301 300 301 301 299 300 300 300 301 302 303 304 306 306 307 311 309 310 314 316 314 316 317 318 318 319 322 325 323 321 322
310 304 305 304 305 306 306 307 306 305 305 305 305 303 304 304 305 300 301 302 299 300 300 302 303 304 303 305 306 305 306 312 310 310 314 316 315 316 316 315 316 317 319 320 323 321 322
313 306 304 304 303 305 306 306 305 305 305 304 304 304 302 304 304 304 301 303 301 300 301 303 303 303 303 302 305 304 306 311 313 311 315 316 315 314 312 315 318 318 315 318 320 322 321
314 308 304 304 304 305 306 305 306 305 304 304 305 304 300 304 302 302 302 302 303 302 303 303 304 303 302 306 306 304 304 308 312 313 311 311 314 316 313 313 313 313 315 317 317 319 320
315 310 304 304 304 303 305 304 306 304 304 303 305 304 298 302 302 301 302 301 302 302 302 304 303 304 304 306 306 306 305 310 312 312 305 310 313 312 313 314 314 314 313 316 316 317 319
318 312 304 304 304 302 303 305 305 304 303 303 304 304 299 303 302 301 301 301 303 302 304 305 304 305 306 307 308 307 305 308 308 309 306 314 313 313 315 315 314 313 314 314 316 315 314
318 313 304 305 303 303 304 304 304 304 303 303 303 303 296 304 303 302 303 303 302 303 304 306 307 306 306 308 308 307 306 310 311 309 310 312 313 314 315 317 313 316 312 312 314 316 318
318 312 306 304 303 303 302 303 304 303 303 303 303 299 296 304 304 303 303 303 302 304 310 307 307 306 307 308 308 308 307 310 310 311 311 312 315 314 315 316 314 314 310 311 313 312 313
317 310 306 303 303 302 300 303 303 302 303 301 297 295 301 305 305 304 304 301 305 298 309 308 306 307 307 308 308 309 308 310 311 312 312 313 312 312 313 311 312 309 310 310 309 309 311
315 309 306 303 304 301 300 301 301 301 301 297 296 301 304 305 306 304 304 304 301 304 306 309 309 307 307 309 309 310 310 309 313 313 314 313 314 311 311 313 311 311 311 310 311 309 311
312 309 304 304 302 300 300 300 300 298 296 297 301 305 305 305 306 305 305 301 302 307 312 308 307 308 308 309 308 308 310 312 311 313 312 317 314 313 310 311 311 312 311 310 315 313 311
311 308 304 304 300 300 300 300 299 295 296 299 305 307 306 305 306 305 305 295 300 299 308 311 309 311 309 311 309 308 309 311 312 311 313 315 315 311 310 311 311 312 309 306 304 302 303
310 306 305 302 300 300 300 300 298 295 299 303 307 307 307 306 306 306 303 304 303 305 308 310 314 312 313 312 308 309 309 311 313 310 309 309 315 313 312 312 311 310 308 314 304 306 311
309 305 305 301 300 300 300 300 298 295 301 306 307 308 307 306 306 306 298 302 306 309 310 310 310 310 313 312 311 312 310 312 312 310 308 308 311 314 314 314 313 311 309 308 308 305 308
308 305 303 300 300 300 300 300 299 296 299 308 308 306 307 307 308 305 299 305 310 310 310 309 308 309 309 312 312 309 311 312 312 310 311 309 309 314 316 313 311 311 311 309 308 308 304
306 306 302 300 300 300 300 300 300 299 296 306 307 307 307 307 308 303 304 310 310 309 309 308 309 308 308 308 310 309 309 309 312 310 310 309 310 313 312 313 312 315 313 310 307 304 305
306 306 301 300 300 300 300 300 300 301 297 305 306 301 306 307 307 307 309 309 311 310 309 308 308 307 308 308 306 309 309 310 311 311 311 309 307 307 310 308 310 312 314 312 310 314 315
306 303 301 300 300 300 300 300 300 301 298 303 304 302 302 301 306 305 307 309 311 311 309 309 309 308 309 309 309 309 308 308 309 311 310 309 306 305 307 308 309 310 311 313 314 313 314
306 302 301 301 300 300 299 300 300 300 301 299 301 301 303 301 302 305 304 308 310 310 310 310 311 308 308 309 308 309 308 307 308 307 307 305 306 303 303 307 309 309 308 310 312 313 313
305 301 301 301 300 300 299 299 300 299 300 299 300 302 301 298 300 308 301 305 303 305 309 310 311 309 308 308 309 308 307 306 306 306 306 305 301 299 302 304 306 306 307 307 309 311 312
302 301 301 301 300 300 299 299 299 299 299 299 298 296 299 297 296 298 299 301 302 302 308 309 310 309 310 310 309 307 306 305 306 304 305 303 302 298 299 302 303 305 304 305 306 307 309
301 301 301 301 300 300 299 299 299 299 299 298 298 298 296 295 294 295 298 299 302 303 305 309 306 307 310 309 306 307 306 308 308 306 306 303 302 301 302 302 303 306 307 306 306 307 304
301 301 301 301 300 299 299 299 299 298 298 296 296 298 298 295 295 296 295 297 296 297 304 304 305 308 308 306 307 308 307 307 309 309 306 306 305 304 305 306 308 304 308 306 305 307 306
301 301 301 301 300 299 299 299 299 298 298 297 296 296 297 296 295 296 294 295 295 295 297 299 298 304 307 304 309 308 306 306 309 308 309 309 309 307 307 308 307 304 305 307 310 307 309
301 301 301 301 299 298 298 299 299 298 297 297 296 295 296 296 295 295 295 296 295 295 295 296 301 302 302 305 307 305 306 304 305 305 306 307 306 307 308 309 305 305 309 310 307 310 310
301 301 301 299 299 299 298 298 298 297 297 297 296 295 296 296 295 295 295 295 296 295 295 295 297 300 300 305 304 304 305 305 302 306 302 306 304 306 305 305 304 306 308 309 308 308 310

GFSGBSN_850_thetae_051.txt.gz
Theta_e
310 306 305 306 307 306 307 308 306 307 306 305 306 307 308 304 306 300 301 305 304 304 300 303 304 304 305 307 307 308 308 310 312 313 315 317 315 316 319 319 322 322 321 322 322 322 322
316 307 304 305 306 304 306 308 306 304 305 307 305 305 306 307 303 302 300 302 303 301 301 302 303 305 306 306 305 306 307 308 310 313 314 316 316 315 317 319 320 321 321 320 321 321 322
317 309 306 304 305 305 305 307 307 306 306 305 306 305 304 305 306 301 300 304 300 300 299 299 303 304 305 305 305 306 307 309 310 311 312 316 316 314 317 317 320 320 322 322 322 322 323
318 311 307 305 305 306 305 307 306 306 305 305 305 305 305 305 304 305 300 303 301 299 300 300 300 302 304 305 305 307 307 310 310 309 311 315 315 314 317 318 319 321 322 324 322 322 322
318 315 310 305 305 305 307 307 306 305 305 305 304 304 304 303 304 304 302 302 301 299 300 302 302 303 303 304 306 305 307 311 311 309 310 315 315 315 316 317 319 320 322 323 324 321 322
319 317 313 307 305 306 304 307 306 305 305 304 304 304 303 302 304 303 304 302 303 300 301 302 303 302 302 303 305 305 306 311 310 310 312 316 315 314 313 317 319 320 319 319 323 322 321
319 320 315 310 305 305 305 307 306 305 304 304 303 303 303 302 304 301 303 302 302 302 302 303 303 303 302 306 306 305 306 310 310 312 314 313 316 316 316 313 313 313 316 317 318 321 322
320 320 317 311 306 305 304 306 305 304 304 303 303 303 303 302 304 302 302 301 302 303 302 303 303 303 303 306 306 305 308 307 312 311 309 309 314 312 314 313 313 314 315 317 315 320 321
322 319 317 310 306 303 303 305 304 303 303 302 303 302 303 300 304 302 301 301 303 302 304 305 304 305 306 307 307 307 308 307 309 309 310 314 313 313 315 314 314 313 314 314 316 318 316
322 320 318 310 306 303 304 304 303 303 303 303 303 303 302 299 304 302 302 303 302 302 304 306 305 305 306 307 307 307 309 309 308 309 309 310 313 315 316 315 313 316 312 313 315 319 320
320 319 318 310 304 303 302 303 304 302 303 303 302 301 296 301 304 303 303 302 302 304 306 307 307 305 307 307 307 306 309 310 310 309 310 311 315 315 316 316 312 314 310 312 312 313 314
323 321 316 309 303 304 301 301 302 302 302 301 297 297 298 305 304 304 303 301 305 298 307 308 306 306 307 307 308 308 309 310 311 310 310 312 312 313 313 313 311 308 310 310 310 313 318
323 319 313 307 304 303 300 300 300 300 299 297 298 304 305 305 305 304 304 304 302 301 306 308 308 306 306 308 309 308 311 311 312 313 313 313 314 311 310 313 311 310 311 316 317 315 317
323 319 312 306 305 301 300 300 300 297 297 298 304 306 306 306 305 304 304 301 305 306 311 307 307 307 308 308 308 308 310 313 311 311 314 317 316 313 309 312 314 312 310 313 315 315 314
322 316 312 305 304 301 300 300 300 296 297 300 306 307 306 306 305 305 304 296 299 302 310 308 307 307 308 309 307 307 309 311 312 311 313 315 315 311 310 311 310 313 314 306 305 302 308
321 316 311 306 302 301 300 300 300 296 299 303 307 307 307 306 306 305 303 303 304 303 308 307 312 309 307 310 306 308 308 310 313 311 308 310 315 314 312 311 310 310 308 312 307 309 312
320 315 310 306 302 301 300 300 300 297 300 305 308 308 306 306 306 306 303 303 306 308 309 310 311 312 312 309 306 308 307 311 312 310 308 307 311 315 313 314 312 311 310 308 308 307 312
319 314 308 305 301 301 300 300 300 299 299 307 308 308 307 307 307 305 302 303 309 309 309 309 308 309 312 312 309 310 310 310 311 310 310 308 310 315 316 313 311 310 310 308 311 310 305
319 312 307 304 301 300 300 300 300 300 297 308 308 307 307 307 307 302 303 308 309 308 308 308 308 308 307 310 311 309 309 309 311 309 310 309 308 314 314 312 310 315 312 309 306 305 306
319 311 307 303 301 300 300 300 300 300 298 306 307 301 306 306 307 306 307 309 310 310 308 308 307 307 306 308 306 309 309 311 311 311 310 309 307 307 310 308 309 312 313 311 309 309 311
316 309 307 302 301 300 300 300 300 300 299 304 305 301 303 308 306 304 306 308 311 311 308 309 308 307 307 309 308 308 308 309 310 311 309 307 306 305 307 308 310 310 311 313 313 313 315
315 309 305 301 301 301 300 300 300 300 300 300 302 302 303 300 301 305 303 306 308 308 309 310 310 306 306 308 307 308 307 307 310 307 311 305 306 304 304 306 308 310 308 309 312 312 312
312 308 303 301 301 301 300 300 300 299 300 299 303 303 302 297 299 305 301 303 303 305 308 310 310 308 308 309 309 308 307 305 305 305 305 306 306 304 306 304 305 307 307 307 308 310 311
309 307 302 301 301 301 300 300 300 299 300 300 300 303 300 297 295 297 300 301 303 303 307 308 308 309 308 309 308 306 305 305 305 303 304 302 301 298 299 302 303 305 303 305 306 306 307
308 304 301 301 301 301 300 300 299 299 299 299 300 298 299 294 294 296 297 298 301 303 305 308 305 306 309 308 306 307 306 308 306 305 304 302 302 302 303 302 303 306 307 306 307 307 304
307 303 301 300 301 300 300 300 299 298 298 298 299 299 297 296 294 295 295 295 296 298 304 303 303 307 308 306 306 308 307 307 309 308 306 305 305 306 305 306 308 304 306 306 305 307 306
308 302 301 301 300 300 300 299 298 298 298 298 298 298 299 296 295 295 294 294 295 295 297 298 299 304 306 305 309 308 305 305 308 308 308 309 309 309 308 310 306 303 305 305 308 307 307
306 302 301 301 300 299 299 299 298 298 298 298 297 297 299 295 295 295 295 296 295 294 297 296 300 301 302 306 306 304 305 302 304 304 306 307 306 307 308 310 305 304 307 309 305 304 305
302 301 300 300 299 299 299 298 298 298 298 297 296 297 297 296 295 295 295 296 295 295 295 296 298 299 299 305 304 303 304 303 300 305 301 305 304 305 305 304 303 303 304 303 301 299 301

GFSGBSN_850_thetae_054.txt.gz
Theta_e
317 317 309 306 307 307 307 308 307 306 306 305 307 306 305 307 307 303 300 301 303 303 301 303 304 304 305 307 308 308 309 309 311 312 315 316 316 316 318 320 321 322 321 321 321 323 323
316 318 314 310 307 307 306 307 307 307 307 306 306 305 305 305 305 306 301 301 303 300 299 300 303 305 307 307 306 305 308 308 309 310 312 316 315 316 316 319 321 321 322 320 320 322 321
317 317 317 314 309 308 307 307 307 306 306 306 305 305 305 303 304 305 303 300 304 299 299 300 302 304 306 306 305 305 306 308 310 309 311 316 315 316 316 318 319 321 323 322 321 320 320
319 318 318 315 311 309 307 307 307 306 306 306 305 304 304 304 303 304 305 300 303 299 299 300 300 302 305 305 305 305 306 307 309 309 311 315 315 316 317 318 319 320 321 324 322 322 322
322 320 319 317 315 309 307 306 307 306 306 306 304 304 304 303 303 304 304 302 301 299 300 301 302 303 305 304 305 306 307 310 309 309 313 314 315 315 317 318 319 320 322 323 324 322 323
322 322 320 319 315 311 306 305 307 305 305 303 304 304 304 304 303 304 303 302 302 301 300 301 302 303 303 304 305 306 306 310 311 311 313 313 315 316 316 317 318 318 320 322 325 323 323
324 323 320 320 314 311 306 304 305 305 303 304 304 304 303 303 301 304 302 301 303 303 301 304 304 303 303 306 305 306 306 311 310 311 314 313 315 318 316 316 315 317 319 322 321 322 323
324 324 322 320 316 310 306 304 305 303 304 304 303 303 303 303 301 304 302 301 302 302 303 303 304 303 303 306 306 307 308 308 311 313 311 311 314 315 315 316 317 318 319 320 320 322 322
323 324 323 321 318 310 306 305 301 303 304 303 303 303 302 303 303 303 301 301 303 302 306 305 305 306 306 306 307 308 308 305 311 311 311 313 314 314 316 317 316 317 318 319 319 321 321
323 324 322 320 317 310 306 305 301 302 303 303 303 302 302 299 304 302 301 302 302 302 310 307 306 306 307 306 308 306 308 305 309 311 311 312 313 315 315 316 315 316 316 318 318 319 319
324 324 321 321 315 309 307 303 301 300 302 303 302 301 301 301 304 303 303 303 302 304 313 307 307 305 307 308 307 308 309 308 310 310 312 312 315 316 317 316 315 316 315 317 317 317 318
323 323 320 320 313 308 306 302 301 301 300 301 299 302 300 305 304 303 303 302 304 309 312 308 306 307 308 308 309 308 310 310 310 311 311 312 313 315 315 314 315 313 316 316 317 318 320
324 323 321 319 312 307 305 301 300 300 298 299 304 305 306 306 305 304 302 304 310 314 307 307 306 307 308 309 310 308 311 311 313 315 316 314 314 313 314 314 313 315 317 319 319 320 318
326 322 322 318 312 307 303 301 301 298 297 301 305 306 306 305 305 304 305 305 314 310 309 307 307 308 308 308 308 309 311 313 312 313 314 318 317 314 313 315 315 315 315 317 317 317 317
326 323 322 317 312 307 302 301 300 298 298 303 306 306 306 305 305 305 305 312 311 310 309 308 308 309 308 309 308 309 311 312 312 312 317 316 316 313 313 313 314 315 317 310 314 309 316
326 324 322 317 311 305 302 301 301 299 300 305 307 307 306 306 305 306 307 310 310 306 308 307 311 308 309 309 308 309 311 312 313 312 311 313 317 315 313 313 312 315 312 316 316 318 315
325 323 320 316 309 304 302 301 301 299 303 306 307 307 307 306 306 306 309 309 309 308 309 310 312 311 310 309 308 309 310 312 313 312 310 313 315 315 315 316 317 314 316 315 314 314 316
325 323 320 316 308 304 301 301 300 300 304 306 308 309 307 306 309 307 308 308 309 310 309 311 310 311 312 310 308 311 312 312 312 312 313 311 315 316 316 314 313 313 315 315 317 317 314
325 323 319 314 308 303 301 301 300 300 300 307 308 306 307 307 311 310 308 309 310 310 309 310 310 310 311 312 312 311 312 311 312 312 313 312 314 316 316 314 313 316 314 313 313 313 316
324 322 319 312 308 302 301 300 300 300 298 307 307 308 306 307 307 307 311 311 312 309 310 308 309 309 310 310 309 312 312 312 311 312 310 311 312 314 316 315 315 315 315 314 314 317 316
322 322 316 310 306 302 301 300 300 300 299 306 306 307 306 308 309 308 309 310 312 312 310 310 310 310 310 311 311 312 311 311 311 312 310 311 314 310 310 311 313 314 315 316 315 315 317
322 321 314 309 304 302 301 301 300 300 300 303 303 305 304 303 303 308 308 309 311 311 311 312 311 310 309 311 310 311 311 311 313 311 312 309 313 309 310 308 311 312 312 313 314 315 315
321 320 312 308 302 301 301 301 300 300 300 299 301 304 304 299 304 309 307 306 307 307 310 310 311 311 312 311 310 309 307 309 310 313 311 312 311 311 312 307 308 310 309 310 311 312 313
321 317 310 305 302 301 301 300 300 300 299 300 303 305 303 302 304 303 302 304 306 306 310 308 309 311 308 308 307 306 306 307 308 307 308 309 309 309 311 308 310 307 305 306 308 309 309
320 313 307 303 302 301 300 300 300 299 300 299 302 303 301 300 300 300 301 302 304 305 308 308 304 305 308 307 310 311 311 310 308 307 307 307 309 309 311 310 309 310 309 309 309 311 309
319 312 305 302 301 301 300 300 299 299 299 299 299 299 300 300 299 296 299 298 306 305 308 304 303 306 308 310 310 311 312 311 311 310 306 307 308 310 310 311 311 308 307 306 307 312 307
317 306 302 302 301 300 300 300 299 299 298 298 299 298 299 297 295 295 298 299 296 299 304 300 299 304 306 311 312 312 311 307 311 311 310 310 310 312 311 311 309 307 306 306 311 310 305
313 302 302 302 301 300 300 300 300 299 299 298 298 299 299 296 295 295 296 296 295 296 305 298 303 304 307 310 311 310 310 308 308 307 309 310 310 311 310 310 309 302 308 310 304 301 299
310 302 302 301 300 300 300 300 300 299 298 298 298 298 298 297 295 296 296 295 295 295 296 298 301 301 302 307 306 306 307 306 306 310 304 310 307 309 308 308 303 300 303 300 299 299 299

GFSGBSN_850_thetae_057.txt.gz
Theta_e
319 317 317 317 313 310 309 308 308 308 307 307 306 306 306 305 305 307 307 300 305 301 300 299 303 304 307 308 308 309 308 308 309 311 314 316 318 319 319 320 317 323 323 323 323 324 324
320 319 318 319 315 310 308 307 307 308 307 306 307 307 305 305 303 305 307 302 302 304 300 299 301 304 308 308 307 307 308 309 309 309 314 315 317 318 317 319 319 319 322 323 323 323 324
322 321 320 319 318 314 310 306 308 308 307 306 307 306 305 304 304 304 305 306 300 304 299 300 300 305 306 307 307 307 307 308 309 309 311 314 316 317 317 317 319 317 319 323 322 322 321
324 323 321 321 319 315 310 307 307 308 307 305 306 305 304 304 304 303 305 305 302 300 299 300 300 305 306 305 306 307 307 308 308 308 310 313 315 316 317 317 319 322 323 324 322 321 321
324 324 323 322 320 319 312 308 306 307 306 305 304 305 304 304 304 302 304 304 302 301 299 300 305 305 306 305 306 306 306 308 309 310 310 311 315 317 318 319 320 320 322 323 323 321 322
324 325 324 322 321 319 314 308 306 306 306 304 304 304 304 304 303 301 304 303 302 302 302 303 304 306 305 306 305 306 307 308 311 311 310 312 315 317 318 319 321 319 317 320 323 323 323
322 324 325 324 321 319 316 310 305 305 303 304 304 304 303 303 303 301 303 306 307 306 304 304 304 304 304 307 307 307 308 310 311 311 314 309 315 318 317 317 316 316 317 319 320 322 324
322 325 323 324 322 320 317 310 305 303 303 305 303 303 303 303 303 303 303 306 305 304 305 304 304 304 304 307 307 306 308 305 312 313 312 312 314 316 315 316 316 316 317 320 321 323 323
321 325 323 323 322 321 316 308 305 302 303 303 303 303 302 302 302 304 306 304 303 303 308 307 306 307 307 307 307 308 308 306 311 313 314 315 314 315 316 317 317 318 317 318 322 322 322
322 325 323 323 321 321 314 307 304 301 301 303 302 303 302 302 305 305 305 302 302 302 309 307 307 307 308 308 309 307 308 307 311 312 313 313 313 316 317 316 316 317 317 318 319 322 322
322 322 325 323 320 321 311 307 302 301 301 298 298 302 303 302 305 305 305 303 302 305 316 308 307 305 308 309 308 308 309 309 312 313 312 315 314 316 317 316 315 316 316 318 318 320 317
323 326 325 324 321 320 311 306 301 301 299 298 301 303 303 304 305 305 303 302 306 309 312 310 307 308 308 309 309 309 310 311 310 313 311 313 313 316 315 315 315 316 316 316 316 317 320
323 325 325 325 321 320 311 304 301 301 297 299 305 306 306 306 306 303 302 307 312 315 307 308 307 308 309 310 309 310 312 313 313 316 314 312 313 314 315 316 315 316 317 319 318 320 320
324 322 324 325 322 319 310 303 301 300 297 302 307 306 306 305 304 303 307 308 315 311 310 308 308 309 310 310 310 311 311 313 313 313 314 318 316 315 316 315 315 316 316 317 316 318 317
323 325 324 324 322 318 309 302 301 300 298 305 306 306 306 305 305 305 307 314 314 312 309 308 308 310 310 310 310 311 312 314 313 314 317 317 318 314 315 315 315 315 317 313 317 315 318
321 326 323 324 322 317 307 301 301 300 299 306 307 308 307 306 305 307 310 312 312 309 310 308 311 309 311 310 311 312 314 313 313 313 313 315 318 316 315 314 314 316 315 315 318 318 314
319 324 324 324 321 314 306 301 301 300 301 307 307 309 307 306 306 309 312 313 311 310 308 310 311 310 311 310 311 311 313 313 313 313 313 315 315 317 315 317 316 316 316 316 316 316 318
319 324 322 324 320 311 304 301 301 300 303 307 309 310 307 307 309 310 311 312 310 311 311 311 311 311 311 309 310 312 313 314 313 313 314 313 315 315 316 315 315 315 315 316 317 318 315
319 324 322 322 318 310 303 301 301 300 303 307 309 308 307 307 313 312 311 312 311 312 312 312 312 311 312 312 312 313 314 312 313 313 314 314 315 317 316 315 314 316 315 315 315 316 318
320 323 322 321 318 308 302 301 301 300 299 308 309 308 307 307 308 311 313 313 312 311 311 310 311 312 313 313 313 313 314 313 313 313 310 312 313 315 317 317 315 315 315 315 315 317 315
320 322 323 321 319 307 302 301 301 300 299 307 308 311 309 309 310 311 312 313 312 312 312 311 311 312 312 313 313 313 312 313 313 312 312 314 317 313 312 314 315 316 315 315 316 315 316
321 321 323 320 312 305 301 301 301 300 299 306 307 308 307 310 310 312 310 313 312 313 313 312 312 311 311 312 312 313 313 313 313 313 313 313 314 312 313 311 312 314 314 314 316 316 316
322 321 321 318 308 302 301 301 301 300 300 304 303 305 308 306 310 312 312 311 311 312 312 312 312 313 313 312 311 311 310 312 311 313 314 314 313 313 315 309 310 312 311 312 313 313 313
319 320 320 318 306 301 301 301 301 300 300 300 300 306 307 309 311 311 308 309 311 310 312 310 311 312 309 307 308 309 309 310 310 311 312 314 313 312 313 310 312 308 307 308 309 309 310
318 319 319 318 306 301 301 301 301 300 299 299 301 305 306 308 308 306 308 308 309 310 310 309 306 305 308 309 311 312 311 311 310 310 310 310 311 312 314 311 310 310 309 310 311 311 309
319 319 319 315 303 301 301 301 300 299 299 299 301 304 304 305 304 303 306 308 311 310 310 307 304 306 309 312 312 313 313 313 312 311 308 309 310 311 310 311 311 310 308 308 309 312 307
318 316 316 308 302 301 301 301 299 299 299 299 302 301 302 300 297 299 305 306 304 306 310 305 304 308 309 312 313 312 312 310 312 313 311 311 311 312 312 311 310 306 307 308 311 310 303
317 316 313 305 301 301 300 300 299 299 299 299 298 300 301 298 296 297 297 299 300 301 310 302 306 307 310 313 312 312 311 310 311 310 311 311 311 311 310 311 311 303 308 309 305 303 303
316 314 305 302 301 301 301 300 299 299 299 299 299 299 300 299 296 296 296 296 297 297 300 302 305 305 305 310 309 309 309 309 310 311 307 310 309 310 310 311 305 303 303 302 302 301 301

GFSGBSN_850_thetae_060.txt.gz
Theta_e
323 322 321 321 320 319 317 314 310 309 309 308 306 308 308 306 305 304 304 308 303 305 303 299 300 302 304 309 309 310 307 307 308 310 311 316 318 319 320 318 322 323 323 325 325 325 324
324 324 323 322 321 321 319 316 310 310 309 308 306 308 307 305 304 304 303 306 307 301 305 299 299 304 308 308 308 308 308 308 311 309 310 313 317 318 318 319 321 318 320 322 323 324 325
324 323 324 323 322 322 320 317 313 308 308 308 306 306 305 305 304 304 303 305 306 302 302 299 299 304 307 307 307 307 307 307 308 310 310 313 314 316 317 318 320 318 319 320 323 323 323
323 323 324 324 323 322 321 318 314 308 308 308 306 304 305 305 304 304 303 305 304 303 300 299 300 305 306 306 305 307 307 307 307 309 309 311 312 315 318 318 318 317 317 319 322 323 322
323 323 322 324 324 324 322 319 312 308 307 307 305 304 304 304 304 303 302 304 303 301 300 299 304 306 306 306 306 305 306 308 308 309 308 308 310 317 317 319 320 319 317 316 322 322 321
321 321 321 323 324 323 323 320 314 307 305 303 304 305 304 303 303 303 302 303 302 301 304 304 305 305 306 306 307 306 307 308 308 310 308 308 312 317 317 318 321 321 320 318 320 322 320
322 320 321 322 323 323 323 320 312 307 305 302 306 305 303 303 303 303 302 306 308 307 305 305 304 304 305 306 307 307 308 309 309 310 307 307 313 316 316 317 317 318 318 319 318 321 321
321 320 320 322 323 323 323 321 315 306 303 301 304 303 303 303 302 302 304 307 306 306 306 305 305 304 305 307 308 308 308 307 309 311 308 308 314 314 316 317 316 316 317 320 321 322 321
319 321 320 322 324 323 322 320 313 306 302 301 302 303 302 301 301 303 305 306 304 304 308 307 306 307 307 308 308 309 308 306 309 310 310 313 315 315 316 316 317 316 315 321 323 323 322
319 321 320 322 322 324 321 319 310 305 301 301 300 301 300 302 305 306 306 305 303 303 310 308 308 308 308 308 309 308 308 306 311 311 313 313 312 315 317 317 316 316 315 320 322 322 323
319 320 320 322 324 324 321 318 309 303 301 300 299 299 300 303 305 306 306 303 303 306 314 307 307 305 308 309 308 309 308 310 312 312 312 313 313 314 318 316 315 317 317 319 322 320 319
323 320 320 322 324 323 322 317 308 302 301 298 301 303 304 303 305 306 303 303 306 309 310 308 307 308 309 309 309 310 310 310 312 312 313 314 313 315 317 315 316 315 316 316 315 316 315
322 320 320 322 325 324 321 314 307 301 301 299 306 307 306 305 306 304 303 307 311 312 307 307 307 308 310 309 310 311 311 312 314 311 314 312 313 314 315 316 316 315 316 316 317 314 316
319 322 320 321 325 324 321 312 304 301 300 302 307 306 305 306 305 303 306 309 314 309 310 308 308 309 310 310 310 312 310 312 312 312 314 317 315 315 316 316 317 316 316 317 317 315 316
314 322 320 320 323 323 321 312 303 301 299 306 306 306 307 305 305 306 308 313 313 311 308 308 309 310 311 310 310 312 312 313 313 314 315 317 316 314 315 315 315 316 315 313 316 314 314
314 319 320 320 321 323 320 310 302 301 299 307 307 307 307 305 306 307 310 313 311 310 310 308 310 309 311 310 311 313 314 313 313 314 313 314 318 315 315 315 314 315 313 314 314 314 314
314 318 321 319 320 321 320 308 301 301 300 307 307 309 307 306 307 309 312 312 311 310 309 311 312 310 310 310 311 312 314 312 313 314 313 315 315 316 315 317 316 315 316 316 316 314 318
310 316 321 319 320 320 318 306 301 301 302 307 308 310 307 306 309 311 312 312 311 311 311 311 311 312 311 310 311 312 314 314 313 313 314 314 314 315 317 315 315 315 315 314 314 315 313
307 312 319 319 320 319 316 303 301 301 302 308 308 307 307 307 312 311 312 312 312 311 312 312 312 311 312 311 312 312 313 313 313 314 314 314 314 313 314 314 314 316 315 315 315 314 315
307 313 317 319 320 318 314 303 301 301 304 309 308 307 307 307 308 310 312 312 312 311 311 311 312 312 313 312 313 313 313 313 313 313 311 311 314 314 314 315 313 314 314 314 314 312 314
307 311 319 319 320 318 311 301 301 301 304 309 309 310 307 308 309 311 313 312 312 312 312 311 312 312 312 313 312 311 312 313 313 311 312 313 315 310 312 314 314 315 313 313 312 313 313
303 309 320 319 319 316 308 301 300 300 304 308 308 309 308 310 310 311 311 313 313 313 313 312 312 312 311 312 312 312 312 312 313 313 313 312 312 311 309 311 312 313 313 314 315 315 314
302 304 317 320 319 315 307 300 300 300 299 306 307 307 309 310 311 312 312 312 313 312 312 312 312 313 313 312 309 311 311 311 312 312 313 313 309 309 311 309 309 309 310 312 313 313 313
302 309 316 319 318 313 302 301 300 300 299 304 304 306 308 308 310 311 311 311 312 312 312 310 311 312 309 308 308 309 310 310 310 311 312 313 312 308 308 308 308 307 307 308 309 310 309
302 304 312 315 315 310 303 301 301 300 300 302 301 307 307 309 308 309 310 310 310 311 310 308 306 307 308 310 310 311 311 310 310 309 309 310 311 310 311 308 309 309 309 309 310 310 307
302 304 307 315 314 306 302 301 300 300 300 301 300 305 306 307 304 307 309 310 310 310 309 306 306 308 309 311 312 313 313 312 311 310 308 309 308 309 308 309 310 308 308 308 308 310 304
302 308 308 312 311 301 301 300 300 300 299 299 300 304 305 300 299 302 305 307 307 308 309 306 306 309 310 311 312 311 310 309 311 311 310 309 309 309 309 309 309 304 306 308 310 306 304
301 308 309 311 306 302 301 300 300 299 299 299 301 303 303 299 298 299 300 301 303 303 307 303 306 307 310 312 311 310 310 308 309 310 310 310 308 309 309 311 308 303 307 308 303 302 301
301 304 308 308 304 303 300 300 299 298 299 300 301 302 302 301 297 297 298 299 300 300 302 304 306 306 306 309 308 308 308 308 308 309 307 308 306 307 308 308 304 303 303 302 301 301 301

GFSGBSN_850_thetae_063.txt.gz
Theta_e
324 323 323 323 323 323 322 321 318 315 310 308 309 308 308 308 306 305 304 302 307 307 301 305 299 302 305 309 309 308 308 307 308 308 309 314 316 317 318 317 320 322 323 323 323 325 324
323 323 324 323 324 324 323 322 320 317 312 309 308 307 306 306 305 304 305 303 306 308 301 303 299 302 307 308 307 308 307 306 310 309 310 311 314 316 318 317 321 321 321 324 322 325 324
321 321 323 323 323 324 323 322 321 318 312 308 308 308 305 306 305 305 305 303 306 305 304 300 299 301 305 306 307 307 306 306 306 309 310 309 313 314 316 318 319 320 322 320 323 324 324
317 320 321 322 322 322 324 324 323 319 315 308 308 306 305 305 304 304 304 302 303 304 301 299 300 303 306 306 306 305 306 307 307 308 309 310 311 313 316 318 318 320 319 320 320 320 322
315 315 320 321 321 322 325 324 323 320 314 307 305 303 305 305 304 303 304 301 303 301 301 299 302 306 306 306 306 306 306 306 309 308 308 309 310 313 317 318 319 318 318 319 317 319 322
320 314 316 321 321 322 323 322 322 320 314 306 302 305 305 304 304 303 301 302 301 301 304 305 305 305 305 306 306 306 307 306 308 309 308 309 309 314 316 317 321 319 315 317 318 321 320
323 320 315 320 321 321 323 323 323 321 312 305 302 303 304 303 303 303 302 307 307 307 304 305 304 304 304 305 307 307 307 308 307 309 308 308 309 313 314 315 316 317 316 317 318 320 321
321 322 319 317 321 320 322 323 323 320 312 303 301 301 303 303 302 300 303 307 306 306 306 305 304 304 305 306 308 307 307 307 309 310 308 309 312 312 313 314 317 318 317 317 317 318 321
316 320 322 319 321 321 321 323 323 320 310 302 301 300 301 301 303 304 306 306 305 304 307 307 305 306 306 307 308 308 308 306 308 309 309 312 313 313 315 315 318 317 317 319 321 321 321
312 316 318 320 320 321 321 323 322 318 308 301 300 299 300 300 305 305 305 305 303 304 306 306 308 307 307 308 308 308 308 308 310 309 311 313 313 315 315 317 316 316 315 319 322 322 325
304 312 317 318 321 321 321 322 322 315 305 301 299 299 300 303 305 306 306 304 302 306 301 305 307 304 307 309 308 310 307 309 310 311 312 312 314 315 318 317 316 318 314 319 320 321 320
301 308 314 316 322 321 321 322 321 315 302 300 300 303 304 304 305 305 304 303 306 305 297 302 307 308 309 309 309 310 310 310 312 312 312 313 312 315 316 316 315 315 316 316 316 317 315
300 304 311 313 319 321 321 321 320 313 301 299 305 307 306 305 306 303 304 307 309 299 306 305 308 308 309 309 310 310 311 312 313 311 313 312 310 314 315 315 314 313 312 316 317 313 316
302 304 309 312 316 321 321 320 320 310 301 301 306 305 305 306 305 303 306 308 303 308 305 307 308 308 310 310 310 309 310 310 312 312 314 315 315 315 314 315 314 314 313 312 318 314 314
303 305 308 309 315 320 320 320 320 305 301 305 306 305 304 305 304 306 308 312 311 306 307 308 309 309 310 309 310 311 310 313 313 312 313 317 316 314 314 313 313 314 310 311 312 311 310
303 307 308 308 314 320 320 319 318 305 300 306 306 306 306 304 305 307 309 312 310 309 309 308 310 309 310 310 310 312 312 311 313 313 311 313 316 314 315 314 314 314 311 313 307 309 314
300 306 306 308 314 320 320 318 315 302 300 306 307 308 306 305 306 308 311 311 311 310 309 310 310 310 309 309 310 312 312 312 312 313 312 313 314 315 313 315 315 314 314 314 312 312 314
299 303 306 307 310 320 320 318 314 301 304 307 308 306 306 306 308 309 310 311 310 310 310 310 310 311 311 309 310 312 314 313 312 312 313 313 312 316 315 314 313 314 315 314 312 314 310
299 303 303 305 311 314 319 317 313 301 305 307 309 306 306 307 306 309 310 311 312 311 312 312 311 310 311 311 311 313 312 312 313 312 312 312 312 314 313 312 313 315 314 314 313 312 312
298 301 303 305 310 311 319 316 312 300 305 308 307 306 306 306 308 309 310 311 312 311 312 312 311 311 312 311 310 312 313 313 313 311 311 311 311 308 310 313 312 314 314 314 311 309 313
298 302 302 307 311 312 319 315 307 300 306 308 307 305 306 307 305 307 311 310 311 311 311 310 310 312 312 311 311 312 311 313 312 311 312 311 310 307 311 313 313 313 312 313 311 311 312
297 301 301 308 311 312 317 310 305 300 307 308 309 308 306 305 308 308 310 312 311 313 311 311 312 310 310 311 312 311 311 311 312 312 312 309 308 308 306 311 311 312 312 312 312 312 312
298 301 301 304 304 309 316 312 303 302 307 308 308 308 309 307 306 307 309 311 312 311 311 310 311 310 311 310 308 310 311 310 311 310 310 310 305 304 307 308 307 307 308 310 312 312 313
299 300 301 303 307 307 314 313 302 301 306 306 307 307 307 306 307 308 310 311 310 311 310 308 311 309 309 309 309 309 310 310 309 309 310 310 308 302 302 305 304 305 306 307 309 308 307
299 300 301 303 308 307 311 314 301 299 304 304 305 307 307 304 306 309 310 308 309 308 307 306 306 307 309 309 307 308 308 309 308 306 306 308 308 306 306 304 307 308 308 308 309 308 303
298 300 301 302 301 306 305 306 300 299 301 303 303 306 306 304 301 301 308 309 306 305 306 304 307 308 310 308 309 309 309 309 309 309 307 307 306 306 306 307 309 307 306 307 307 308 302
298 300 302 307 305 305 305 304 300 299 299 301 302 305 306 301 299 303 304 306 307 306 303 305 306 308 309 307 309 308 306 308 309 309 309 307 306 306 306 305 307 303 303 308 308 304 301
299 300 300 307 306 305 304 300 299 299 299 301 300 304 305 299 298 300 302 303 304 305 303 303 305 307 307 308 308 307 306 306 307 307 307 307 305 306 307 311 309 303 304 307 301 301 301
299 300 301 301 305 305 302 300 299 299 299 300 300 302 303 303 296 298 300 301 302 304 304 304 304 305 305 306 305 304 306 304 305 307 305 307 305 306 305 305 302 301 300 300 300 300 299

GFSGBSN_850_thetae_066.txt.gz
Theta_e
319 320 321 322 323 323 323 323 323 322 321 317 310 309 309 307 305 306 305 305 303 307 308 301 303 299 305 308 308 308 307 306 306 308 309 310 314 316 318 317 317 322 321 322 323 325 324
319 316 317 319 321 322 323 323 323 323 322 318 311 309 308 306 305 306 305 305 303 306 307 303 301 299 306 307 307 307 307 306 306 308 308 308 314 315 316 317 315 321 322 322 323 324 324
323 320 318 315 317 321 322 321 322 324 322 319 312 308 308 305 305 304 304 305 303 305 305 301 299 299 303 303 307 306 307 306 307 307 309 308 311 314 316 317 318 321 322 321 323 323 325
322 322 321 319 316 318 322 321 322 323 322 319 312 307 304 306 305 304 304 304 301 303 303 300 299 302 304 306 306 306 305 306 307 308 309 309 310 311 314 317 319 320 319 322 316 322 323
320 321 322 321 319 316 321 321 322 323 322 320 312 305 303 306 304 304 304 301 302 302 301 299 301 305 305 306 306 306 306 305 306 308 308 308 309 311 316 318 320 319 318 320 316 318 322
314 317 320 320 320 318 319 321 321 323 322 319 311 304 302 304 304 303 302 302 301 301 304 304 304 304 304 305 306 306 307 307 307 308 308 309 309 312 315 318 320 319 317 316 316 320 319
307 311 314 319 318 320 319 321 321 323 322 319 309 302 301 302 303 302 302 307 308 306 304 304 304 305 304 304 306 307 307 306 307 308 308 309 311 314 313 315 315 316 317 318 318 320 321
301 303 311 312 315 320 319 322 321 322 321 318 308 301 301 301 301 299 303 306 305 305 306 305 304 303 305 306 306 307 307 308 308 310 308 309 312 311 311 314 316 317 316 317 319 319 319
302 301 301 307 311 314 319 321 321 321 320 318 307 301 300 300 304 303 306 305 305 304 306 307 306 306 306 306 306 308 307 307 309 309 309 310 310 311 313 316 318 317 316 317 318 319 320
302 301 302 298 302 310 317 320 321 320 321 316 304 301 299 302 305 304 305 305 303 303 298 303 307 307 306 307 308 308 308 308 308 310 311 312 312 312 314 316 315 318 316 319 319 321 321
300 301 301 301 299 306 314 318 319 320 319 312 302 299 301 303 305 306 305 304 302 306 297 302 306 305 307 309 308 310 308 308 309 310 312 312 314 314 314 316 315 316 315 319 320 320 321
300 301 300 301 302 305 311 315 318 321 318 306 301 302 302 304 305 306 305 303 306 298 296 301 306 307 308 309 309 307 309 310 311 311 312 313 313 312 316 315 315 315 314 315 317 318 321
298 301 299 301 302 303 309 313 316 321 316 305 300 306 305 304 305 303 303 306 300 297 302 303 307 307 308 309 310 310 311 312 311 311 313 313 312 314 315 315 315 315 315 317 319 319 319
298 299 299 301 304 304 308 311 316 320 315 302 306 306 305 306 303 303 306 305 298 303 303 305 307 307 309 309 310 309 309 312 312 312 311 315 316 315 314 314 315 314 313 315 319 316 315
298 299 298 300 303 309 309 310 315 319 311 302 305 305 305 306 303 305 307 302 303 302 305 307 308 309 309 309 310 310 310 313 313 311 313 314 316 314 314 313 313 314 314 312 312 309 310
298 298 298 299 303 306 308 310 315 317 306 305 305 305 304 304 304 307 306 310 308 307 308 308 309 308 309 309 310 311 311 311 312 312 311 312 315 314 314 313 312 311 311 312 310 311 315
299 299 298 299 302 306 309 313 314 315 304 306 306 306 305 304 306 308 305 310 310 309 309 309 308 309 309 308 309 312 311 311 312 312 311 311 311 314 311 314 314 312 312 312 310 311 312
299 299 299 299 304 304 307 313 313 311 304 306 307 304 305 305 306 308 309 311 310 309 309 309 309 310 309 308 310 312 313 312 312 311 312 311 311 313 314 312 313 314 314 311 308 311 308
299 299 299 298 303 303 306 308 311 306 304 306 307 306 305 306 308 308 310 312 311 310 310 310 310 310 310 311 311 312 312 312 313 311 312 311 310 306 310 310 312 315 314 313 312 310 312
299 299 298 298 302 305 306 308 305 307 305 306 306 306 306 306 306 308 310 312 312 311 311 311 311 310 310 310 309 312 313 313 312 310 311 310 309 308 309 310 312 313 314 313 311 310 312
299 299 298 299 302 304 308 308 307 303 306 308 306 303 306 306 306 305 308 309 311 311 310 310 310 311 311 310 310 311 312 313 311 311 311 309 308 306 310 311 312 312 313 312 311 311 313
299 298 298 299 301 301 310 309 307 304 308 307 307 305 305 303 306 305 309 309 310 311 309 310 310 310 309 310 309 310 311 311 311 310 310 307 306 307 305 308 308 311 311 311 312 311 312
298 298 299 299 301 302 303 307 307 306 307 307 308 307 307 305 303 306 309 310 311 309 309 309 310 309 309 308 308 309 310 310 310 310 309 308 305 303 308 305 306 308 308 310 311 310 311
298 299 298 300 301 306 305 307 304 305 306 307 308 308 307 305 305 307 309 310 310 310 309 307 310 308 310 308 309 310 309 308 308 306 309 308 305 301 300 303 305 305 305 307 308 306 305
299 299 298 300 301 305 307 306 304 304 307 305 307 308 308 303 305 308 309 307 307 307 306 306 306 307 309 309 306 307 306 308 308 305 306 307 306 304 304 303 305 307 307 307 308 304 300
299 298 298 301 300 302 304 304 303 302 306 304 306 306 307 304 300 302 308 308 305 304 304 304 307 308 309 306 307 308 308 307 309 309 306 304 304 304 305 307 308 306 305 305 306 307 300
299 298 298 301 305 306 304 304 302 302 306 306 302 305 306 300 298 302 305 306 307 304 302 304 307 308 309 305 307 308 306 306 308 308 307 306 305 305 305 304 305 303 303 305 306 304 300
299 298 299 301 305 306 305 305 302 301 301 305 303 304 304 300 297 300 303 305 305 305 303 304 306 307 306 306 307 305 305 305 306 305 305 306 304 305 305 308 309 302 303 307 301 300 300
299 297 300 302 302 304 305 304 302 299 300 301 300 303 304 304 297 298 300 302 303 304 304 303 304 305 305 304 304 302 305 302 303 307 304 307 304 305 304 305 300 301 302 301 301 301 300

GFSGBSN_850_thetae_069.txt.gz
Theta_e
321 321 321 320 319 317 317 320 322 322 322 322 320 317 312 310 307 305 307 306 305 303 308 308 303 301 301 307 306 307 307 306 306 308 308 308 310 311 315 314 317 319 320 322 323 324 324
319 320 320 321 320 319 318 317 320 322 323 323 319 318 312 309 305 305 305 305 305 304 306 307 304 300 301 306 306 307 307 306 306 306 308 307 311 313 315 316 316 318 317 321 323 324 324
316 318 318 320 321 321 319 318 318 322 321 323 321 317 312 305 304 306 304 304 304 303 304 306 304 299 301 300 304 306 306 306 305 307 308 308 309 312 313 316 316 318 318 322 323 323 324
311 311 313 315 318 321 321 319 318 320 321 321 320 317 313 304 304 305 305 304 303 301 303 302 303 301 302 304 306 306 306 305 305 307 309 308 308 309 313 316 316 316 313 323 318 320 323
304 305 308 311 313 315 318 320 318 320 321 321 318 318 313 302 303 305 304 301 302 302 301 303 301 304 304 305 305 306 305 306 305 307 308 307 309 311 314 316 318 315 316 320 318 318 320
304 304 302 302 308 308 312 317 319 318 322 321 317 317 309 301 301 303 301 302 301 301 302 303 303 304 304 305 305 305 306 306 306 307 308 309 309 312 314 318 320 317 315 319 320 319 319
303 303 302 302 300 304 307 312 314 319 319 321 317 315 307 301 301 303 302 305 305 304 304 304 304 304 303 303 304 305 307 306 307 307 309 309 312 311 314 312 314 315 316 318 318 319 319
301 301 303 303 302 298 299 302 308 317 317 321 319 316 304 301 301 301 303 306 305 306 305 305 305 303 303 304 305 307 307 307 307 309 308 309 313 311 311 313 315 317 317 318 319 319 319
300 301 301 301 302 301 298 297 304 314 316 319 320 314 302 300 301 302 304 306 305 303 305 306 306 305 306 306 306 308 307 307 308 309 309 309 311 311 312 311 315 316 316 316 318 319 319
299 299 300 298 300 300 301 299 303 310 315 315 320 314 301 300 303 303 305 305 303 303 294 302 306 307 306 307 308 308 308 307 308 309 308 311 311 313 311 310 315 316 315 316 319 318 319
299 298 299 300 301 301 299 301 302 307 313 315 315 310 300 300 305 304 304 303 302 305 294 299 305 305 307 308 308 309 308 308 309 310 311 313 312 312 312 313 315 316 318 317 318 319 320
300 300 299 299 300 300 299 302 302 304 310 315 313 304 301 302 305 306 304 302 304 297 293 300 306 306 308 308 308 306 308 309 310 312 313 313 312 312 313 315 315 315 317 317 317 318 321
299 300 299 299 299 299 300 301 303 303 309 313 310 304 302 304 305 305 303 305 298 297 300 302 306 306 309 309 310 310 311 312 313 312 313 313 312 312 315 314 314 316 315 319 318 320 320
299 300 300 300 300 299 299 301 306 305 310 310 306 304 303 305 305 304 305 302 296 300 301 304 306 307 309 309 309 309 310 313 312 311 313 315 315 312 314 314 316 315 313 315 318 319 316
299 300 299 299 300 300 299 301 307 308 310 307 305 304 304 306 304 303 307 300 300 300 304 307 307 308 308 308 310 310 311 313 313 311 313 315 315 314 314 313 313 315 313 312 310 309 314
299 299 299 300 299 299 299 303 305 310 308 305 305 305 305 305 304 306 307 306 307 304 307 307 308 307 309 308 310 310 311 311 312 312 310 312 316 313 314 312 311 312 310 314 311 314 314
298 300 299 299 299 298 300 304 308 310 306 306 305 305 305 304 305 307 307 304 308 308 308 306 307 308 308 308 309 311 311 311 311 311 310 310 310 312 311 314 314 311 312 311 310 311 313
299 299 299 299 299 298 302 303 310 310 305 305 306 306 305 305 306 306 306 308 309 308 308 309 308 309 307 307 310 312 312 311 311 311 312 310 309 312 314 312 312 313 313 309 308 311 306
300 299 299 298 299 298 303 302 306 308 305 306 306 305 304 305 306 306 309 311 309 308 309 309 309 309 309 309 312 312 312 311 311 310 311 310 307 304 306 308 311 314 314 311 309 307 309
299 299 299 299 298 299 302 303 306 304 306 305 305 306 305 306 306 307 311 311 310 310 309 310 309 309 309 309 308 312 313 312 311 310 311 309 307 306 307 308 310 314 314 311 309 306 311
299 299 299 299 299 298 302 304 307 304 304 306 305 304 305 306 306 307 308 311 311 311 309 310 310 310 308 309 310 311 313 312 310 310 309 307 307 305 308 310 311 311 313 312 310 311 311
299 300 299 299 300 298 302 302 307 305 303 307 306 303 305 304 305 306 308 309 311 310 308 309 309 309 308 308 308 309 311 310 311 309 309 305 305 305 304 305 307 311 310 311 311 311 311
299 299 299 299 299 300 301 302 303 304 305 307 307 305 306 305 302 306 307 308 309 308 309 309 308 308 308 308 308 308 309 309 309 310 308 306 304 302 306 304 306 307 306 309 310 307 309
299 299 299 300 298 301 302 304 304 303 304 305 306 306 305 304 304 306 308 309 309 309 308 306 309 308 309 308 309 309 308 307 306 304 307 306 304 300 300 302 305 305 304 305 305 303 303
299 300 299 299 298 302 303 307 306 305 305 306 305 306 307 302 304 307 309 307 306 306 304 305 306 308 308 308 305 307 305 307 307 304 305 304 304 304 303 302 304 306 305 306 307 306 301
300 300 299 299 299 302 304 305 306 304 304 303 305 305 306 304 300 301 306 307 304 303 303 305 307 308 309 304 305 307 307 307 308 308 304 303 302 304 304 306 308 305 305 304 305 306 300
300 300 299 297 302 306 305 304 304 303 304 305 303 304 305 300 298 302 305 307 305 303 301 305 307 308 309 304 307 307 306 305 307 307 307 306 304 305 304 304 305 303 303 304 306 304 301
299 300 299 299 303 306 305 304 303 303 305 306 303 303 305 299 297 300 303 304 305 305 304 305 306 306 305 306 306 305 305 304 305 304 304 305 304 305 304 306 306 302 303 306 301 300 301
299 300 299 300 304 305 305 305 303 302 303 304 304 302 305 304 297 298 300 302 304 304 305 304 303 305 305 303 302 301 305 301 302 306 302 306 303 304 303 304 299 300 301 300 301 301 300

GFSGBSN_850_thetae_072.txt.gz
Theta_e
316 315 316 317 317 318 320 321 319 318 319 321 322 322 320 317 315 307 305 306 306 306 303 307 308 306 301 305 304 305 307 306 306 306 306 308 308 310 310 311 312 315 315 317 319 321 322
307 308 310 312 313 315 316 318 320 319 318 319 321 321 320 316 314 305 304 305 306 306 304 305 307 306 300 303 303 306 307 306 306 305 307 307 308 311 309 311 312 312 314 317 320 320 322
304 304 305 305 307 309 312 313 316 319 320 318 321 322 320 316 311 303 306 305 304 304 302 303 306 304 300 299 300 305 306 306 305 305 306 307 308 308 309 312 311 312 316 316 319 321 323
304 304 304 305 305 306 306 308 311 314 318 317 319 321 319 316 311 303 305 305 305 303 301 304 304 302 300 300 305 306 306 305 305 305 306 308 307 307 309 312 314 314 316 319 318 321 322
303 303 303 303 303 303 303 304 305 308 313 318 317 321 319 316 307 302 304 304 302 303 303 303 303 301 303 305 304 305 305 305 305 306 306 308 306 310 312 311 316 316 315 315 316 319 320
302 302 302 302 302 302 302 301 302 304 305 313 316 318 320 315 307 302 303 302 302 302 301 302 302 304 303 303 304 304 305 306 306 306 307 308 308 312 311 311 316 317 313 315 316 320 318
302 302 301 302 302 302 303 302 299 298 299 304 315 316 317 316 304 302 302 304 302 303 304 303 303 303 303 302 304 306 306 306 306 307 308 309 311 313 310 308 315 313 315 314 318 319 320
301 301 301 301 301 302 301 303 302 300 297 300 312 314 316 308 305 301 301 306 306 306 304 303 304 304 304 304 306 306 306 306 306 308 308 310 313 310 311 313 316 315 315 315 317 319 319
300 301 302 302 301 301 301 301 303 301 299 298 307 312 313 308 301 301 300 305 305 303 305 306 306 305 305 306 307 307 306 306 307 308 309 310 311 311 312 313 317 316 316 316 314 316 318
300 301 301 301 301 301 300 300 301 301 301 299 305 310 311 304 302 303 302 305 304 304 295 301 305 306 306 307 308 308 308 306 307 309 309 310 311 311 311 312 314 318 315 316 317 316 318
301 301 300 301 300 300 299 299 301 300 301 301 302 309 310 303 303 303 305 305 303 306 296 298 304 305 306 308 308 309 308 307 309 309 311 312 312 313 312 312 314 316 315 316 317 319 319
299 300 299 300 300 300 300 300 300 300 301 302 303 309 306 301 304 304 304 303 304 298 294 298 305 306 308 309 308 307 308 308 309 312 312 313 311 312 310 310 312 314 315 317 317 318 319
299 300 300 300 300 300 300 300 300 300 301 302 306 308 304 303 303 305 303 304 298 299 299 302 305 306 309 309 311 310 311 311 313 310 313 312 313 312 313 316 315 315 316 319 320 320 319
300 299 299 300 300 300 300 300 299 299 301 306 307 306 304 302 304 305 303 302 299 299 300 303 305 307 308 308 310 311 312 313 311 311 314 310 308 313 313 314 316 313 313 315 318 319 318
299 300 300 301 300 300 300 299 298 303 305 306 307 304 303 304 305 304 306 298 301 300 303 305 306 307 307 307 309 310 311 314 313 310 312 316 315 313 312 312 313 315 313 311 310 310 315
298 299 300 300 300 299 299 297 301 306 307 308 304 304 303 305 305 304 303 305 306 302 305 305 307 306 308 308 309 310 310 310 313 311 310 312 316 313 313 312 311 312 311 312 310 312 315
299 299 299 300 299 299 299 298 305 308 308 304 303 304 304 304 304 306 303 303 307 306 307 306 306 306 307 308 309 310 310 311 311 310 309 309 311 313 310 313 313 311 312 310 309 309 314
299 299 299 300 299 299 298 299 301 304 306 303 303 304 305 304 307 306 306 306 308 307 308 308 306 308 306 307 310 311 312 311 310 310 311 309 308 313 314 311 311 312 312 307 308 311 305
299 299 300 301 299 299 299 299 302 304 304 304 302 303 305 305 307 306 306 309 307 307 308 308 308 308 308 308 311 311 312 311 309 309 310 309 305 303 306 307 309 313 313 309 306 305 307
299 298 300 301 300 299 300 299 302 306 304 304 303 304 304 305 306 304 308 309 308 309 308 308 308 308 309 309 308 311 312 311 310 310 310 308 305 305 306 307 309 313 313 310 307 304 309
299 301 301 301 300 300 299 301 303 305 304 304 303 304 306 306 306 305 307 309 309 310 308 309 309 309 308 309 309 311 312 310 310 309 308 306 307 304 305 309 310 311 312 311 307 309 309
300 300 300 300 299 300 299 301 306 305 305 305 304 303 305 304 304 306 308 309 309 308 308 309 309 309 308 308 308 310 310 310 310 307 307 304 304 305 304 304 306 311 310 310 311 310 309
299 299 300 300 300 300 298 302 302 305 305 306 305 304 304 305 302 306 307 308 309 307 308 308 307 307 308 308 307 307 308 307 307 309 306 305 304 301 306 303 305 307 307 309 309 307 309
299 300 300 300 300 299 300 303 305 304 303 304 306 305 304 305 303 305 306 308 307 308 307 306 308 307 308 308 308 308 308 306 305 303 305 304 303 299 300 303 306 305 304 304 307 304 303
299 300 300 300 300 298 303 305 306 303 304 304 305 305 304 304 302 306 307 304 304 305 304 304 306 307 307 307 305 306 305 307 306 303 303 302 302 302 302 301 303 305 306 305 308 307 301
300 300 300 300 298 303 305 306 306 305 303 304 303 304 304 303 302 300 306 306 303 302 303 305 307 307 308 303 304 307 306 307 308 308 303 302 301 304 304 306 308 305 304 304 305 305 300
299 300 299 300 299 303 305 305 305 305 305 303 303 302 303 300 298 301 304 305 305 302 301 305 307 308 308 303 307 306 304 304 307 308 308 305 303 304 304 303 304 302 303 304 306 304 300
300 299 300 299 298 304 305 305 304 305 304 305 302 303 304 300 298 299 302 304 304 305 303 305 306 306 304 305 306 305 304 303 304 304 305 305 303 304 303 305 304 300 304 305 301 300 301
300 299 299 298 304 305 306 304 304 304 304 304 303 303 304 305 298 299 300 301 303 304 306 304 303 304 305 303 302 301 304 300 301 305 301 305 302 304 303 303 299 300 300 301 301 301 301

GFSGBSN_850_thetae_075.txt.gz
Theta_e
306 306 306 308 308 309 310 311 312 314 315 319 319 318 319 321 322 317 313 304 304 306 306 305 307 308 306 301 300 302 304 308 306 305 305 306 307 309 310 310 310 312 312 314 314 315 319
305 305 305 306 306 306 306 307 308 308 313 313 317 319 317 321 321 317 313 304 305 306 307 305 306 307 304 300 300 303 305 306 306 306 305 306 306 308 308 309 310 310 311 312 313 315 318
304 303 304 304 304 304 305 305 305 304 307 310 313 316 318 320 320 317 310 306 306 305 305 304 305 307 304 301 299 301 305 306 306 305 305 305 306 308 308 308 309 310 312 311 313 315 319
303 303 303 304 303 304 302 304 304 304 304 303 306 314 317 318 318 317 310 303 305 304 302 303 306 305 300 299 301 304 305 306 305 305 305 305 307 308 307 308 310 311 311 312 312 316 318
303 302 302 303 302 303 303 303 303 303 302 302 302 311 314 317 318 313 306 304 303 302 303 304 305 303 300 303 304 303 304 305 304 305 306 306 307 307 308 309 311 313 313 311 317 318 320
302 302 302 302 302 303 302 302 302 302 302 300 300 302 312 315 316 315 303 303 302 302 303 306 304 303 302 302 302 303 305 305 305 306 306 307 307 308 311 312 316 314 316 316 317 318 317
301 301 301 301 302 302 303 302 301 301 302 300 298 298 311 313 314 308 303 302 303 302 303 304 302 302 303 303 304 305 307 306 306 306 307 308 310 311 312 310 308 312 314 315 317 317 317
301 301 301 301 302 302 302 303 301 302 302 301 300 299 307 311 310 307 303 302 304 305 303 302 303 303 304 304 305 306 306 306 305 306 307 308 311 310 310 309 309 313 315 317 315 318 318
301 301 301 301 302 302 302 302 302 303 303 301 301 300 306 310 307 307 303 302 304 305 304 305 305 305 305 305 306 306 306 306 307 307 309 310 310 310 310 307 314 315 315 316 315 315 315
299 300 301 301 302 302 302 301 301 302 301 302 301 301 305 308 305 306 302 302 305 303 300 302 304 305 306 306 308 307 308 306 307 308 309 310 311 311 312 314 315 317 315 314 315 316 318
299 300 300 301 301 302 301 301 301 301 301 301 301 301 301 305 306 303 304 303 304 305 304 298 303 305 306 307 308 308 308 306 309 309 309 311 312 312 311 313 314 316 315 316 316 317 317
299 300 300 301 301 301 301 301 300 300 301 300 300 301 302 305 305 303 304 305 303 302 300 298 305 305 308 309 309 307 308 307 309 310 311 312 311 312 310 310 311 314 316 316 316 318 319
298 299 300 301 301 301 301 300 300 300 300 300 301 303 303 305 304 303 303 303 303 302 299 302 305 305 308 309 310 310 309 310 311 308 313 311 312 313 309 316 315 315 316 318 318 317 320
298 299 300 299 300 301 302 299 299 299 300 303 301 303 305 305 303 303 303 303 304 300 300 302 305 306 308 309 310 311 312 314 311 310 312 307 312 313 313 314 316 314 314 314 320 319 322
299 300 300 300 301 301 300 299 299 300 305 305 305 304 305 302 303 304 304 307 303 301 302 305 306 307 307 307 310 310 311 313 312 311 311 316 316 313 312 312 313 315 314 310 313 313 318
299 300 300 300 301 300 299 300 300 299 306 305 305 303 303 302 304 304 305 307 305 301 304 305 306 306 307 308 309 309 309 310 313 311 310 312 317 313 313 311 311 312 310 312 313 318 319
299 299 300 301 300 299 299 300 301 300 304 305 303 302 301 303 304 304 306 304 306 304 306 305 305 305 306 307 309 309 310 311 310 310 309 308 311 314 310 312 312 311 311 309 309 311 317
300 299 300 301 299 300 299 300 300 302 303 304 303 304 303 303 304 305 305 304 307 306 307 307 306 306 306 306 310 311 311 310 309 309 310 309 310 312 313 309 309 311 311 306 312 311 306
299 299 299 299 299 300 300 301 299 304 303 304 301 302 303 304 307 307 306 307 306 307 307 307 308 308 307 308 310 310 311 310 309 309 309 308 306 305 310 309 309 312 311 307 305 305 307
299 299 299 300 300 300 300 300 301 305 304 304 302 303 302 304 305 304 308 307 307 308 308 307 307 307 307 308 307 311 311 310 309 310 309 306 305 306 308 309 309 313 312 308 307 308 309
299 299 300 299 300 300 300 298 302 304 305 304 302 304 304 305 306 304 306 307 308 309 308 308 308 307 307 309 308 311 310 309 309 308 306 305 307 303 304 306 310 311 312 311 308 308 309
298 299 299 300 300 300 300 298 302 304 304 304 303 303 304 304 304 304 307 307 308 307 308 308 308 308 306 307 307 309 310 309 309 306 306 303 304 304 303 304 307 310 309 310 310 309 308
298 299 299 300 300 300 299 302 304 303 305 304 304 304 304 304 303 305 308 307 308 306 307 306 306 306 306 307 307 307 308 306 305 307 305 304 303 301 306 302 305 307 306 309 309 307 307
299 299 300 300 300 299 300 304 304 304 305 304 305 304 304 305 304 305 307 307 307 306 306 305 307 306 307 307 307 307 306 305 304 303 303 304 302 299 301 303 307 304 303 303 307 305 304
298 300 300 300 300 299 304 305 306 305 305 305 305 304 304 304 302 306 307 304 304 304 303 304 306 307 306 307 305 306 305 307 305 301 301 301 302 302 304 302 304 304 305 306 307 307 302
298 300 300 299 299 301 305 306 306 304 305 305 302 303 304 303 301 299 304 305 302 302 302 305 306 307 308 301 303 306 306 306 308 307 303 302 300 304 304 306 308 304 304 303 304 305 300
299 300 299 300 299 303 305 306 305 304 304 302 302 303 304 300 298 300 303 304 304 302 301 304 307 308 307 303 306 306 303 304 307 308 307 304 302 304 304 304 304 301 302 303 307 304 300
299 300 298 299 299 304 306 305 304 304 304 302 303 303 304 301 297 299 301 303 304 305 303 305 305 307 303 305 305 304 304 302 303 303 305 305 303 304 303 305 303 300 303 305 301 300 301
299 298 299 298 302 305 306 305 304 305 304 303 303 304 305 304 298 298 299 301 303 304 306 304 304 304 304 302 301 300 303 299 300 304 300 304 302 303 303 303 299 300 301 302 302 302 301

GFSGBSN_850_thetae_078.txt.gz
Theta_e
305 305 305 305 305 305 305 306 305 305 306 308 308 312 315 318 318 320 320 318 313 304 307 307 305 307 308 306 305 304 305 310 307 305 307 307 308 308 309 308 309 311 311 312 311 313 315
304 304 304 304 304 304 304 304 305 305 305 306 307 307 312 314 316 319 319 317 309 305 306 307 304 306 307 306 302 300 303 306 307 306 307 307 307 307 308 308 309 309 311 311 311 313 314
304 303 303 303 303 303 303 303 303 304 305 304 304 305 309 314 316 319 317 311 308 304 305 305 303 306 307 306 301 300 303 305 306 306 307 307 307 307 308 308 308 309 311 311 311 311 315
304 303 303 303 303 302 303 303 303 302 302 305 304 305 307 313 317 317 315 314 305 305 303 302 303 307 306 300 300 300 303 304 305 305 305 306 307 307 308 308 308 310 309 314 312 312 312
303 303 303 303 302 302 303 303 303 302 302 303 303 302 301 312 315 315 314 306 304 303 302 304 305 305 304 301 302 304 304 305 305 305 305 307 307 308 308 309 310 311 315 313 312 311 313
303 302 302 302 302 302 302 302 302 302 302 302 302 302 298 309 314 314 312 305 303 302 303 304 305 303 301 303 302 302 303 305 306 307 307 307 308 309 308 311 313 317 313 312 312 313 314
302 302 301 301 301 301 302 302 301 301 302 302 302 301 300 307 312 311 310 304 303 303 305 305 305 303 302 302 304 304 306 306 307 307 308 308 309 310 310 310 312 310 314 315 311 312 316
301 301 301 301 301 301 302 302 302 301 302 302 302 302 301 307 309 309 306 303 303 305 305 303 304 303 303 304 306 306 306 307 307 308 308 309 310 309 310 311 312 312 314 318 317 317 317
301 300 301 300 300 301 301 301 302 301 301 301 301 301 301 303 308 307 307 304 303 305 306 305 303 303 305 305 307 307 307 307 308 308 308 310 310 310 312 310 313 312 317 317 317 316 316
301 300 300 300 300 301 301 301 302 301 301 300 300 301 301 302 306 307 306 303 303 304 308 306 306 306 306 307 308 307 307 307 308 308 309 309 310 311 313 311 314 316 315 314 313 316 323
300 299 299 300 301 301 300 301 301 301 300 300 300 300 300 301 304 305 306 303 304 304 312 304 306 306 306 308 309 308 308 306 309 309 308 313 312 313 314 312 315 317 315 314 315 317 320
299 299 300 300 301 301 301 300 301 299 299 299 300 300 301 302 302 304 304 304 303 308 309 303 306 307 308 309 309 307 308 307 308 309 310 311 312 313 312 312 314 315 317 317 317 318 323
299 299 300 300 300 300 300 300 300 300 300 300 301 301 301 302 302 303 304 303 309 310 301 305 307 307 310 309 311 310 310 310 312 314 317 313 313 310 309 316 315 316 318 321 322 324 324
299 299 300 300 301 300 300 300 300 300 300 300 300 302 301 302 303 304 303 306 310 306 304 304 307 308 311 311 308 310 311 311 311 312 313 315 318 311 313 315 318 317 316 319 321 325 323
298 300 300 300 300 300 300 300 300 301 301 304 305 304 302 303 304 303 304 310 310 306 304 307 308 310 310 310 311 310 310 313 312 312 315 318 316 313 313 314 315 317 317 313 319 318 318
299 300 300 300 301 300 300 300 301 300 304 304 303 303 303 301 304 302 306 309 307 302 305 308 310 309 311 311 312 312 312 311 313 313 311 314 317 315 314 312 313 314 312 318 319 321 320
298 300 300 301 301 300 300 300 301 302 304 303 303 301 303 302 302 303 308 308 307 304 306 307 308 309 310 311 312 312 312 311 311 312 311 312 314 316 314 316 316 315 315 313 314 315 318
299 300 300 300 300 300 300 301 300 303 302 304 303 304 300 303 303 304 308 307 307 308 308 308 309 308 310 311 313 313 314 312 310 311 313 312 315 317 316 312 311 314 314 312 317 314 312
299 299 300 300 301 300 300 300 305 303 303 303 301 302 303 303 307 307 308 308 307 308 308 309 310 310 308 311 313 313 313 311 311 312 312 311 314 318 317 315 313 316 313 311 311 313 312
300 299 299 300 300 300 300 301 305 304 304 304 303 304 301 302 305 307 309 308 308 308 309 308 309 309 310 311 312 313 313 312 310 311 308 309 311 312 316 314 314 316 314 312 313 317 314
299 299 300 301 301 301 299 302 304 305 305 305 303 303 303 307 307 306 307 308 308 309 309 308 310 310 310 312 312 313 312 311 310 308 309 311 313 309 310 310 313 314 314 314 314 311 314
299 299 300 302 300 300 299 303 304 304 305 304 303 305 303 306 306 305 308 308 309 309 309 310 310 309 310 310 310 312 312 311 312 311 310 309 313 309 313 309 312 313 313 313 313 312 312
300 299 300 301 300 299 301 304 304 304 305 304 304 304 305 305 306 308 309 309 309 309 308 307 309 310 310 308 308 308 309 308 308 311 310 310 311 313 314 308 310 314 309 312 312 311 311
299 299 300 300 300 300 303 305 304 305 305 304 305 304 305 306 307 307 308 308 309 308 310 306 308 310 307 306 307 308 308 308 308 307 306 310 309 309 314 310 315 308 306 307 308 309 308
299 299 301 300 300 301 305 306 305 305 304 305 305 304 304 306 306 307 307 307 307 306 307 307 306 307 306 306 310 311 311 311 310 307 307 307 308 310 314 313 308 307 307 308 309 310 306
299 299 300 299 299 305 306 306 306 305 304 304 304 305 304 307 303 298 305 307 309 308 308 307 306 306 307 308 309 310 311 309 311 310 307 308 308 311 310 311 310 308 306 305 306 310 305
299 300 298 299 304 305 306 306 305 305 303 304 304 305 305 302 298 300 304 305 304 306 308 307 307 308 307 310 310 310 310 306 310 310 310 311 310 311 311 312 310 305 305 304 309 308 303
298 298 298 299 305 305 305 305 304 304 302 304 305 305 306 302 298 300 301 302 304 305 310 307 308 309 309 310 310 309 309 307 308 306 308 310 311 311 309 311 309 303 305 308 306 301 303
298 298 298 300 305 306 305 305 304 303 302 304 306 305 306 305 300 300 300 302 303 304 305 305 306 306 306 309 307 307 307 306 307 309 304 309 308 309 309 309 303 302 304 303 303 303 302

GFSGBSN_850_thetae_081.txt.gz
Theta_e
305 305 304 304 305 305 304 304 304 304 305 305 305 306 307 309 313 316 319 320 320 317 310 305 307 305 308 309 308 306 306 310 310 308 307 306 307 308 309 308 308 310 310 310 311 313 311
305 305 305 304 304 304 303 304 304 303 302 305 304 305 305 306 311 316 317 318 318 312 306 306 307 304 308 309 306 304 305 306 308 308 307 307 307 307 307 308 309 308 308 309 310 310 312
304 305 304 304 304 303 304 304 304 303 303 303 304 304 304 303 311 315 318 318 315 312 305 306 306 306 307 308 305 305 302 306 307 307 307 307 307 307 307 307 307 308 309 309 310 310 311
304 304 304 304 303 303 303 303 303 303 302 303 303 304 305 301 311 315 316 316 313 306 305 304 304 307 308 306 303 303 302 304 305 306 307 307 306 307 307 307 308 309 309 311 311 312 312
304 303 303 302 302 302 303 303 302 303 302 300 302 302 301 301 308 313 316 312 308 305 303 304 306 308 308 302 302 304 306 306 306 306 306 306 307 308 308 309 309 310 311 312 312 312 313
304 304 301 303 302 302 302 302 303 302 302 301 301 301 302 301 307 312 311 310 305 303 305 307 306 307 304 305 305 304 305 306 307 307 307 308 308 308 309 309 310 312 315 313 314 313 313
303 303 302 301 301 302 302 301 302 302 302 301 301 302 302 301 306 310 309 305 305 305 306 307 308 305 303 304 304 306 307 308 308 307 308 308 309 311 310 310 310 311 313 314 314 313 313
302 301 302 301 300 301 301 301 301 301 301 300 301 300 301 301 302 307 306 306 307 306 307 306 305 304 305 305 307 307 307 308 307 308 308 309 310 309 310 310 311 311 313 315 314 313 314
300 301 301 301 300 301 301 301 301 301 301 301 300 300 300 301 302 306 307 305 305 306 308 307 305 305 306 306 308 308 308 308 308 308 308 310 310 309 311 312 314 313 312 314 315 316 315
299 301 301 300 300 301 301 301 301 300 300 300 299 299 300 301 303 306 306 306 305 305 311 309 307 306 307 308 308 309 308 309 309 309 310 310 310 312 313 311 311 313 313 314 316 319 321
299 300 301 301 301 301 301 301 301 300 300 300 299 299 300 300 303 302 306 305 304 305 317 308 307 306 308 308 309 309 308 308 310 310 309 313 312 314 315 313 315 316 315 316 315 319 319
299 301 301 300 300 301 300 301 300 300 300 300 300 300 300 301 302 302 304 303 303 310 315 306 306 308 309 309 310 309 309 308 309 310 310 310 312 313 313 314 315 314 315 316 317 321 323
298 300 301 300 301 302 302 300 300 300 301 301 301 301 301 301 302 303 303 302 310 315 304 306 308 309 310 310 311 309 309 311 313 315 312 313 313 310 310 314 314 317 318 323 327 327 324
299 300 300 300 301 301 300 301 300 301 301 301 301 301 302 302 301 303 302 304 314 310 305 306 309 310 312 311 309 311 311 313 311 312 315 318 319 313 313 316 318 319 317 321 326 327 322
299 299 300 301 300 300 301 301 301 301 304 304 305 303 302 301 301 303 302 310 313 308 305 309 310 311 312 312 312 311 313 313 313 313 317 318 317 313 315 315 316 318 319 316 320 318 320
299 300 300 301 300 301 301 301 302 302 303 304 304 304 302 302 303 303 304 311 307 305 308 310 312 311 312 313 314 314 314 313 314 314 313 315 319 316 315 314 315 315 314 320 321 323 322
299 300 301 300 301 301 300 303 304 303 303 304 303 303 303 303 302 302 310 309 306 306 309 310 310 311 312 313 313 314 313 313 312 313 312 313 316 316 316 317 317 317 316 315 316 317 320
299 300 301 301 301 301 300 304 304 304 304 303 303 302 302 302 302 304 309 309 307 309 309 310 310 311 312 312 313 314 315 314 312 313 314 313 316 318 317 314 313 316 314 314 319 318 317
299 300 300 301 301 301 303 304 305 304 304 303 301 300 301 303 308 309 309 308 309 309 310 310 311 311 311 313 315 314 314 312 312 313 314 312 316 321 319 317 316 316 315 315 315 317 315
300 300 301 301 301 301 302 304 305 305 304 304 304 304 303 303 306 309 309 308 309 310 311 310 311 311 312 314 314 315 315 313 312 312 309 311 313 315 319 317 316 317 315 314 316 319 315
300 300 300 301 301 300 302 304 304 305 305 305 304 305 304 308 308 310 309 309 310 311 311 311 311 311 312 314 314 314 314 313 312 310 311 314 314 313 313 313 315 315 315 315 315 314 315
300 300 300 301 301 301 303 303 304 305 305 304 306 307 306 306 306 310 309 309 310 311 311 311 311 311 312 313 314 314 312 313 313 313 312 313 315 312 316 312 314 314 314 315 314 314 313
300 300 300 300 301 301 304 304 304 305 304 305 305 305 307 307 309 310 309 309 310 311 310 310 311 312 312 311 311 311 311 310 311 312 312 313 314 317 316 312 312 315 310 313 314 313 313
300 300 301 299 300 305 305 305 304 305 305 305 305 306 308 309 310 309 309 310 310 311 311 310 310 312 308 308 310 311 311 311 310 310 310 312 312 314 317 314 317 309 308 309 310 312 312
300 300 298 299 305 306 306 306 305 304 305 305 305 306 308 309 309 309 310 310 310 309 310 309 308 308 307 308 312 313 312 313 312 310 310 310 311 312 316 314 310 309 309 310 311 312 310
300 299 298 303 305 306 306 305 305 304 304 304 304 306 308 309 306 301 309 310 311 311 311 308 307 308 308 310 310 312 313 311 312 311 310 311 311 313 312 312 311 310 308 307 308 311 308
300 298 299 305 305 305 305 305 305 304 303 304 304 306 307 306 300 301 308 308 308 310 311 309 309 310 309 311 311 312 311 309 311 311 311 312 312 313 312 313 311 308 307 306 311 311 307
299 298 300 305 305 305 305 305 304 302 304 305 306 306 307 304 300 301 302 305 307 309 311 310 310 311 311 311 311 310 310 310 310 309 310 311 312 312 312 313 312 306 306 309 308 305 306
297 298 299 305 305 304 304 303 302 302 304 306 306 306 307 306 301 302 302 303 304 304 306 307 309 310 310 310 310 310 309 309 309 310 307 310 310 310 310 311 306 306 307 305 305 306 305

GFSGBSN_850_thetae_084.txt.gz
Theta_e
306 305 305 306 305 305 305 305 304 305 305 306 305 305 304 306 305 307 310 316 319 319 318 316 306 306 306 310 309 308 305 310 307 308 307 307 306 307 308 308 308 309 310 309 310 310 311
305 306 305 305 304 304 304 304 304 304 305 304 305 305 304 305 304 307 310 315 318 317 317 314 306 306 308 308 307 307 306 309 309 309 307 307 307 307 307 307 308 308 308 308 308 308 309
305 305 304 304 303 304 304 303 304 304 304 304 304 304 303 304 304 307 313 317 317 317 315 309 306 305 308 308 305 305 305 306 307 308 307 307 307 307 307 307 308 308 309 309 309 308 308
303 304 304 304 304 302 303 303 303 303 304 303 303 303 302 302 301 304 312 316 316 315 310 307 306 307 308 308 308 305 304 304 305 306 306 307 307 307 307 307 307 308 309 309 308 309 309
303 303 304 303 303 303 303 303 303 302 303 303 302 303 301 302 303 306 312 312 314 311 305 303 306 307 309 307 303 303 303 305 306 306 306 306 306 306 307 308 309 308 309 309 310 310 311
304 302 304 303 303 302 302 302 303 301 302 302 302 301 302 302 302 308 311 309 307 307 305 307 307 307 307 305 305 305 306 306 306 307 306 307 307 308 309 309 309 308 310 312 313 312 313
304 302 302 302 301 302 302 303 301 302 301 301 301 300 300 302 302 304 309 305 307 306 307 308 307 306 305 305 304 306 307 308 308 307 307 308 309 308 308 308 308 308 309 311 311 311 313
304 303 300 302 302 301 302 301 302 302 301 301 301 300 300 300 302 301 306 306 306 306 308 307 306 305 305 306 308 308 308 308 308 308 308 309 311 308 308 310 311 310 311 312 312 312 313
302 302 300 302 301 301 301 302 301 302 301 301 300 300 299 300 301 302 302 306 305 306 308 308 307 306 305 306 308 309 308 308 308 308 308 310 309 309 309 311 313 311 312 314 313 312 314
301 301 300 302 301 301 301 302 301 301 301 301 300 300 299 299 301 304 305 305 305 305 309 308 307 306 307 308 309 309 309 309 309 309 311 311 310 310 311 313 312 313 312 313 313 314 315
300 299 301 301 301 301 301 301 301 301 300 300 300 299 299 300 303 303 304 305 305 305 312 309 307 307 307 309 309 309 308 307 309 310 310 309 311 312 315 314 312 313 315 311 315 317 318
299 300 302 301 302 301 301 301 301 301 301 301 301 301 300 300 301 302 302 304 304 308 313 306 307 308 309 309 310 310 309 308 309 310 310 311 309 312 313 313 314 314 316 315 315 318 319
299 301 301 301 301 301 302 301 302 302 302 302 301 302 301 301 303 304 302 303 307 311 305 306 307 308 310 310 310 309 309 310 313 314 312 313 313 312 311 314 315 316 318 321 321 321 321
299 300 301 301 301 301 302 302 303 303 303 303 303 302 301 302 303 303 303 304 309 306 307 307 309 310 311 311 310 312 312 312 312 311 315 316 318 313 313 312 319 316 317 320 324 324 320
300 300 301 301 301 301 303 303 303 304 304 304 304 302 302 302 302 303 302 306 310 308 307 309 310 312 312 311 311 311 312 314 313 313 315 317 317 314 313 315 315 317 319 316 322 318 320
301 301 302 302 301 301 305 306 304 304 303 304 303 302 301 302 301 303 303 309 306 305 308 310 311 312 312 312 313 313 314 312 313 314 312 315 318 316 315 315 316 315 314 318 321 325 323
301 301 302 301 301 301 305 305 303 304 304 302 303 303 302 301 303 303 307 308 305 307 309 310 311 312 313 313 314 315 313 313 313 313 312 313 317 317 316 316 316 316 315 314 314 315 319
300 302 302 301 301 301 304 305 305 303 303 303 303 303 302 302 303 303 307 308 307 309 310 310 310 312 313 313 314 315 315 314 313 313 314 313 315 317 316 314 314 314 314 313 315 316 315
300 300 300 301 301 302 304 305 305 304 303 302 301 301 302 303 308 307 308 309 310 310 311 311 311 311 312 313 315 314 314 312 313 313 312 312 313 317 316 315 315 315 313 314 315 316 313
301 301 301 301 301 303 304 304 304 305 304 304 304 304 303 304 306 307 309 310 310 311 311 311 311 312 313 314 314 314 314 313 312 312 310 311 312 313 314 315 314 314 313 313 314 312 313
300 301 300 301 302 303 304 304 304 305 305 304 306 306 305 308 309 310 309 311 312 311 311 311 311 311 312 314 314 314 313 313 312 311 311 313 312 309 312 314 314 314 314 313 312 311 312
299 300 301 301 301 304 305 303 305 305 304 306 307 307 306 307 308 309 308 311 311 311 311 311 312 312 312 313 313 313 313 312 312 312 312 312 311 312 309 312 312 311 311 313 313 313 312
298 300 301 300 305 306 305 304 304 304 305 305 306 306 308 308 309 308 309 310 311 311 310 310 311 311 311 310 311 311 311 310 310 311 311 312 311 310 312 311 311 312 309 310 313 312 311
299 300 299 304 306 306 306 305 305 305 306 306 307 308 309 309 309 309 310 310 311 311 311 310 310 311 308 308 310 311 311 311 310 309 309 311 311 310 310 312 311 309 308 308 309 311 311
298 298 300 305 305 306 306 305 305 305 305 305 307 308 309 308 309 309 309 310 310 310 310 309 308 308 308 309 311 312 311 312 311 310 309 308 310 308 309 309 309 308 309 309 309 311 309
299 297 302 305 305 306 304 305 304 304 304 305 306 308 309 308 305 303 309 310 310 310 309 308 309 308 309 309 310 311 310 310 311 311 310 310 310 310 310 311 311 309 308 307 308 309 307
298 297 304 304 305 305 305 305 304 304 304 304 306 308 308 305 303 303 306 307 309 310 309 310 310 311 310 310 309 310 309 308 310 310 309 310 309 310 310 310 310 308 307 307 310 308 307
298 297 305 305 305 305 305 303 303 304 304 305 306 308 308 305 303 303 305 306 308 309 310 310 309 310 311 310 309 308 308 308 308 308 309 309 309 309 309 310 308 307 306 309 306 305 306
297 297 304 305 305 304 303 302 303 305 306 306 306 307 307 307 304 304 304 305 306 306 308 308 309 310 309 309 308 307 307 306 307 308 306 307 308 308 308 308 306 306 307 305 305 306 305

GFSGBSN_850_thetae_087.txt.gz
Theta_e
306 306 305 306 306 306 304 303 305 304 305 305 305 305 305 305 304 306 306 305 312 315 317 318 317 308 305 308 309 308 305 309 309 306 307 307 306 307 307 307 307 307 309 309 309 308 308
305 304 304 305 305 305 305 303 304 304 304 304 305 304 304 305 304 304 304 306 310 316 315 317 315 307 306 309 309 309 306 306 307 305 306 306 306 307 307 306 306 307 307 307 307 307 307
305 305 305 304 304 304 304 304 303 303 304 303 304 304 303 302 303 302 302 309 314 316 315 316 313 307 305 308 306 306 307 306 308 309 307 307 307 306 306 306 306 307 307 307 306 308 308
306 305 305 303 305 303 303 303 303 304 303 302 303 303 302 302 302 303 306 311 313 315 316 313 307 307 307 307 306 305 303 305 307 307 307 307 307 307 306 306 306 306 306 306 307 308 308
307 307 305 303 302 302 302 302 303 304 302 301 302 302 302 301 302 303 310 313 311 311 313 308 306 307 308 308 308 306 303 303 305 305 306 306 306 306 306 306 305 307 301 306 307 309 310
307 307 303 301 301 302 303 303 301 301 302 302 302 301 302 300 301 304 311 311 308 305 304 306 305 306 305 305 304 303 303 305 306 306 306 306 306 307 307 306 302 301 302 307 309 309 310
306 303 300 301 302 302 301 301 302 302 302 302 302 301 301 301 300 302 304 305 305 304 308 309 307 307 306 305 305 305 305 305 306 306 305 307 306 307 305 306 306 306 306 307 307 308 311
304 301 302 301 302 301 301 302 301 301 301 302 301 301 301 300 300 301 302 304 304 305 307 308 307 305 305 305 306 306 307 308 307 306 306 308 307 306 306 307 308 309 311 309 309 309 312
301 302 301 302 301 301 302 302 303 303 302 302 301 301 300 299 300 302 302 304 303 305 307 308 307 306 305 306 308 308 307 308 307 307 307 306 307 308 308 308 310 310 312 310 310 311 311
301 301 302 302 302 302 302 302 303 303 302 301 301 301 300 299 301 303 303 303 304 306 308 308 307 306 306 306 309 308 308 308 309 309 309 309 310 310 310 310 311 314 312 312 313 315 312
300 300 301 301 302 302 302 302 302 303 302 301 300 300 299 299 302 303 303 304 304 304 309 307 307 306 306 309 309 309 308 307 308 309 309 306 310 310 312 313 312 313 312 314 313 314 317
300 301 302 302 302 302 303 304 304 304 302 302 302 300 300 300 301 301 302 304 305 305 307 307 307 308 308 309 310 309 309 308 308 309 309 309 309 309 312 312 312 313 315 314 315 317 317
300 301 302 301 302 303 306 304 304 304 303 303 302 302 301 301 303 303 302 305 299 302 304 307 307 308 309 310 309 308 309 308 309 313 311 310 312 312 311 312 314 314 315 319 319 318 321
301 301 302 301 302 304 305 304 304 304 304 304 303 302 301 303 303 302 304 300 306 307 305 306 308 309 310 311 310 310 310 309 309 311 312 313 308 313 313 312 316 317 316 317 322 320 319
301 302 301 302 302 303 305 305 303 303 304 304 302 302 302 302 302 302 303 304 307 306 307 309 310 311 311 311 309 310 310 313 313 312 315 314 315 315 313 314 315 315 318 315 320 318 320
301 301 301 302 302 303 305 304 303 303 303 302 301 301 302 302 302 303 302 308 306 304 308 310 310 310 310 311 310 311 313 312 313 313 311 315 316 314 315 315 315 314 314 316 317 322 323
302 302 301 301 302 303 305 304 304 302 302 302 302 301 302 301 303 303 304 307 307 309 309 311 310 311 309 312 312 314 311 312 312 313 312 312 316 316 315 315 315 315 314 313 314 315 318
300 300 301 301 302 304 304 304 303 303 302 302 302 302 302 303 304 303 306 306 306 310 310 310 309 311 311 312 313 314 314 314 313 312 313 312 313 311 315 313 312 313 313 311 312 314 311
300 299 300 302 302 304 304 304 304 303 303 302 302 302 302 303 302 304 307 309 310 310 310 310 311 310 311 313 313 313 313 312 312 312 311 310 311 311 312 310 311 313 311 311 313 309 311
299 299 299 301 303 305 304 304 304 304 303 304 303 303 303 305 305 305 307 309 310 310 310 310 310 311 311 313 312 313 313 312 312 311 310 310 309 310 310 312 312 313 312 311 309 308 310
298 299 297 303 305 305 304 304 304 305 304 305 305 301 304 301 305 305 307 310 310 311 310 309 309 310 311 313 312 312 312 312 311 311 310 309 309 306 310 313 311 310 311 311 311 310 309
298 297 300 305 305 305 304 305 304 305 305 306 305 305 306 305 307 307 307 309 310 310 309 310 310 309 309 309 309 311 311 310 311 309 311 309 307 310 306 310 309 308 308 310 311 311 309
298 297 303 305 305 305 305 305 305 305 305 306 306 306 307 307 305 305 307 309 310 310 309 309 309 309 309 308 307 308 310 309 309 309 308 310 307 304 307 309 310 308 307 309 311 309 311
298 298 304 305 306 306 304 305 305 305 306 307 307 307 307 305 305 306 309 309 309 308 309 308 308 308 308 309 310 311 310 309 308 307 307 309 307 303 304 308 307 307 307 307 309 310 309
298 298 304 305 305 305 305 305 305 305 305 307 307 308 308 304 305 307 308 308 309 309 308 308 308 308 308 309 308 309 308 310 310 309 308 306 306 305 306 304 307 307 308 308 310 309 307
298 298 304 304 305 304 304 305 305 305 305 305 306 308 308 305 303 302 305 309 306 307 306 309 309 310 309 307 306 308 308 309 309 306 307 307 306 306 307 309 309 307 307 307 307 307 306
298 298 303 304 305 304 304 304 304 305 305 304 307 308 307 305 304 304 304 305 308 307 305 308 309 309 309 305 306 307 305 307 308 308 307 306 306 307 306 307 307 307 306 306 308 305 306
298 297 303 304 305 305 304 302 303 304 305 306 307 308 308 306 305 305 305 306 307 308 306 309 308 308 307 306 306 305 305 305 306 306 307 307 305 307 305 307 305 306 305 307 305 305 306
297 297 304 305 305 304 303 303 303 304 306 306 306 307 307 307 305 304 305 305 305 306 307 307 308 307 307 306 304 303 305 303 304 304 305 304 304 306 304 305 304 306 306 306 306 306 305

GFSGBSN_850_thetae_090.txt.gz
Theta_e
307 306 306 306 305 305 305 304 305 304 305 305 304 305 306 305 305 304 305 305 305 308 315 317 317 317 308 307 307 308 305 307 307 307 308 307 307 308 307 306 306 306 307 308 307 307 307
308 307 308 307 305 304 305 304 304 304 304 304 304 305 305 304 304 304 303 304 305 307 314 317 315 310 307 308 308 309 307 308 308 305 306 306 306 307 307 306 306 306 306 306 306 306 307
309 309 308 307 304 304 304 304 303 303 304 303 303 303 303 303 304 303 303 302 302 308 314 316 315 309 306 309 309 310 306 306 307 305 306 307 307 306 306 305 306 306 305 305 305 306 306
308 310 308 306 303 302 302 302 302 303 302 302 301 302 302 302 302 301 301 306 305 311 314 315 314 307 306 306 307 306 308 306 308 308 307 307 306 307 306 306 305 305 304 306 305 307 306
304 305 305 303 303 302 303 302 302 301 301 302 303 302 302 302 300 301 308 312 312 313 314 312 306 307 307 307 305 305 304 305 306 307 306 306 306 305 305 305 301 304 300 305 306 307 307
304 303 303 303 302 302 301 301 302 303 302 302 302 302 302 302 300 302 307 311 312 311 309 307 307 308 305 306 305 306 303 304 305 305 306 306 306 304 304 305 299 301 305 304 306 308 307
303 302 302 302 303 303 302 303 303 302 302 301 302 302 302 301 301 302 303 304 308 305 307 308 307 307 306 305 306 304 303 305 306 306 304 307 304 306 304 304 303 303 304 306 306 306 308
302 302 302 302 303 303 302 303 302 302 303 302 301 301 301 300 299 301 302 301 304 305 304 308 306 305 304 304 305 305 305 306 307 305 305 307 307 305 305 305 306 306 308 308 308 308 311
300 301 302 303 302 303 303 302 303 302 303 302 301 301 301 299 299 303 302 301 304 304 307 306 306 305 305 307 307 306 307 307 307 306 305 304 305 306 306 306 307 308 309 310 310 310 310
302 301 302 302 302 303 304 305 305 304 302 302 301 301 300 299 302 303 303 303 303 305 308 308 306 306 305 307 309 308 307 308 308 307 307 306 307 307 307 309 309 312 310 312 314 313 314
301 302 302 302 303 304 305 305 304 304 304 302 301 300 299 300 302 303 304 302 304 305 309 306 306 305 305 309 308 308 308 308 307 308 307 303 309 309 311 310 311 312 312 314 314 313 313
302 302 301 301 304 304 305 304 303 304 304 302 301 300 300 299 300 302 302 304 304 304 307 308 306 307 308 309 310 308 307 307 308 308 307 307 308 309 310 312 312 312 313 315 314 315 315
302 302 302 302 304 305 305 303 304 304 302 302 302 301 300 301 302 302 304 305 300 302 304 306 309 306 309 310 309 308 309 307 308 310 308 309 311 311 311 312 313 313 315 317 318 313 318
302 303 301 303 304 305 305 304 304 303 303 303 302 301 302 302 302 303 304 299 299 306 304 306 308 308 309 310 309 308 309 307 307 310 312 314 310 313 312 313 315 316 314 318 321 320 315
302 303 302 303 304 304 304 304 304 303 303 302 300 301 301 302 302 302 302 301 302 305 307 308 310 310 310 311 308 309 309 312 312 312 313 315 313 312 313 313 314 316 318 315 320 316 314
302 302 302 303 304 304 305 303 302 301 301 301 302 301 301 302 303 303 300 305 305 306 308 309 310 308 309 310 309 309 311 311 313 313 311 314 316 314 314 314 314 315 314 317 317 320 321
298 301 302 303 304 304 304 304 301 301 301 301 301 301 301 302 303 304 304 306 307 309 309 310 310 309 308 311 311 312 310 311 311 312 310 311 315 313 315 315 315 315 315 314 313 316 320
297 301 302 304 305 304 304 303 303 301 302 302 301 301 302 304 303 302 306 306 306 308 309 309 308 310 310 310 312 313 313 311 312 312 313 311 311 311 314 312 312 312 313 310 313 313 309
297 298 302 305 305 304 304 304 303 302 302 302 302 302 303 304 300 301 305 308 308 309 309 310 310 310 310 312 312 312 312 312 312 311 311 309 310 311 311 308 310 311 310 310 310 307 309
297 300 304 305 305 304 304 304 303 302 303 304 303 299 304 305 305 304 305 308 309 310 309 309 310 310 311 312 311 312 312 312 311 311 310 309 308 309 307 311 310 311 310 310 308 306 310
297 303 304 305 304 304 304 304 304 304 304 305 304 298 303 302 304 304 304 308 309 309 309 309 309 309 311 312 311 311 310 311 311 310 310 308 309 305 309 311 309 308 309 310 308 309 309
297 304 305 305 305 304 304 304 304 304 304 306 305 305 305 305 306 304 305 308 309 309 308 309 309 308 307 308 307 309 308 309 310 308 309 307 306 308 305 309 307 307 307 309 309 309 309
297 303 304 305 306 304 305 305 305 305 305 306 306 307 307 305 303 305 307 309 309 309 308 307 308 308 308 307 307 308 308 307 307 309 307 308 305 303 305 307 308 306 306 309 310 309 309
298 301 304 305 306 304 305 305 304 305 306 307 307 307 306 305 304 306 308 308 308 308 309 307 308 308 308 308 310 309 309 309 308 307 305 307 306 301 302 305 303 304 306 307 308 309 308
298 299 304 304 305 305 305 305 305 305 305 306 307 307 307 303 303 305 307 307 308 308 307 307 308 308 309 309 306 306 306 307 308 307 307 305 304 303 305 303 303 306 306 308 309 309 306
298 298 304 304 304 305 305 305 305 305 305 306 306 308 307 305 303 303 303 307 305 305 304 308 309 309 309 305 304 308 307 308 307 305 303 305 303 305 304 308 308 306 306 306 306 305 305
298 297 304 304 304 304 305 305 305 305 305 305 307 308 307 306 304 304 303 304 306 306 304 306 308 308 309 303 305 306 304 305 307 307 306 305 304 306 305 305 305 305 305 306 307 302 305
298 296 303 304 304 304 303 304 304 304 304 304 306 307 307 306 305 305 305 305 306 307 305 307 307 307 305 305 305 304 304 303 304 304 306 304 303 305 304 306 303 305 305 304 302 305 306
297 296 301 304 304 303 303 304 304 305 306 306 306 306 307 306 305 305 305 306 306 306 306 306 306 306 306 304 302 301 304 300 302 303 303 304 303 304 303 303 302 305 305 306 305 305 305

GFSGBSN_850_thetae_093.txt.gz
Theta_e
308 308 309 310 308 307 306 305 305 304 304 304 304 304 304 306 306 305 304 303 304 305 307 314 317 317 315 309 310 308 311 314 311 306 310 308 309 308 307 306 306 306 306 306 306 306 306
306 304 303 304 305 304 304 303 303 303 303 302 302 303 304 305 305 303 304 304 303 305 307 314 316 316 313 309 309 306 306 308 306 308 307 306 306 306 306 305 305 305 306 305 305 305 305
306 303 304 304 303 305 302 303 302 302 302 302 302 302 302 303 303 303 304 301 303 300 307 313 315 314 308 309 308 308 307 308 307 305 306 306 306 306 306 305 305 305 304 304 304 304 305
305 303 303 304 304 304 304 302 302 301 301 302 302 302 302 302 302 302 300 305 304 300 305 313 313 311 308 313 311 308 307 307 307 306 306 306 306 306 306 305 304 304 303 304 304 306 306
305 303 303 303 303 304 304 303 303 303 303 302 302 303 302 303 302 301 301 308 310 303 308 313 312 309 306 311 310 307 307 307 307 307 307 306 306 305 305 302 298 301 301 304 305 305 306
302 303 303 303 304 304 304 304 304 304 303 302 301 302 303 302 302 301 301 306 311 312 311 308 307 309 305 307 307 306 306 305 306 306 306 306 305 302 302 300 296 298 299 304 304 306 305
302 303 304 304 304 304 304 304 303 302 303 303 302 302 302 302 301 300 300 302 307 306 306 306 306 307 306 305 305 304 303 304 305 305 303 306 302 301 302 302 302 300 301 304 305 305 306
303 304 305 305 305 304 304 305 305 305 304 303 302 301 301 300 299 301 301 300 302 304 306 306 306 304 304 305 305 303 303 305 305 305 304 303 302 303 303 304 304 305 305 306 306 307 310
303 304 305 306 306 305 304 305 304 304 304 303 302 301 301 299 301 302 300 300 301 305 304 304 305 304 305 304 305 305 305 306 306 305 304 303 303 306 305 305 306 305 307 307 307 309 310
303 304 305 306 305 305 304 304 304 304 305 303 301 301 300 299 303 303 302 301 303 306 307 305 305 305 306 308 308 306 306 307 306 306 305 305 304 306 306 307 307 310 309 309 310 314 310
303 304 304 306 305 304 304 305 304 304 304 302 300 300 299 301 303 303 302 302 304 305 307 305 306 305 306 309 308 308 307 308 307 308 308 304 307 308 309 309 309 311 311 312 314 315 313
302 304 304 305 305 303 304 303 303 303 302 301 301 299 299 301 302 302 303 304 304 303 308 308 305 307 309 309 309 308 307 307 308 307 307 306 307 308 308 310 311 311 312 313 314 315 315
302 303 304 305 305 303 304 303 303 302 302 301 301 299 301 301 302 303 304 304 300 301 304 309 308 307 309 309 308 307 308 306 307 310 305 309 310 309 309 312 312 312 313 310 313 315 313
301 303 304 305 305 304 303 303 303 303 302 301 302 302 301 302 302 304 303 300 305 307 305 306 306 307 308 309 308 308 307 308 306 309 311 314 306 313 312 313 315 314 315 317 319 317 314
302 303 304 305 304 304 301 302 302 302 300 301 301 302 302 302 302 302 302 303 302 306 306 307 309 308 309 310 308 308 309 311 311 309 314 314 312 311 312 312 313 317 318 315 318 316 312
300 303 304 305 304 303 302 301 301 300 301 301 301 301 302 303 303 303 301 306 305 306 307 308 308 307 309 309 308 309 309 310 313 312 311 314 315 312 313 313 314 315 315 318 317 321 319
298 303 304 305 305 304 303 303 302 301 301 301 301 302 304 304 304 305 305 307 307 308 309 310 309 308 308 309 310 311 310 310 310 312 310 311 314 312 314 315 314 315 315 315 314 317 320
298 303 304 305 305 304 303 303 302 301 301 302 302 298 305 306 303 304 307 307 307 308 309 309 308 308 309 310 311 312 311 310 311 311 312 310 310 310 313 311 310 312 313 310 311 312 309
299 303 304 306 306 304 304 303 303 302 302 303 303 303 306 306 300 304 305 307 307 308 308 309 309 309 310 311 312 311 311 311 311 310 311 309 308 309 308 307 309 311 309 309 308 306 309
298 304 304 306 304 303 304 304 303 303 304 304 304 299 306 307 304 304 304 307 308 309 308 308 309 309 310 311 309 312 312 311 311 310 310 308 306 308 306 310 310 310 308 308 306 305 309
297 304 305 305 304 304 303 303 304 304 304 305 304 299 303 302 304 303 304 307 308 308 308 308 308 307 309 310 309 308 308 308 310 309 309 306 308 304 308 308 309 307 307 308 307 308 308
297 304 305 304 304 304 304 303 304 303 304 306 306 305 305 304 304 304 305 307 308 308 307 309 308 307 306 308 307 309 307 308 309 307 308 305 305 308 304 307 306 308 305 308 309 309 309
298 301 304 305 304 304 305 304 304 305 304 306 306 307 307 304 302 305 306 307 308 308 307 307 307 307 307 307 307 307 307 307 305 307 306 307 304 303 304 305 306 305 306 308 309 309 309
298 298 304 304 304 304 304 304 304 305 307 307 307 308 306 304 302 303 306 307 306 307 308 307 307 307 308 308 309 308 307 306 307 306 305 306 305 300 302 303 305 302 305 306 307 308 307
297 297 304 304 304 304 304 304 305 305 306 306 307 308 307 302 302 304 304 306 306 307 306 307 308 308 309 308 305 305 305 306 306 305 306 303 303 302 303 303 303 305 305 306 307 308 305
296 297 303 304 304 303 304 304 305 305 305 305 307 308 307 305 302 304 303 305 303 303 302 307 308 308 309 303 303 307 306 306 306 304 303 302 302 304 304 307 305 304 305 306 304 302 304
297 297 300 304 304 303 303 304 304 304 304 305 307 308 307 306 305 304 304 305 306 304 302 304 307 308 308 302 305 305 303 304 305 305 305 303 303 305 305 305 304 302 304 305 305 301 305
298 297 297 304 305 304 303 303 303 304 304 305 306 307 307 307 306 306 306 305 306 306 305 307 305 306 303 304 305 303 303 302 303 301 305 302 302 304 303 305 303 304 304 304 301 304 305
303 296 296 303 305 304 303 304 303 303 305 305 305 306 306 306 306 306 306 306 307 306 306 306 306 306 305 303 301 300 303 299 300 303 300 304 302 302 302 302 301 305 304 305 306 305 305

GFSGBSN_850_thetae_096.txt.gz
Theta_e
307 307 303 304 305 305 304 304 302 303 303 304 303 303 304 303 304 306 307 306 305 305 302 307 311 315 316 313 310 307 308 315 311 307 308 309 310 308 305 305 305 305 305 306 306 305 305
308 307 305 304 305 306 305 304 304 303 303 303 302 303 303 303 304 305 306 304 305 305 304 305 311 313 315 312 311 313 310 313 308 307 308 308 307 306 305 304 304 304 305 304 304 304 304
307 306 304 304 304 304 305 305 304 303 303 303 303 302 301 302 303 303 303 304 303 301 304 302 311 314 311 310 310 311 309 308 307 307 306 305 306 305 305 304 305 304 303 302 303 303 304
304 304 304 304 304 304 305 305 305 304 304 304 303 303 302 302 303 302 302 301 302 301 301 300 311 312 309 311 311 309 310 307 305 305 304 306 306 306 305 305 302 303 302 302 302 304 305
303 304 304 304 305 305 305 306 305 305 304 304 303 301 302 303 303 303 302 301 310 307 301 303 311 311 310 310 311 309 307 307 306 306 306 306 306 305 304 301 296 299 298 303 304 304 305
304 304 304 305 306 305 305 305 306 305 305 303 303 301 302 303 302 302 300 301 307 308 306 310 308 309 308 310 308 307 307 307 306 306 305 305 305 302 301 299 296 299 298 302 303 304 304
303 305 305 305 306 305 306 306 307 305 305 304 303 301 302 301 302 300 300 302 304 307 307 306 307 307 307 307 308 307 305 305 305 305 303 305 301 299 301 301 298 298 301 302 304 304 306
303 305 306 306 306 306 306 306 306 304 304 304 303 301 301 300 299 302 300 301 300 303 304 304 305 305 306 305 304 303 304 305 305 304 304 301 303 303 303 303 303 304 305 306 305 306 309
303 305 306 306 305 307 305 305 304 304 304 303 302 301 300 299 302 301 300 300 301 305 302 302 304 305 305 305 304 304 304 305 304 304 303 302 303 304 305 304 305 306 306 306 308 308 309
303 305 306 305 305 303 305 304 304 304 303 301 301 301 299 302 302 301 302 301 302 306 305 304 305 304 305 305 307 305 306 306 305 305 304 304 304 305 306 307 307 308 307 308 309 313 313
303 305 306 305 305 303 303 304 303 302 300 300 300 299 302 303 303 302 303 303 305 305 307 304 305 305 308 308 307 307 307 307 306 308 306 302 306 307 308 308 308 309 310 310 311 313 314
303 305 305 305 306 303 302 302 302 301 301 300 299 299 300 302 302 302 303 304 304 304 307 307 306 307 308 309 308 307 307 307 307 307 306 305 307 307 308 308 309 310 311 312 313 315 314
303 304 305 305 305 303 303 303 302 300 300 300 300 301 301 302 303 304 304 303 302 304 304 308 307 308 308 308 307 307 307 306 306 308 300 308 309 309 308 311 311 312 314 313 308 310 309
303 304 305 305 302 301 302 302 300 301 301 301 301 302 302 303 303 304 303 299 304 307 307 306 306 307 308 308 307 307 307 306 305 308 309 310 305 311 311 312 315 315 315 314 311 317 316
303 304 305 305 304 301 301 300 301 301 301 301 301 302 302 303 303 303 302 304 301 304 306 306 308 307 308 308 307 307 309 310 310 309 313 313 312 310 311 312 313 316 317 315 317 318 316
302 304 305 305 304 303 303 300 300 301 301 301 301 303 304 305 305 304 303 307 306 306 307 308 308 307 309 309 307 307 307 309 312 310 310 313 315 311 313 312 313 315 314 319 317 318 320
302 304 305 305 304 303 303 301 300 301 302 303 302 304 306 306 307 306 306 307 308 309 308 309 308 307 307 309 308 309 309 308 310 312 310 311 313 311 313 314 314 314 314 315 315 317 319
302 304 305 305 303 303 303 303 302 303 304 305 305 300 307 308 304 304 306 307 307 308 308 308 308 308 309 309 311 312 311 309 310 311 312 310 310 310 311 310 309 311 312 310 310 311 309
300 304 304 304 303 303 302 302 303 304 305 305 304 306 308 309 302 302 304 307 307 308 307 308 309 309 309 310 312 310 310 310 311 309 310 309 308 306 307 306 308 310 309 308 307 305 309
298 304 304 304 304 303 303 303 303 304 305 305 305 300 307 307 304 303 304 306 308 308 308 307 307 308 310 310 309 311 311 310 310 310 310 308 306 308 307 309 309 309 306 306 306 304 308
297 303 305 304 304 304 303 304 303 304 306 305 306 301 303 300 304 302 304 306 308 308 307 308 307 306 307 310 308 308 307 307 309 308 309 306 306 304 305 305 307 307 306 307 307 307 306
297 300 304 304 304 304 304 304 305 304 306 307 307 306 305 303 303 303 304 306 307 307 307 308 308 307 305 307 307 308 307 306 308 306 308 304 305 307 303 307 306 307 306 307 308 308 308
297 298 304 304 304 304 304 304 305 305 305 307 307 307 306 303 302 304 304 306 306 306 307 307 306 306 307 307 306 307 307 306 304 305 305 305 304 302 305 303 304 305 305 308 308 307 308
298 297 303 304 304 304 304 304 305 306 307 307 307 307 306 303 302 303 305 306 305 306 307 307 307 306 308 308 307 306 306 305 304 304 303 304 304 299 302 301 302 303 304 305 306 305 306
300 296 300 304 304 304 304 304 304 304 305 305 306 307 307 302 302 303 304 304 304 305 305 306 307 307 308 307 304 305 304 305 306 304 304 302 302 302 302 301 302 304 303 305 307 306 304
304 297 297 303 304 304 304 304 304 304 304 305 306 307 307 305 301 305 304 304 303 302 302 306 307 307 308 301 302 307 304 305 305 302 302 301 301 303 303 306 305 302 304 305 303 302 303
305 298 296 301 304 304 303 303 303 304 304 305 306 307 307 307 306 306 305 305 306 303 301 303 307 307 306 301 304 304 302 303 304 304 304 302 301 304 304 304 304 300 304 304 304 300 304
305 302 296 297 304 304 303 303 303 303 304 304 305 306 307 306 306 306 306 307 306 305 304 306 303 304 302 303 304 303 302 301 302 300 304 302 301 303 301 304 302 303 304 303 301 304 305
304 305 297 296 302 304 303 303 303 303 304 304 305 305 306 306 306 305 306 307 307 307 308 306 305 306 305 301 300 299 303 297 299 303 298 302 301 300 302 302 301 304 304 305 305 305 305

GFSGBSN_850_thetae_099.txt.gz
Theta_e
308 308 306 305 306 305 304 304 305 304 303 303 304 304 303 304 304 303 306 307 307 306 306 303 308 311 314 314 311 308 313 315 307 308 310 310 309 307 306 304 305 305 305 305 305 305 305
304 304 305 305 305 304 304 304 304 304 304 302 302 302 302 301 302 304 304 305 306 307 306 304 309 313 314 313 312 312 315 315 308 305 308 309 308 306 305 304 303 304 304 304 303 303 303
304 306 306 306 306 306 306 306 305 305 305 304 304 304 303 302 302 303 303 302 303 303 304 306 307 311 312 311 312 315 315 312 306 307 307 306 306 304 304 303 304 303 303 303 302 303 304
305 306 306 307 306 307 307 306 305 305 306 306 305 303 301 303 303 302 302 302 301 302 301 302 307 312 310 311 311 309 312 306 306 306 305 305 305 304 304 304 301 302 301 303 302 303 304
306 306 307 307 307 308 307 307 306 305 305 306 305 303 302 302 303 303 302 300 302 305 302 302 308 310 310 309 310 311 307 306 305 305 305 305 304 304 303 302 299 300 302 304 304 304 305
305 306 307 306 305 306 306 306 306 307 303 306 303 301 302 303 302 301 300 301 308 307 307 304 308 308 308 310 308 308 306 305 306 305 304 304 304 303 302 301 302 302 302 303 304 304 304
305 306 306 305 305 306 305 304 305 305 305 304 302 302 301 301 300 301 301 303 304 305 306 307 307 306 309 307 306 307 307 305 305 304 305 304 304 302 301 301 298 298 302 303 303 304 305
305 306 306 304 306 305 304 304 304 304 304 302 301 301 300 299 302 301 302 302 302 302 302 305 306 307 306 306 305 305 305 305 305 305 304 302 304 303 302 302 303 304 304 305 305 305 308
305 306 305 304 304 303 303 303 303 303 302 301 301 300 299 302 301 302 302 303 303 303 301 300 303 305 305 304 304 304 305 305 304 304 303 302 304 303 304 304 305 305 306 305 307 308 309
305 306 305 304 305 302 301 301 300 300 300 300 299 299 301 302 302 303 303 303 304 305 305 302 304 304 305 305 306 305 306 306 305 304 303 304 303 305 305 305 306 307 306 307 309 311 314
304 306 305 303 304 304 302 301 301 300 299 299 301 302 303 302 303 304 304 304 305 305 306 304 305 305 307 307 305 306 307 307 306 306 303 303 305 307 308 307 307 308 308 310 311 313 313
304 305 306 303 303 303 301 300 300 300 301 301 300 300 302 302 303 304 305 304 303 303 306 305 306 308 308 308 307 307 307 306 307 306 306 305 305 306 307 307 308 308 310 312 312 314 316
304 305 306 304 300 301 300 301 301 301 301 301 302 302 303 303 304 304 303 303 304 304 304 306 309 308 307 307 306 306 306 305 306 301 299 305 308 308 308 310 311 311 313 310 308 314 312
304 304 306 305 303 300 300 301 301 301 301 301 301 303 303 303 303 302 302 300 306 307 306 306 307 307 308 306 306 306 306 306 305 307 308 306 306 309 309 311 315 314 315 314 313 314 315
304 304 305 305 303 303 300 300 300 302 303 302 302 303 304 305 304 303 303 304 303 303 306 307 307 306 308 307 306 306 307 309 309 307 310 309 306 309 310 312 313 316 315 314 316 315 318
304 304 305 305 303 303 301 301 302 304 304 304 305 306 306 306 306 305 303 307 306 305 306 307 307 306 307 308 306 307 307 308 312 308 309 312 315 310 312 311 312 314 313 317 317 317 319
304 305 305 304 303 302 302 303 303 304 305 306 307 306 308 308 308 306 305 306 308 308 308 308 307 306 306 308 306 308 309 308 309 311 310 311 313 309 312 314 313 314 313 313 314 316 318
303 305 304 303 302 303 303 303 304 305 306 307 308 302 309 309 305 302 306 307 307 307 308 308 307 307 308 308 309 311 311 309 309 311 311 309 310 310 310 309 308 310 310 309 311 311 310
300 305 304 304 303 303 303 303 304 305 305 307 306 307 308 310 303 297 303 306 307 306 306 307 308 308 308 309 311 310 310 309 310 309 310 308 308 307 306 305 307 309 308 307 306 305 309
298 304 304 304 303 303 304 303 304 306 306 306 307 301 308 307 303 303 304 305 307 307 307 306 306 307 309 308 308 310 309 309 310 310 310 308 305 307 306 307 308 309 307 306 305 306 308
297 302 305 304 304 303 304 304 304 307 307 306 307 302 303 301 303 301 303 305 307 307 307 307 306 305 307 309 308 307 307 306 308 307 308 305 306 303 305 304 306 307 307 306 304 305 306
297 298 305 304 304 304 304 305 305 304 307 307 307 306 304 303 302 303 303 304 306 306 306 307 307 306 306 307 307 308 307 306 307 304 306 303 306 307 304 305 305 306 305 304 307 307 307
300 297 302 305 304 304 304 305 306 306 306 307 307 306 305 302 302 303 304 306 306 305 307 306 306 305 307 307 306 307 306 306 305 305 304 304 303 302 305 302 303 305 303 305 307 306 306
304 298 298 304 304 304 304 304 305 306 306 307 306 307 306 303 302 303 305 305 305 305 307 307 307 305 307 308 306 305 305 304 303 302 303 303 303 300 303 301 301 303 303 305 306 306 304
304 300 297 302 304 304 304 304 304 304 305 306 306 306 306 302 302 303 304 305 304 305 305 306 307 307 307 306 303 304 302 304 304 303 301 300 301 302 302 301 301 302 301 304 305 305 302
304 304 297 297 304 304 304 304 303 304 304 305 307 306 306 304 301 305 304 304 303 302 301 304 306 307 306 301 302 306 303 303 304 302 300 300 300 303 302 305 304 300 303 304 303 302 301
303 305 299 296 302 304 304 304 303 303 303 304 305 307 306 306 305 305 304 304 306 303 301 302 306 306 305 301 304 303 301 302 304 304 302 301 301 304 304 304 303 300 303 304 304 300 302
302 304 304 297 297 304 304 304 303 303 303 304 304 306 306 306 306 305 305 306 305 305 302 304 303 303 301 303 303 302 302 300 301 300 301 301 300 301 301 303 302 302 303 303 302 303 305
305 304 305 300 296 301 305 304 304 304 303 304 304 305 305 305 305 305 305 305 306 306 307 306 303 304 304 301 300 299 303 296 297 302 297 300 300 300 301 301 300 304 304 306 305 305 305

GFSGBSN_850_thetae_102.txt.gz
Theta_e
304 307 307 307 308 308 307 307 306 305 305 304 304 304 304 304 303 303 303 305 307 307 308 307 305 310 314 314 313 308 313 316 306 308 309 309 309 309 310 309 308 309 309 308 308 307 306
306 307 309 309 308 307 306 306 307 306 305 304 305 304 304 303 301 302 304 305 305 306 308 306 306 310 313 312 312 312 316 314 306 309 309 309 309 308 307 307 307 307 307 306 305 305 304
308 308 308 308 307 306 306 306 306 306 306 305 305 304 304 303 302 301 304 304 303 305 306 307 308 311 311 313 313 314 316 311 306 306 308 307 306 306 306 307 305 305 306 306 305 305 306
308 308 308 308 307 306 305 305 305 306 306 306 305 305 303 302 303 302 302 302 302 302 302 306 307 310 311 313 314 314 312 306 307 307 305 305 304 304 306 305 304 306 306 309 305 307 306
308 308 306 306 306 305 305 305 304 306 306 305 305 305 302 303 303 303 303 301 300 302 303 302 306 310 311 311 311 310 306 306 305 305 304 304 303 306 305 307 308 307 311 308 309 307 308
308 308 306 306 305 305 305 304 305 305 304 302 302 302 302 303 302 301 300 305 308 305 306 303 307 307 309 308 307 307 306 305 305 305 304 304 306 307 306 307 314 309 310 308 309 308 308
308 308 305 305 305 306 304 304 304 304 303 302 302 301 301 301 300 300 302 306 305 305 306 303 304 308 307 306 306 306 306 305 305 306 308 306 308 308 306 305 305 306 308 308 308 308 308
307 308 305 305 305 305 304 303 303 302 302 301 301 300 301 301 302 301 303 303 303 304 302 306 305 306 306 306 306 306 305 306 306 307 306 307 308 305 305 305 307 308 309 311 310 308 310
307 307 303 304 305 303 302 300 300 300 300 299 299 301 302 302 303 302 303 303 303 304 301 301 302 303 305 305 305 306 306 305 306 306 305 308 307 305 306 307 309 310 310 310 311 311 313
306 306 305 303 302 299 300 299 299 299 299 301 302 302 302 302 303 303 303 303 304 305 307 303 303 303 304 305 305 305 306 306 306 306 307 308 305 306 307 309 309 312 309 310 311 313 316
305 306 304 300 300 301 301 301 301 301 302 301 300 302 303 303 304 304 304 304 305 305 309 305 305 304 305 306 304 307 307 307 308 307 308 309 308 309 310 309 309 312 309 311 312 313 314
305 305 305 301 300 300 301 300 301 301 301 301 302 301 304 305 305 305 304 304 303 311 309 307 306 307 308 307 307 307 307 307 307 308 308 308 306 308 310 309 309 310 311 313 314 313 317
304 305 306 304 300 300 300 300 301 302 303 302 302 303 303 303 304 303 303 303 312 311 305 309 310 308 307 308 308 307 308 308 310 313 312 309 310 309 309 312 312 311 312 318 318 316 320
304 305 306 304 302 300 301 301 303 302 304 303 303 304 304 304 303 303 302 307 309 307 308 307 308 308 308 308 308 308 309 311 308 310 311 315 317 311 311 313 314 313 315 318 320 320 319
305 307 306 304 303 302 303 303 304 304 305 304 304 305 305 305 304 303 305 309 308 308 308 309 308 310 309 309 309 310 311 312 311 310 313 315 317 311 311 313 313 315 318 314 317 315 318
305 304 304 303 303 303 303 304 306 307 307 307 306 306 306 306 305 305 310 307 308 307 307 308 309 309 310 310 310 310 311 310 312 310 311 312 317 312 314 313 314 314 314 317 317 320 320
304 304 303 303 303 303 303 304 305 308 309 309 308 309 308 308 308 308 311 310 309 308 308 309 309 309 309 310 310 312 311 310 311 312 311 313 314 314 313 316 316 316 315 314 314 315 320
303 304 304 303 303 303 303 304 305 306 309 309 308 312 309 309 311 307 310 309 308 308 308 309 309 310 311 311 312 313 313 312 311 313 314 312 312 314 315 311 311 313 313 311 315 316 315
298 304 304 303 303 303 303 304 306 306 306 308 308 308 309 310 314 311 307 309 308 309 308 310 311 311 310 312 313 312 312 310 311 312 313 312 313 315 311 310 310 312 311 310 310 311 315
298 302 304 304 303 303 304 304 306 307 307 307 307 313 308 307 303 308 310 310 310 307 308 307 309 309 311 311 311 312 312 311 310 311 310 310 311 313 314 312 312 313 311 309 311 315 314
299 298 304 304 303 303 304 305 305 306 307 308 307 307 304 312 309 307 308 308 310 311 309 308 309 309 310 312 310 310 309 309 310 309 310 310 313 310 310 310 310 311 311 310 310 311 313
304 298 302 304 304 304 304 305 305 305 307 307 307 307 304 305 303 308 308 309 309 309 309 310 310 308 309 310 310 310 309 308 309 307 309 307 313 309 310 309 309 310 310 310 310 310 311
304 300 298 304 304 304 304 304 305 306 306 307 306 306 306 304 307 308 308 307 308 307 307 307 307 308 309 309 308 308 307 307 307 308 308 309 310 311 313 306 307 310 309 309 310 310 311
302 305 299 300 304 304 304 304 304 305 305 306 306 306 306 308 308 308 307 306 307 306 309 307 306 308 307 307 306 306 305 306 306 307 306 308 308 309 313 309 310 307 306 308 310 310 310
301 305 301 298 302 304 304 304 304 304 304 305 306 306 305 308 305 305 305 306 305 305 306 306 307 307 307 305 308 308 307 307 307 306 306 306 308 311 311 310 309 306 303 307 308 309 309
302 304 305 299 297 304 304 304 304 304 304 304 305 306 306 306 306 305 306 305 308 308 306 305 306 306 307 305 307 308 308 305 307 305 303 304 305 309 307 309 306 305 305 305 306 308 306
304 303 304 303 297 299 304 304 304 303 303 303 304 305 306 306 305 304 307 307 305 305 307 304 305 306 305 307 308 308 308 304 307 307 306 307 307 310 310 310 308 306 306 304 308 307 304
309 307 305 304 299 297 303 305 304 303 303 303 303 304 305 305 305 305 305 305 305 305 308 304 306 305 306 308 308 307 307 305 305 305 305 306 307 307 307 309 309 303 305 307 307 302 305
311 309 307 305 304 297 298 304 304 303 304 303 303 304 304 305 305 305 305 305 305 305 307 306 304 305 305 307 305 305 307 304 304 306 300 305 305 306 307 309 304 304 307 306 304 305 305

GFSGBSN_850_thetae_105.txt.gz
Theta_e
308 309 307 307 308 307 307 307 307 306 307 305 305 304 304 304 304 303 303 304 305 307 308 308 308 308 312 316 313 311 315 316 306 309 310 309 309 310 311 311 310 311 311 310 310 309 308
308 308 308 308 308 306 306 306 306 306 306 306 305 304 303 302 301 301 303 305 306 307 307 308 305 308 313 314 310 310 317 315 308 310 310 310 310 310 310 310 311 310 309 308 307 307 307
308 308 306 308 306 306 306 306 305 306 306 306 306 305 304 304 303 301 303 304 303 305 306 308 307 309 311 313 314 315 316 309 309 309 309 309 309 309 309 309 307 307 309 309 308 307 308
307 308 306 309 307 308 305 306 306 306 306 306 306 305 304 302 302 302 303 303 303 303 305 307 307 309 312 312 314 314 311 308 307 308 308 307 307 307 308 307 307 309 308 312 308 308 309
307 306 305 305 306 307 305 304 303 303 305 305 305 305 303 302 303 303 303 302 302 303 306 305 307 310 311 311 312 311 308 307 307 306 305 306 307 307 307 310 312 309 318 312 311 309 310
307 305 305 306 306 304 304 304 303 302 303 302 303 303 302 303 303 303 301 301 304 303 306 306 308 308 309 306 307 307 307 307 307 306 305 306 307 309 309 310 319 315 313 311 312 312 311
307 304 305 304 306 302 299 300 301 301 301 301 301 301 301 301 300 300 305 306 306 305 306 307 304 307 307 305 307 307 307 306 306 306 309 308 311 312 310 308 308 309 310 312 312 311 312
306 305 304 304 303 300 299 299 299 299 299 299 301 301 301 302 301 303 305 305 305 304 303 302 306 305 305 306 307 306 306 306 307 309 307 309 311 307 306 307 309 310 312 315 313 311 312
307 305 301 301 303 301 301 301 301 301 301 302 302 302 302 303 301 303 304 304 304 304 302 301 303 304 306 307 307 306 307 307 308 308 308 311 308 307 308 309 311 312 313 313 314 314 315
305 307 303 300 301 301 301 301 302 301 302 301 303 304 302 303 303 303 304 304 304 305 309 303 304 304 306 306 306 308 308 307 308 308 310 309 307 308 308 310 311 314 311 312 313 314 319
304 306 305 301 300 301 301 300 301 303 302 302 304 304 303 304 304 304 304 305 305 305 311 305 306 304 305 307 306 308 307 309 309 308 311 311 309 310 311 312 310 314 311 313 314 313 313
304 305 306 304 300 300 300 301 302 303 304 302 303 305 304 304 305 304 305 305 304 311 311 308 307 308 308 307 307 308 308 309 309 310 310 310 308 310 312 311 311 311 313 314 313 313 318
305 305 306 304 302 302 302 303 304 304 304 303 304 304 304 305 306 305 305 305 312 312 306 310 310 309 308 308 308 309 310 311 313 315 313 312 312 311 310 313 312 312 314 321 321 320 322
304 303 303 303 302 303 303 304 305 306 306 305 304 305 304 304 303 303 303 309 312 309 309 309 308 308 309 309 309 310 311 313 311 313 314 317 318 313 312 314 315 314 315 320 321 322 321
303 302 302 302 303 303 304 304 305 307 307 307 306 306 305 304 304 304 307 312 311 309 309 309 310 310 311 310 311 312 313 313 313 312 314 316 317 312 313 314 315 315 318 315 318 316 317
304 303 302 303 303 303 304 305 306 308 308 308 307 308 307 307 307 307 311 310 310 308 309 309 311 311 312 311 313 313 313 313 313 312 312 315 318 315 315 314 315 315 314 318 318 320 322
305 304 302 303 303 303 304 305 306 308 308 309 309 311 308 309 311 310 313 312 310 309 310 311 311 311 312 312 313 314 313 312 313 313 313 314 316 316 315 317 317 316 315 315 314 316 320
301 304 303 303 303 303 304 306 307 307 309 309 311 314 309 311 314 312 313 311 309 310 310 311 312 312 313 313 315 315 315 314 313 314 315 314 315 317 316 315 314 315 315 313 316 319 317
298 304 304 303 303 304 304 305 307 307 308 309 311 312 310 312 317 315 311 311 310 311 311 312 313 313 313 314 314 314 313 312 312 313 314 313 316 318 315 313 312 314 314 313 312 313 316
300 299 305 304 304 304 304 305 305 307 308 308 312 316 313 310 309 313 313 313 312 310 310 310 312 312 313 313 313 313 313 312 312 313 310 311 314 314 317 314 313 313 313 311 312 317 316
304 298 301 305 304 304 304 305 305 306 307 308 310 311 309 315 311 312 312 312 313 313 311 310 311 312 312 313 312 312 312 311 312 311 311 312 314 313 312 311 311 311 312 313 312 313 313
304 300 298 303 304 304 304 304 305 306 307 307 311 311 308 309 308 311 310 312 312 311 312 312 311 310 311 312 311 312 311 310 311 310 311 311 314 312 312 311 310 311 311 311 312 312 312
303 305 299 299 304 304 304 304 305 305 306 307 306 306 308 308 310 311 311 310 311 310 310 309 310 311 311 310 309 310 310 310 310 310 310 310 312 312 313 310 310 310 310 310 311 311 311
301 305 302 298 300 304 304 304 304 304 305 305 306 306 309 311 310 310 309 309 309 309 311 309 309 310 309 307 307 307 308 309 309 310 309 311 311 311 314 312 313 310 308 309 310 311 311
304 303 305 301 297 302 305 304 304 304 304 304 305 306 308 310 308 308 308 309 308 307 308 309 309 308 307 308 310 310 310 309 310 310 310 309 311 312 313 311 311 309 306 309 311 310 311
308 304 304 305 300 298 304 304 304 304 303 303 304 305 306 308 309 306 308 308 309 309 309 307 306 306 307 308 309 310 308 308 308 307 305 309 309 311 311 310 308 308 306 307 308 309 310
310 309 308 306 305 298 300 304 304 303 303 303 303 304 306 308 307 305 308 309 307 308 309 307 307 308 306 309 309 309 309 307 308 308 308 308 309 311 311 311 311 309 307 307 309 309 307
311 310 309 308 306 304 298 301 304 303 304 303 303 304 305 308 307 305 305 306 306 307 308 307 308 308 309 309 308 309 309 308 307 308 307 308 309 310 310 311 311 308 307 308 308 305 308
311 311 310 309 307 305 301 298 302 304 303 303 303 303 304 304 307 305 305 305 305 305 307 307 308 308 308 308 308 308 308 308 307 306 305 307 307 309 309 310 307 307 309 308 305 307 307

GFSGBSN_850_thetae_108.txt.gz
Theta_e
308 308 307 306 309 308 307 308 306 307 307 308 305 304 304 305 304 304 304 304 305 306 307 307 309 309 313 315 314 312 317 314 306 310 310 310 310 310 313 312 311 311 312 311 310 309 308
306 307 307 307 307 307 303 304 306 307 307 307 305 304 303 302 302 301 303 304 306 307 308 308 308 309 310 315 312 313 318 314 309 310 310 310 310 311 311 311 311 311 311 310 308 308 307
304 307 306 306 307 308 306 303 305 307 306 306 305 304 304 304 303 301 304 304 305 306 307 308 306 309 311 313 311 315 316 310 310 310 311 310 310 310 310 310 309 308 309 309 309 308 309
305 306 305 306 307 305 305 305 303 305 307 306 305 305 303 302 302 302 304 303 303 304 306 307 307 309 312 311 311 313 309 309 309 309 309 308 308 309 310 308 308 309 308 311 308 309 309
307 306 304 306 304 304 305 304 304 304 305 305 305 304 302 303 304 302 302 302 302 305 307 305 309 309 310 312 312 309 309 308 307 307 306 306 308 307 307 310 312 309 317 313 311 309 310
307 305 305 304 304 304 302 300 300 301 302 302 302 302 303 303 303 303 303 301 301 306 307 306 308 309 309 310 309 309 307 308 307 305 304 305 308 308 308 311 317 314 312 311 310 312 310
306 301 304 305 303 304 303 302 301 301 300 301 301 300 300 301 301 305 306 304 305 305 304 306 305 307 307 307 308 307 308 307 306 306 309 308 311 312 309 308 309 309 310 312 312 312 311
306 305 301 304 305 304 304 304 302 302 302 302 302 302 303 302 301 306 305 305 305 304 303 304 306 306 307 307 307 307 306 307 307 310 307 310 312 308 307 308 309 310 312 314 313 312 312
304 306 304 301 301 302 303 304 305 302 304 304 303 303 303 303 302 305 305 304 304 304 303 302 303 304 306 308 307 307 307 307 309 309 309 312 308 307 309 309 311 311 312 313 313 314 314
304 304 306 304 304 302 304 305 305 305 303 303 304 303 303 301 303 304 304 304 305 306 308 303 304 304 306 307 308 308 308 308 308 309 310 309 307 308 309 311 311 314 311 312 314 313 313
307 303 303 303 302 302 303 305 306 306 303 304 304 303 303 303 303 304 304 305 306 305 310 305 306 305 306 308 306 307 308 310 308 309 311 310 308 309 311 312 311 314 312 313 314 313 313
305 303 303 302 303 303 304 304 306 306 304 304 304 304 304 305 304 304 305 305 305 310 311 307 307 308 308 308 308 308 309 309 309 311 310 310 309 310 312 311 311 311 313 314 313 313 315
305 302 302 303 303 303 304 305 306 306 304 305 304 305 305 306 305 305 305 304 310 311 306 310 311 309 308 308 309 309 310 311 313 312 311 312 312 311 311 313 312 312 313 317 317 317 313
302 302 302 303 303 303 304 306 307 307 306 306 305 305 305 306 305 306 303 308 311 310 309 309 309 309 310 310 310 310 311 311 311 313 313 314 312 313 312 314 315 314 314 317 315 321 319
304 302 303 303 303 304 304 306 307 307 307 307 307 307 305 304 304 304 307 311 311 310 309 309 310 311 311 310 311 312 312 313 312 312 314 315 314 313 313 313 314 314 317 315 314 315 313
305 303 303 303 303 304 305 306 306 308 308 309 309 309 309 309 308 309 311 310 310 309 309 310 311 311 312 312 313 313 313 313 313 312 313 314 316 314 314 314 314 315 314 317 316 319 320
304 304 303 303 303 304 305 306 306 308 309 310 311 312 310 312 311 311 313 311 310 310 311 311 311 312 312 313 313 313 313 313 313 313 313 314 316 315 315 316 316 315 315 314 314 316 318
299 304 304 303 303 304 304 306 307 308 310 311 312 313 310 313 315 313 313 312 310 311 311 312 313 313 313 314 314 315 315 314 314 314 314 313 314 314 316 315 313 314 315 313 312 318 314
299 301 304 304 303 304 304 305 307 307 308 309 312 313 312 314 317 314 312 311 311 312 312 313 314 313 313 314 314 314 313 312 313 313 313 312 314 312 314 312 312 312 313 313 311 311 311
304 299 303 304 304 304 304 305 305 307 308 308 313 311 314 312 311 313 314 313 313 311 311 311 312 313 313 313 313 313 313 313 312 313 310 311 313 312 312 313 312 313 312 312 310 310 313
306 301 299 304 304 304 304 305 305 307 308 310 312 311 310 317 312 312 313 313 313 313 311 311 312 312 312 312 312 312 312 311 312 312 311 311 312 311 311 311 310 310 310 311 310 310 311
304 306 300 299 304 304 304 304 305 306 307 308 312 311 309 310 309 311 311 312 313 312 311 311 311 310 311 312 311 312 311 310 311 310 310 310 310 311 305 309 310 309 309 310 310 311 310
303 306 305 300 299 304 304 304 304 305 306 306 307 308 309 308 311 311 310 311 311 311 310 310 310 310 311 310 309 309 309 310 310 309 309 309 309 308 309 311 309 307 308 308 309 309 310
304 304 306 305 299 300 304 304 304 304 304 305 305 307 310 310 310 310 310 309 310 309 310 310 309 310 309 307 308 308 308 308 309 309 309 309 309 308 307 308 309 308 308 309 308 309 308
311 306 305 305 304 299 301 305 304 304 303 304 304 306 308 310 308 309 309 309 309 308 308 309 309 309 307 307 308 308 309 309 309 308 308 308 308 307 307 308 308 307 306 307 308 307 307
311 311 310 308 306 301 298 303 305 304 303 303 304 304 306 308 308 307 308 309 308 308 308 308 307 306 307 308 308 309 307 307 308 306 305 307 307 308 308 309 308 308 305 307 308 304 307
312 311 311 310 307 305 299 299 304 305 304 303 303 304 305 309 308 306 307 308 308 308 307 308 307 308 307 308 308 306 307 307 306 307 305 306 307 308 308 308 308 307 305 307 307 306 307
311 311 311 310 310 306 305 298 299 304 304 304 303 303 304 307 307 307 306 305 306 306 306 307 308 307 308 308 306 307 306 305 305 306 306 306 306 306 306 308 307 306 306 305 305 306 308
309 310 311 310 310 309 305 303 298 299 303 303 304 304 303 303 304 305 304 305 305 307 307 308 308 308 308 306 305 305 305 304 304 303 304 304 304 305 306 307 306 307 307 308 306 307 307

GFSGBSN_850_thetae_111.txt.gz
Theta_e
307 306 306 307 307 307 306 309 307 307 308 306 305 303 304 304 304 304 305 305 305 305 308 308 309 310 313 313 313 316 315 314 308 309 310 311 310 311 310 310 310 310 310 310 310 308 308
307 305 306 306 306 306 306 307 307 307 307 306 305 303 303 302 301 302 303 305 305 306 306 307 308 310 313 314 313 314 318 309 309 310 310 310 310 311 311 310 309 311 310 309 307 307 307
307 305 306 306 306 306 306 305 306 307 306 306 305 304 304 303 301 304 304 305 307 307 308 308 307 309 312 313 313 314 312 310 311 311 310 310 310 310 310 308 308 307 308 307 307 307 307
305 305 305 306 305 305 304 304 305 306 306 306 305 303 302 302 301 303 304 303 303 305 307 306 307 309 311 312 314 315 309 310 310 310 310 309 309 309 309 307 307 308 306 307 307 307 308
300 302 306 305 305 304 304 303 303 303 303 304 303 303 303 303 302 302 303 302 305 306 306 308 309 309 310 311 312 309 309 309 309 309 309 308 309 307 307 306 304 306 309 309 308 308 309
304 300 302 304 305 306 306 302 303 303 302 300 301 302 302 303 302 303 302 302 306 306 307 308 307 308 309 310 309 308 307 307 306 305 304 305 307 305 305 307 304 308 307 310 309 309 309
308 303 301 300 302 303 305 307 303 304 302 302 302 301 301 301 304 303 301 305 305 306 304 306 307 307 308 307 308 308 307 306 305 306 305 308 306 305 306 307 307 308 309 310 311 310 310
308 306 303 302 303 304 305 306 306 303 304 303 303 303 301 303 305 304 304 305 304 305 303 305 306 307 307 307 306 307 307 307 307 307 306 307 306 306 307 308 309 309 311 312 313 312 311
309 305 302 302 302 304 305 305 306 305 303 304 304 303 302 300 305 305 305 305 304 304 302 303 304 305 307 307 307 307 308 307 307 307 307 306 307 307 309 308 310 310 311 312 311 312 312
306 303 302 303 303 304 304 305 306 305 305 303 303 303 302 302 304 304 304 305 306 306 304 303 305 306 307 307 308 308 308 308 307 307 308 306 306 308 309 310 310 312 311 312 313 309 308
305 302 303 303 304 304 305 305 304 305 305 304 303 303 302 303 304 304 304 305 305 306 302 305 306 305 307 307 307 306 309 309 308 309 308 306 307 308 310 311 310 312 311 312 313 312 308
305 302 303 303 304 305 305 306 306 305 304 305 304 304 305 305 305 305 305 306 305 300 307 307 307 308 308 308 308 307 309 309 309 309 308 308 308 309 311 310 310 311 312 312 313 312 307
303 303 303 303 304 305 306 306 306 306 305 304 305 305 305 305 305 306 305 304 303 305 306 309 310 308 308 309 309 310 310 310 310 304 306 311 310 310 310 312 311 311 309 306 307 307 307
302 303 303 303 304 305 306 307 307 306 306 305 304 305 305 305 305 305 305 304 307 310 310 309 309 309 310 309 310 310 310 309 310 311 306 306 304 311 310 313 311 314 313 306 306 310 308
304 303 303 303 304 305 306 306 308 308 309 309 308 307 305 304 305 305 305 308 306 308 309 309 309 310 310 310 311 311 312 312 311 311 309 310 311 312 310 313 314 313 315 314 309 310 306
304 304 303 303 304 304 305 306 308 308 308 310 310 309 310 309 308 308 304 306 308 309 309 309 310 310 310 311 312 312 311 311 312 311 311 313 312 313 313 313 313 315 313 315 311 310 316
300 304 303 303 304 304 305 306 307 310 311 312 312 311 310 312 310 310 303 307 310 310 310 310 311 310 310 311 310 312 311 312 312 312 312 313 314 314 313 313 314 314 313 313 312 315 315
299 303 304 303 304 304 305 306 307 308 310 311 311 306 311 312 309 309 303 310 310 311 311 311 311 311 312 312 313 313 313 313 313 313 313 311 312 310 313 312 312 311 311 311 309 314 313
302 299 304 304 304 304 304 305 307 307 308 308 313 312 311 313 306 302 310 310 310 311 310 311 312 312 312 312 313 312 312 312 313 312 312 311 311 306 309 308 310 311 311 311 309 307 308
305 301 300 304 304 304 304 305 306 307 308 310 312 304 312 312 311 310 311 312 311 311 310 311 311 311 312 312 311 312 312 311 312 312 311 310 310 309 311 311 310 311 311 310 309 305 307
306 305 301 300 304 304 304 304 306 307 308 310 310 307 310 304 308 308 310 310 312 311 311 311 310 310 310 311 311 311 311 310 311 312 310 309 309 309 309 309 309 309 309 309 309 309 309
303 306 305 300 300 304 304 304 305 306 307 309 311 310 309 309 309 309 308 310 311 311 310 310 309 309 308 309 309 310 309 309 310 309 310 308 307 308 304 307 308 308 307 308 308 310 309
306 304 306 305 300 300 304 305 304 305 306 306 307 308 310 307 307 307 307 308 310 310 310 309 309 308 309 309 308 308 308 308 308 307 307 308 306 304 305 306 306 304 305 307 308 307 309
311 310 308 306 304 299 301 305 304 304 304 305 305 308 310 306 305 307 308 308 308 308 309 309 308 308 309 308 307 307 307 307 307 307 307 307 306 303 304 305 304 303 306 306 306 307 307
311 311 310 309 306 302 299 302 305 304 303 303 305 307 308 305 306 307 308 308 308 308 306 308 309 308 308 306 305 304 306 307 307 306 306 306 306 304 305 305 305 305 306 305 306 304 305
311 311 311 310 307 306 301 299 302 305 303 303 303 304 306 306 303 307 307 308 305 304 306 307 307 306 306 306 305 307 304 306 306 307 304 305 305 305 305 308 307 303 305 306 305 301 303
308 310 311 310 310 307 305 301 299 303 304 303 303 303 304 308 307 306 304 306 308 306 303 306 307 308 306 304 305 304 302 305 303 305 304 305 305 306 305 307 306 304 304 307 303 301 306
307 309 310 310 311 310 306 305 300 299 302 303 303 303 303 304 304 307 306 305 306 306 303 306 304 306 305 305 303 303 303 303 304 303 303 304 303 304 304 306 306 305 305 304 302 306 306
306 308 309 310 310 310 310 307 305 300 299 301 303 303 304 304 303 304 305 305 304 305 307 307 306 306 307 303 301 301 303 301 301 301 301 303 304 305 305 306 305 306 305 307 307 307 306

GFSGBSN_850_thetae_114.txt.gz
Theta_e
308 306 306 305 307 305 307 307 307 307 305 305 303 304 305 304 305 306 307 306 307 306 308 309 309 309 313 312 312 315 315 311 309 309 310 312 311 311 309 309 309 309 309 310 309 307 307
306 306 306 307 305 305 305 307 307 306 306 305 303 303 301 301 301 303 304 305 307 306 306 306 308 311 313 312 314 316 317 308 310 310 310 310 309 310 310 308 308 310 309 308 307 307 306
305 305 305 305 305 305 304 305 305 306 306 304 304 303 302 301 304 305 305 306 306 306 307 307 308 312 313 312 313 315 309 309 310 310 310 309 310 310 309 307 308 308 306 306 306 307 307
303 301 303 305 307 307 304 305 303 305 305 305 303 302 302 301 303 304 303 305 307 307 307 307 308 310 312 312 314 313 309 309 310 310 310 309 310 309 308 307 306 306 304 306 307 307 308
305 301 300 301 302 305 308 304 304 300 302 303 303 303 303 302 303 303 303 303 305 307 306 307 309 310 310 311 311 310 309 308 309 310 309 309 309 307 307 304 302 303 304 307 308 307 309
308 306 303 302 303 304 306 307 304 302 301 300 301 302 303 302 302 302 305 305 306 307 308 308 309 309 309 310 309 311 309 307 307 308 308 307 307 304 303 303 302 305 306 309 309 309 308
308 306 304 303 303 306 306 308 305 304 302 302 301 300 302 303 302 301 306 306 306 306 305 307 307 308 308 307 307 307 307 305 305 306 304 308 304 304 306 307 307 306 308 309 310 310 309
307 304 303 303 303 304 306 307 306 305 303 303 303 300 304 303 302 302 305 305 305 306 304 306 307 306 307 307 307 307 307 307 308 305 306 304 305 306 307 308 308 309 309 311 312 311 311
303 303 303 303 304 304 305 307 307 305 303 304 303 301 303 304 305 305 305 305 305 305 303 304 305 306 307 306 307 308 307 307 307 307 307 305 306 307 308 308 309 309 309 312 309 311 311
303 303 303 303 305 305 305 305 307 305 303 303 303 302 301 304 304 304 305 305 305 306 302 303 305 305 307 307 308 307 308 308 307 307 306 305 306 308 308 310 309 310 311 311 313 308 306
303 303 303 304 305 305 306 305 305 304 303 303 301 301 302 304 304 305 306 305 305 306 303 304 306 306 307 307 306 308 309 309 309 309 306 304 306 308 310 310 310 311 311 312 312 310 307
303 303 303 304 305 306 306 306 305 305 304 305 304 303 304 304 304 305 305 305 304 299 306 308 308 308 308 307 307 308 308 309 309 308 307 306 307 309 310 309 310 310 311 311 310 307 304
302 303 303 304 305 305 307 306 306 305 305 305 305 305 305 305 305 305 305 304 302 305 305 310 309 308 308 308 309 309 309 310 310 304 303 309 309 309 310 311 310 310 305 301 305 309 305
303 303 303 304 305 305 306 308 309 307 305 305 305 305 305 305 305 305 305 302 306 309 310 308 309 309 309 309 310 310 309 308 309 307 304 302 304 310 310 311 310 312 307 303 307 310 307
304 303 303 303 304 305 306 307 308 309 309 309 309 306 305 305 304 305 305 306 305 307 309 310 309 310 310 310 310 310 310 311 310 309 308 307 308 311 309 313 312 310 308 311 307 308 308
303 303 303 303 304 305 306 307 308 308 309 310 311 310 310 309 308 307 303 306 308 308 308 308 309 310 311 311 311 311 311 311 311 311 310 310 310 312 312 312 313 313 311 311 308 310 312
300 304 303 303 304 304 305 307 308 310 311 311 312 311 311 312 309 309 301 306 309 310 310 310 310 310 309 310 310 311 310 311 311 311 311 311 310 313 313 313 312 313 312 312 309 308 309
300 301 304 304 304 304 305 306 307 308 310 311 311 306 312 312 308 305 302 309 310 310 310 310 310 311 311 311 312 312 312 311 312 312 313 311 310 309 313 310 310 310 310 309 308 310 309
305 299 301 304 304 304 304 305 307 307 307 310 312 312 311 311 306 301 309 310 310 310 309 310 311 311 311 312 312 312 311 311 312 312 311 310 310 305 309 308 309 312 310 309 307 306 308
306 305 299 300 304 304 304 305 306 307 308 310 312 304 311 311 310 308 310 311 311 310 310 310 310 310 310 310 309 311 311 311 312 311 310 310 309 308 307 309 308 310 309 310 309 304 307
305 306 306 300 300 304 304 304 305 307 309 311 309 306 310 303 307 308 308 310 311 310 310 310 309 308 309 310 310 310 311 310 311 311 310 308 308 307 307 307 308 309 309 309 309 311 308
308 307 307 306 300 301 304 304 304 306 307 310 310 308 308 307 308 308 306 309 310 310 309 310 309 308 308 309 309 309 308 308 309 309 308 306 306 306 303 306 306 307 306 308 308 309 309
311 311 311 307 305 300 303 305 304 304 306 306 307 308 309 305 305 305 305 308 309 309 309 309 308 308 309 308 308 307 307 307 307 307 306 307 305 303 305 304 305 303 305 307 306 305 308
311 311 311 310 307 303 300 304 305 304 304 305 306 308 309 304 304 305 307 308 307 308 309 309 308 308 308 308 306 306 306 306 305 306 305 304 305 301 303 303 302 303 303 305 306 306 306
309 311 311 311 308 306 301 300 304 304 303 303 304 305 307 303 304 306 307 307 307 307 306 306 308 308 308 306 303 303 303 306 306 305 304 304 304 303 303 304 304 304 305 305 305 304 304
308 309 310 310 311 307 305 300 301 304 303 302 303 303 305 305 300 305 306 306 303 303 303 307 307 306 305 304 303 305 302 304 305 307 302 303 303 304 304 308 306 302 304 306 303 300 301
308 307 308 310 310 310 306 304 300 301 303 303 303 303 303 305 306 306 304 304 306 304 301 304 306 307 306 302 304 303 302 303 303 304 304 305 303 305 304 306 306 304 304 306 304 301 304
307 307 307 309 309 310 310 307 305 301 300 302 303 303 303 303 304 306 305 306 306 306 301 304 303 304 303 304 303 301 302 301 303 301 302 303 302 303 303 305 305 304 304 303 303 305 306
307 306 306 307 308 310 310 310 308 305 302 301 301 301 302 303 304 305 305 305 305 305 306 306 303 305 305 301 300 299 302 299 299 301 299 302 302 303 304 304 304 305 305 307 306 306 306

GFSGBSN_850_thetae_117.txt.gz
Theta_e
304 305 306 307 306 306 305 306 306 306 305 303 303 304 304 304 305 305 306 307 308 307 309 308 309 310 315 313 313 314 315 312 308 310 311 312 311 310 309 308 309 308 309 310 308 307 307
301 301 306 307 307 307 305 302 305 306 305 304 303 302 301 301 303 304 306 306 307 306 308 308 310 311 313 311 313 313 317 310 310 309 311 312 309 310 308 307 307 309 308 307 306 306 306
303 301 301 305 305 307 306 304 301 305 305 304 302 302 301 304 304 304 305 306 307 306 306 306 310 312 312 312 314 310 309 309 309 310 311 310 310 309 309 306 307 306 306 306 306 306 306
307 303 302 303 303 306 308 304 302 303 305 304 304 304 303 303 303 304 304 307 307 307 307 307 311 311 311 312 312 311 307 309 310 309 310 310 309 309 307 306 306 304 303 304 306 306 307
308 306 306 307 306 307 308 307 304 300 301 302 303 303 301 303 303 303 303 305 306 306 307 308 310 310 310 311 312 309 308 307 309 309 309 309 309 306 306 303 301 302 302 307 307 306 308
305 305 305 307 307 307 308 308 305 303 301 300 302 302 302 302 302 305 306 307 307 307 308 309 309 309 309 309 310 310 309 306 307 308 308 308 306 303 303 301 303 304 306 307 308 308 307
304 304 303 307 308 307 307 308 306 304 302 302 300 302 303 302 303 306 305 306 307 306 305 307 308 308 307 307 309 310 308 306 306 305 305 306 303 302 306 306 303 303 306 308 309 309 309
304 304 303 306 308 308 306 308 306 304 303 303 300 304 302 301 303 305 306 305 306 305 305 306 307 307 307 307 306 307 308 308 305 305 306 303 304 305 306 306 306 306 307 309 311 310 311
303 304 304 305 306 307 307 306 306 303 303 303 301 304 304 304 304 305 305 306 306 306 303 304 305 306 307 307 307 307 307 307 307 306 305 304 305 306 307 307 308 308 309 310 307 310 310
304 303 304 305 305 306 306 305 305 303 302 303 302 301 304 304 304 305 305 305 305 306 303 303 306 306 307 308 307 307 308 307 307 306 305 305 305 307 308 309 307 309 310 311 312 306 304
303 303 303 305 306 306 305 305 304 304 303 301 301 301 304 304 305 306 305 305 304 306 307 305 306 306 307 307 307 309 308 309 309 308 304 304 306 308 309 309 309 309 310 311 311 308 305
303 303 303 305 305 307 306 305 305 305 305 304 303 303 303 304 305 305 305 305 305 300 307 308 308 308 308 307 307 308 309 309 308 307 306 306 306 308 309 309 309 309 310 306 307 305 303
303 302 303 304 305 306 308 307 305 304 305 305 305 305 305 305 305 305 305 305 301 304 304 307 310 308 308 308 309 309 309 310 308 304 302 306 308 309 310 310 309 307 305 299 301 304 304
303 302 303 304 304 306 307 309 309 309 307 305 305 305 305 305 305 305 305 301 308 309 309 307 309 309 309 309 309 309 308 309 308 307 303 301 302 309 309 310 309 311 306 301 301 308 306
304 303 303 304 304 305 306 307 308 309 310 310 310 309 308 306 304 305 304 302 303 307 308 309 309 309 309 310 309 310 309 309 309 307 306 305 305 310 309 311 310 310 306 308 305 305 309
302 303 303 303 304 304 306 307 308 308 309 310 311 310 310 310 308 306 303 305 308 307 308 308 309 309 310 310 311 310 310 310 310 310 308 308 309 311 311 312 312 311 309 308 306 308 312
299 303 303 303 303 304 305 306 307 309 310 309 311 310 312 310 309 309 301 306 309 309 310 309 310 309 310 311 310 310 310 310 310 310 311 308 308 312 312 312 311 312 311 310 307 306 307
303 299 303 304 303 304 304 305 306 307 309 310 311 306 311 310 308 303 301 309 309 309 309 309 309 310 311 309 311 311 311 310 311 311 312 309 308 308 311 310 309 309 310 308 307 308 308
306 304 299 302 304 303 304 304 306 307 307 307 312 312 311 310 305 300 308 309 309 309 309 310 311 310 310 311 311 311 311 311 312 310 310 309 308 304 308 308 309 311 309 308 305 305 308
306 307 305 300 301 304 303 304 305 307 308 310 311 304 310 310 308 307 309 310 310 310 309 309 309 309 309 309 308 311 310 310 311 311 310 308 307 307 305 307 307 310 309 308 308 304 307
310 309 307 305 300 302 304 303 304 306 308 311 308 306 308 303 306 307 307 309 310 310 309 308 308 308 309 309 309 310 310 309 310 310 309 306 307 305 305 305 307 308 308 307 308 310 309
311 312 310 307 303 300 303 304 303 305 307 310 309 307 307 306 307 307 305 309 309 309 309 309 307 308 307 308 307 307 308 308 308 308 308 305 306 305 302 305 305 307 306 307 307 309 310
311 311 311 309 307 302 301 304 304 304 305 306 307 308 308 303 304 304 304 307 308 308 308 308 307 307 308 307 307 307 307 306 306 307 306 305 304 303 304 302 303 303 303 305 306 305 308
309 310 310 311 308 306 302 301 304 303 304 305 306 308 309 303 303 304 306 307 307 307 308 308 307 307 307 308 306 306 305 305 305 305 304 303 303 301 302 302 300 301 301 303 304 305 305
309 308 309 310 311 308 306 302 301 304 303 303 304 306 307 302 303 304 306 306 306 306 306 305 307 307 307 305 302 302 301 305 305 304 303 302 303 302 302 303 302 303 304 303 304 303 302
308 308 308 309 309 311 308 306 302 302 303 303 302 303 305 302 299 306 305 306 302 302 302 306 306 306 305 302 302 304 301 303 305 305 301 302 301 302 304 307 304 301 303 304 303 300 301
309 307 307 308 309 310 311 308 307 303 301 303 303 303 303 304 305 305 303 303 305 302 300 302 305 306 305 301 303 302 301 301 303 304 304 304 302 305 304 305 304 302 303 305 305 301 303
309 307 306 307 309 309 310 311 309 308 306 303 303 302 303 303 303 306 305 306 306 305 300 303 302 302 302 303 302 301 301 300 301 300 302 303 302 304 303 305 305 304 303 303 302 304 305
310 307 306 305 307 308 309 310 310 309 308 307 306 304 302 302 303 304 304 305 304 305 305 304 302 303 304 300 299 298 302 298 299 301 298 302 301 302 303 304 303 304 304 306 305 304 306